| State | Missouri | Latest | Unknown (1040 cfs) | |
| River | Big River | Rating | Observed | Estimated |
| Updated | 2026-05-10 10:30 (22 minutes ago) | Flood - The river is flooding. Obstacles can be treacherous or deadly. The river should be avoided at this stage for casual trips and definitely for the inexperienced. Trips should be attempted only with protective gear and equipment.Flood | (none) | (none) |
| Discharge | 1040 cfs (median: 575 cfs) | High - The river is high and potentially dangerous, especially for the young and / or inexperienced. Normal stream obstacles are sometimes difficult to navigate. Extended distances can be attempted, but canoe travel may not be advisable.High | (none) | (none) |
| Height | 4.79 feet | Good - Conditions are ideal for a canoe or kayak. Boats typically will drag on fewer than one-quarter of riffles, if at all, and portages are unnecessary or rare. Normal float lengths can be attempted without a problem.Good | (none) | (none) |
| Trend | Rising (falling over 24 hours) | Low - River is low but can still be floated. Some riffles are okay but most come with significant dragging and might need a portage. Float lengths should be reduced to accommodate low flow, dragging, and portages.Low | (none) | (none) |
| USGS | USGS Site ( Duck Duck Go Maps) | Poor - River is too low to float comfortably. Most or all riffles will drag or must be portaged and some obstacles (such as slick shelf rock) cause undue problems. Avoid the river at this stage for casual paddling trips.Poor | (none) | (none) |
A total of 1 rows are displayed.
| Miles | 5.5 |
| Trips | 1 |
| People | 2 |
| Dates | 1 |
| Years | 1 |
| Months | 1 |
| Rows | 1 |
| Sources | 1 |
BLG - Bluegill
CCF - Channel Catfish
CP - Chain Pickerel
FWD - Freshwater Drum
GSF - Green Sunfish
KSB - Kentucky Spotted Bass
LMB - Largemouth Bass
LSF - Longear Sunfish
RB - Rock Bass / Goggle Eye
RSF - Redear Sunfish
RT - Rainbow Trout
SMB - Smallmouth Bass
WB - White Bass
WF - Whitefish
WL - WalleyeThe classic River Trips application is still available for use. It is updated with the new system using a data retrofit. It is no longer maintained. The original River Trips application is no longer updated (as of 1 Dec 2016) but can be checked for errors or for the condition of the data before it was converted to the new system.
| Observation | Height | Discharge | Maximum Discharge | Minimum Discharge | Mean Discharge | P05 | P10 | P20 | P25 | P50 (Median) | P75 | P80 | P90 | P95 |
|---|---|---|---|---|---|---|---|---|---|---|---|---|---|---|
| 2026-05-10 10:30 | 4.79 | 1040 | 10700 (2002) | 137 (2000) | 1170 | 176 | 197 | 330 | 355 | 575 | 1130 | 1300 | 1960 | 6490 |
| 2026-05-10 10:00 | 4.78 | 1030 | 10700 (2002) | 137 (2000) | 1170 | 176 | 197 | 330 | 355 | 575 | 1130 | 1300 | 1960 | 6490 |
| 2026-05-10 09:30 | 4.82 | 1050 | 10700 (2002) | 137 (2000) | 1170 | 176 | 197 | 330 | 355 | 575 | 1130 | 1300 | 1960 | 6490 |
| 2026-05-10 09:00 | 4.82 | 1050 | 10700 (2002) | 137 (2000) | 1170 | 176 | 197 | 330 | 355 | 575 | 1130 | 1300 | 1960 | 6490 |
| 2026-05-10 08:30 | 4.85 | 1060 | 10700 (2002) | 137 (2000) | 1170 | 176 | 197 | 330 | 355 | 575 | 1130 | 1300 | 1960 | 6490 |
| 2026-05-10 08:00 | 4.88 | 1080 | 10700 (2002) | 137 (2000) | 1170 | 176 | 197 | 330 | 355 | 575 | 1130 | 1300 | 1960 | 6490 |
| 2026-05-10 07:30 | 4.87 | 1070 | 10700 (2002) | 137 (2000) | 1170 | 176 | 197 | 330 | 355 | 575 | 1130 | 1300 | 1960 | 6490 |
| 2026-05-10 07:00 | 4.88 | 1080 | 10700 (2002) | 137 (2000) | 1170 | 176 | 197 | 330 | 355 | 575 | 1130 | 1300 | 1960 | 6490 |
| 2026-05-10 06:30 | 4.92 | 1090 | 10700 (2002) | 137 (2000) | 1170 | 176 | 197 | 330 | 355 | 575 | 1130 | 1300 | 1960 | 6490 |
| 2026-05-10 06:00 | 4.95 | 1110 | 10700 (2002) | 137 (2000) | 1170 | 176 | 197 | 330 | 355 | 575 | 1130 | 1300 | 1960 | 6490 |
| 2026-05-10 05:30 | 4.96 | 1110 | 10700 (2002) | 137 (2000) | 1170 | 176 | 197 | 330 | 355 | 575 | 1130 | 1300 | 1960 | 6490 |
| 2026-05-10 05:00 | 5.00 | 1130 | 10700 (2002) | 137 (2000) | 1170 | 176 | 197 | 330 | 355 | 575 | 1130 | 1300 | 1960 | 6490 |
| 2026-05-10 04:30 | 5.02 | 1140 | 10700 (2002) | 137 (2000) | 1170 | 176 | 197 | 330 | 355 | 575 | 1130 | 1300 | 1960 | 6490 |
| 2026-05-10 04:00 | 5.05 | 1150 | 10700 (2002) | 137 (2000) | 1170 | 176 | 197 | 330 | 355 | 575 | 1130 | 1300 | 1960 | 6490 |
| 2026-05-10 03:30 | 5.02 | 1140 | 10700 (2002) | 137 (2000) | 1170 | 176 | 197 | 330 | 355 | 575 | 1130 | 1300 | 1960 | 6490 |
| 2026-05-10 03:00 | 5.05 | 1150 | 10700 (2002) | 137 (2000) | 1170 | 176 | 197 | 330 | 355 | 575 | 1130 | 1300 | 1960 | 6490 |
| 2026-05-10 02:30 | 5.11 | 1180 | 10700 (2002) | 137 (2000) | 1170 | 176 | 197 | 330 | 355 | 575 | 1130 | 1300 | 1960 | 6490 |
| 2026-05-10 02:00 | 5.09 | 1170 | 10700 (2002) | 137 (2000) | 1170 | 176 | 197 | 330 | 355 | 575 | 1130 | 1300 | 1960 | 6490 |
| 2026-05-10 01:30 | 5.15 | 1200 | 10700 (2002) | 137 (2000) | 1170 | 176 | 197 | 330 | 355 | 575 | 1130 | 1300 | 1960 | 6490 |
| 2026-05-10 01:00 | 5.15 | 1200 | 10700 (2002) | 137 (2000) | 1170 | 176 | 197 | 330 | 355 | 575 | 1130 | 1300 | 1960 | 6490 |
| 2026-05-10 00:30 | 5.17 | 1210 | 10700 (2002) | 137 (2000) | 1170 | 176 | 197 | 330 | 355 | 575 | 1130 | 1300 | 1960 | 6490 |
| 2026-05-10 00:00 | 5.15 | 1200 | 10700 (2002) | 137 (2000) | 1170 | 176 | 197 | 330 | 355 | 575 | 1130 | 1300 | 1960 | 6490 |
| 2026-05-09 23:30 | 5.22 | 1230 | 10700 (2002) | 137 (2000) | 1170 | 176 | 197 | 330 | 355 | 575 | 1130 | 1300 | 1960 | 6490 |
| 2026-05-09 23:00 | 5.22 | 1230 | 10700 (2002) | 137 (2000) | 1170 | 176 | 197 | 330 | 355 | 575 | 1130 | 1300 | 1960 | 6490 |
| 2026-05-09 22:30 | 5.21 | 1220 | 24500 (2009) | 125 (1981) | 1810 | 181 | 212 | 314 | 355 | 564 | 1060 | 1500 | 2990 | 14100 |
| 2026-05-09 22:00 | 5.24 | 1240 | 24500 (2009) | 125 (1981) | 1810 | 181 | 212 | 314 | 355 | 564 | 1060 | 1500 | 2990 | 14100 |
| 2026-05-09 21:30 | 5.26 | 1250 | 24500 (2009) | 125 (1981) | 1810 | 181 | 212 | 314 | 355 | 564 | 1060 | 1500 | 2990 | 14100 |
| 2026-05-09 21:00 | 5.26 | 1250 | 24500 (2009) | 125 (1981) | 1810 | 181 | 212 | 314 | 355 | 564 | 1060 | 1500 | 2990 | 14100 |
| 2026-05-09 20:30 | 5.28 | 1260 | 24500 (2009) | 125 (1981) | 1810 | 181 | 212 | 314 | 355 | 564 | 1060 | 1500 | 2990 | 14100 |
| 2026-05-09 20:00 | 5.31 | 1270 | 24500 (2009) | 125 (1981) | 1810 | 181 | 212 | 314 | 355 | 564 | 1060 | 1500 | 2990 | 14100 |
| 2026-05-09 19:30 | 5.34 | 1280 | 24500 (2009) | 125 (1981) | 1810 | 181 | 212 | 314 | 355 | 564 | 1060 | 1500 | 2990 | 14100 |
| 2026-05-09 19:00 | 5.39 | 1310 | 24500 (2009) | 125 (1981) | 1810 | 181 | 212 | 314 | 355 | 564 | 1060 | 1500 | 2990 | 14100 |
| 2026-05-09 18:30 | 5.38 | 1300 | 24500 (2009) | 125 (1981) | 1810 | 181 | 212 | 314 | 355 | 564 | 1060 | 1500 | 2990 | 14100 |
| 2026-05-09 18:00 | 5.42 | 1320 | 24500 (2009) | 125 (1981) | 1810 | 181 | 212 | 314 | 355 | 564 | 1060 | 1500 | 2990 | 14100 |
| 2026-05-09 17:30 | 5.45 | 1340 | 24500 (2009) | 125 (1981) | 1810 | 181 | 212 | 314 | 355 | 564 | 1060 | 1500 | 2990 | 14100 |
| 2026-05-09 17:00 | 5.48 | 1350 | 24500 (2009) | 125 (1981) | 1810 | 181 | 212 | 314 | 355 | 564 | 1060 | 1500 | 2990 | 14100 |
| 2026-05-09 16:30 | 5.47 | 1350 | 24500 (2009) | 125 (1981) | 1810 | 181 | 212 | 314 | 355 | 564 | 1060 | 1500 | 2990 | 14100 |
| 2026-05-09 16:00 | 5.54 | 1380 | 24500 (2009) | 125 (1981) | 1810 | 181 | 212 | 314 | 355 | 564 | 1060 | 1500 | 2990 | 14100 |
| 2026-05-09 15:30 | 5.54 | 1380 | 24500 (2009) | 125 (1981) | 1810 | 181 | 212 | 314 | 355 | 564 | 1060 | 1500 | 2990 | 14100 |
| 2026-05-09 15:00 | 5.49 | 1360 | 24500 (2009) | 125 (1981) | 1810 | 181 | 212 | 314 | 355 | 564 | 1060 | 1500 | 2990 | 14100 |
| 2026-05-09 14:30 | 5.48 | 1350 | 24500 (2009) | 125 (1981) | 1810 | 181 | 212 | 314 | 355 | 564 | 1060 | 1500 | 2990 | 14100 |
| 2026-05-09 14:00 | 5.39 | 1310 | 24500 (2009) | 125 (1981) | 1810 | 181 | 212 | 314 | 355 | 564 | 1060 | 1500 | 2990 | 14100 |
| 2026-05-09 13:30 | 5.30 | 1270 | 24500 (2009) | 125 (1981) | 1810 | 181 | 212 | 314 | 355 | 564 | 1060 | 1500 | 2990 | 14100 |
| 2026-05-09 13:00 | 5.24 | 1240 | 24500 (2009) | 125 (1981) | 1810 | 181 | 212 | 314 | 355 | 564 | 1060 | 1500 | 2990 | 14100 |
| 2026-05-09 12:30 | 5.13 | 1190 | 24500 (2009) | 125 (1981) | 1810 | 181 | 212 | 314 | 355 | 564 | 1060 | 1500 | 2990 | 14100 |
| 2026-05-09 12:00 | 5.02 | 1140 | 24500 (2009) | 125 (1981) | 1810 | 181 | 212 | 314 | 355 | 564 | 1060 | 1500 | 2990 | 14100 |
| 2026-05-09 11:30 | 4.94 | 1100 | 24500 (2009) | 125 (1981) | 1810 | 181 | 212 | 314 | 355 | 564 | 1060 | 1500 | 2990 | 14100 |
| 2026-05-09 11:00 | 4.92 | 1090 | 24500 (2009) | 125 (1981) | 1810 | 181 | 212 | 314 | 355 | 564 | 1060 | 1500 | 2990 | 14100 |
| 2026-05-09 10:30 | 4.90 | 1080 | 24500 (2009) | 125 (1981) | 1810 | 181 | 212 | 314 | 355 | 564 | 1060 | 1500 | 2990 | 14100 |
| 2026-05-09 10:00 | 4.83 | 1050 | 24500 (2009) | 125 (1981) | 1810 | 181 | 212 | 314 | 355 | 564 | 1060 | 1500 | 2990 | 14100 |
| 2026-05-09 09:30 | 4.79 | 1040 | 24500 (2009) | 125 (1981) | 1810 | 181 | 212 | 314 | 355 | 564 | 1060 | 1500 | 2990 | 14100 |
| 2026-05-09 09:00 | 4.78 | 1030 | 24500 (2009) | 125 (1981) | 1810 | 181 | 212 | 314 | 355 | 564 | 1060 | 1500 | 2990 | 14100 |
| 2026-05-09 08:30 | 4.72 | 1010 | 24500 (2009) | 125 (1981) | 1810 | 181 | 212 | 314 | 355 | 564 | 1060 | 1500 | 2990 | 14100 |
| 2026-05-09 08:00 | 4.66 | 979 | 24500 (2009) | 125 (1981) | 1810 | 181 | 212 | 314 | 355 | 564 | 1060 | 1500 | 2990 | 14100 |
| 2026-05-09 07:30 | 4.60 | 954 | 24500 (2009) | 125 (1981) | 1810 | 181 | 212 | 314 | 355 | 564 | 1060 | 1500 | 2990 | 14100 |
| 2026-05-09 07:00 | 4.56 | 937 | 24500 (2009) | 125 (1981) | 1810 | 181 | 212 | 314 | 355 | 564 | 1060 | 1500 | 2990 | 14100 |
| 2026-05-09 06:30 | 4.50 | 911 | 24500 (2009) | 125 (1981) | 1810 | 181 | 212 | 314 | 355 | 564 | 1060 | 1500 | 2990 | 14100 |
| 2026-05-09 06:00 | 4.46 | 895 | 24500 (2009) | 125 (1981) | 1810 | 181 | 212 | 314 | 355 | 564 | 1060 | 1500 | 2990 | 14100 |
| 2026-05-09 05:30 | 4.38 | 862 | 24500 (2009) | 125 (1981) | 1810 | 181 | 212 | 314 | 355 | 564 | 1060 | 1500 | 2990 | 14100 |
| 2026-05-09 05:00 | 4.30 | 829 | 24500 (2009) | 125 (1981) | 1810 | 181 | 212 | 314 | 355 | 564 | 1060 | 1500 | 2990 | 14100 |
| 2026-05-09 04:30 | 4.22 | 797 | 24500 (2009) | 125 (1981) | 1810 | 181 | 212 | 314 | 355 | 564 | 1060 | 1500 | 2990 | 14100 |
| 2026-05-09 04:00 | 4.16 | 773 | 24500 (2009) | 125 (1981) | 1810 | 181 | 212 | 314 | 355 | 564 | 1060 | 1500 | 2990 | 14100 |
| 2026-05-09 03:30 | 4.11 | 753 | 24500 (2009) | 125 (1981) | 1810 | 181 | 212 | 314 | 355 | 564 | 1060 | 1500 | 2990 | 14100 |
| 2026-05-09 03:00 | 4.06 | 733 | 24500 (2009) | 125 (1981) | 1810 | 181 | 212 | 314 | 355 | 564 | 1060 | 1500 | 2990 | 14100 |
| 2026-05-09 02:30 | 4.03 | 722 | 24500 (2009) | 125 (1981) | 1810 | 181 | 212 | 314 | 355 | 564 | 1060 | 1500 | 2990 | 14100 |
| 2026-05-09 02:00 | 3.99 | 706 | 24500 (2009) | 125 (1981) | 1810 | 181 | 212 | 314 | 355 | 564 | 1060 | 1500 | 2990 | 14100 |
| 2026-05-09 01:30 | 3.99 | 706 | 24500 (2009) | 125 (1981) | 1810 | 181 | 212 | 314 | 355 | 564 | 1060 | 1500 | 2990 | 14100 |
| 2026-05-09 01:00 | 3.95 | 691 | 24500 (2009) | 125 (1981) | 1810 | 181 | 212 | 314 | 355 | 564 | 1060 | 1500 | 2990 | 14100 |
| 2026-05-09 00:30 | 3.94 | 687 | 24500 (2009) | 125 (1981) | 1810 | 181 | 212 | 314 | 355 | 564 | 1060 | 1500 | 2990 | 14100 |
| 2026-05-09 00:00 | 3.91 | 675 | 24500 (2009) | 125 (1981) | 1810 | 181 | 212 | 314 | 355 | 564 | 1060 | 1500 | 2990 | 14100 |
| 2026-05-08 23:30 | 3.90 | 672 | 24500 (2009) | 125 (1981) | 1810 | 181 | 212 | 314 | 355 | 564 | 1060 | 1500 | 2990 | 14100 |
| 2026-05-08 23:00 | 3.87 | 660 | 24500 (2009) | 125 (1981) | 1810 | 181 | 212 | 314 | 355 | 564 | 1060 | 1500 | 2990 | 14100 |
| 2026-05-08 22:30 | 3.87 | 660 | 15100 (1961) | 127 (1981) | 1440 | 201 | 226 | 314 | 330 | 638 | 1350 | 1630 | 4570 | 6210 |
| 2026-05-08 22:00 | 3.84 | 649 | 15100 (1961) | 127 (1981) | 1440 | 201 | 226 | 314 | 330 | 638 | 1350 | 1630 | 4570 | 6210 |
| 2026-05-08 21:30 | 3.84 | 649 | 15100 (1961) | 127 (1981) | 1440 | 201 | 226 | 314 | 330 | 638 | 1350 | 1630 | 4570 | 6210 |
| 2026-05-08 21:00 | 3.84 | 649 | 15100 (1961) | 127 (1981) | 1440 | 201 | 226 | 314 | 330 | 638 | 1350 | 1630 | 4570 | 6210 |
| 2026-05-08 20:30 | 3.85 | 653 | 15100 (1961) | 127 (1981) | 1440 | 201 | 226 | 314 | 330 | 638 | 1350 | 1630 | 4570 | 6210 |
| 2026-05-08 20:00 | 3.87 | 660 | 15100 (1961) | 127 (1981) | 1440 | 201 | 226 | 314 | 330 | 638 | 1350 | 1630 | 4570 | 6210 |
| 2026-05-08 19:30 | 3.86 | 656 | 15100 (1961) | 127 (1981) | 1440 | 201 | 226 | 314 | 330 | 638 | 1350 | 1630 | 4570 | 6210 |
| 2026-05-08 19:00 | 3.86 | 656 | 15100 (1961) | 127 (1981) | 1440 | 201 | 226 | 314 | 330 | 638 | 1350 | 1630 | 4570 | 6210 |
| 2026-05-08 18:30 | 3.88 | 664 | 15100 (1961) | 127 (1981) | 1440 | 201 | 226 | 314 | 330 | 638 | 1350 | 1630 | 4570 | 6210 |
| 2026-05-08 18:00 | 3.88 | 664 | 15100 (1961) | 127 (1981) | 1440 | 201 | 226 | 314 | 330 | 638 | 1350 | 1630 | 4570 | 6210 |
| 2026-05-08 17:30 | 3.89 | 668 | 15100 (1961) | 127 (1981) | 1440 | 201 | 226 | 314 | 330 | 638 | 1350 | 1630 | 4570 | 6210 |
| 2026-05-08 17:00 | 3.87 | 660 | 15100 (1961) | 127 (1981) | 1440 | 201 | 226 | 314 | 330 | 638 | 1350 | 1630 | 4570 | 6210 |
| 2026-05-08 16:30 | 3.89 | 668 | 15100 (1961) | 127 (1981) | 1440 | 201 | 226 | 314 | 330 | 638 | 1350 | 1630 | 4570 | 6210 |
| 2026-05-08 16:00 | 3.90 | 672 | 15100 (1961) | 127 (1981) | 1440 | 201 | 226 | 314 | 330 | 638 | 1350 | 1630 | 4570 | 6210 |
| 2026-05-08 15:30 | 3.92 | 679 | 15100 (1961) | 127 (1981) | 1440 | 201 | 226 | 314 | 330 | 638 | 1350 | 1630 | 4570 | 6210 |
| 2026-05-08 15:00 | 3.91 | 675 | 15100 (1961) | 127 (1981) | 1440 | 201 | 226 | 314 | 330 | 638 | 1350 | 1630 | 4570 | 6210 |
| 2026-05-08 14:30 | 3.92 | 679 | 15100 (1961) | 127 (1981) | 1440 | 201 | 226 | 314 | 330 | 638 | 1350 | 1630 | 4570 | 6210 |
| 2026-05-08 14:00 | 3.93 | 683 | 15100 (1961) | 127 (1981) | 1440 | 201 | 226 | 314 | 330 | 638 | 1350 | 1630 | 4570 | 6210 |
| 2026-05-08 13:30 | 3.93 | 683 | 15100 (1961) | 127 (1981) | 1440 | 201 | 226 | 314 | 330 | 638 | 1350 | 1630 | 4570 | 6210 |
| 2026-05-08 13:00 | 3.94 | 687 | 15100 (1961) | 127 (1981) | 1440 | 201 | 226 | 314 | 330 | 638 | 1350 | 1630 | 4570 | 6210 |
| 2026-05-08 12:30 | 3.93 | 683 | 15100 (1961) | 127 (1981) | 1440 | 201 | 226 | 314 | 330 | 638 | 1350 | 1630 | 4570 | 6210 |
| 2026-05-08 12:00 | 3.95 | 691 | 15100 (1961) | 127 (1981) | 1440 | 201 | 226 | 314 | 330 | 638 | 1350 | 1630 | 4570 | 6210 |
| 2026-05-08 11:30 | 3.95 | 691 | 15100 (1961) | 127 (1981) | 1440 | 201 | 226 | 314 | 330 | 638 | 1350 | 1630 | 4570 | 6210 |
| 2026-05-08 11:00 | 3.97 | 698 | 15100 (1961) | 127 (1981) | 1440 | 201 | 226 | 314 | 330 | 638 | 1350 | 1630 | 4570 | 6210 |
| 2026-05-08 10:30 | 3.96 | 694 | 15100 (1961) | 127 (1981) | 1440 | 201 | 226 | 314 | 330 | 638 | 1350 | 1630 | 4570 | 6210 |
| 2026-05-08 10:00 | 3.97 | 698 | 15100 (1961) | 127 (1981) | 1440 | 201 | 226 | 314 | 330 | 638 | 1350 | 1630 | 4570 | 6210 |
| 2026-05-08 09:30 | 3.97 | 698 | 15100 (1961) | 127 (1981) | 1440 | 201 | 226 | 314 | 330 | 638 | 1350 | 1630 | 4570 | 6210 |
| 2026-05-08 09:00 | 3.98 | 702 | 15100 (1961) | 127 (1981) | 1440 | 201 | 226 | 314 | 330 | 638 | 1350 | 1630 | 4570 | 6210 |
| 2026-05-08 08:30 | 3.98 | 702 | 15100 (1961) | 127 (1981) | 1440 | 201 | 226 | 314 | 330 | 638 | 1350 | 1630 | 4570 | 6210 |
| 2026-05-08 08:00 | 3.99 | 706 | 15100 (1961) | 127 (1981) | 1440 | 201 | 226 | 314 | 330 | 638 | 1350 | 1630 | 4570 | 6210 |
| 2026-05-08 07:30 | 3.99 | 706 | 15100 (1961) | 127 (1981) | 1440 | 201 | 226 | 314 | 330 | 638 | 1350 | 1630 | 4570 | 6210 |
| 2026-05-08 07:00 | 4.01 | 714 | 15100 (1961) | 127 (1981) | 1440 | 201 | 226 | 314 | 330 | 638 | 1350 | 1630 | 4570 | 6210 |
| 2026-05-08 06:30 | 4.01 | 714 | 15100 (1961) | 127 (1981) | 1440 | 201 | 226 | 314 | 330 | 638 | 1350 | 1630 | 4570 | 6210 |
| 2026-05-08 06:00 | 4.02 | 718 | 15100 (1961) | 127 (1981) | 1440 | 201 | 226 | 314 | 330 | 638 | 1350 | 1630 | 4570 | 6210 |
| 2026-05-08 05:30 | 4.03 | 722 | 15100 (1961) | 127 (1981) | 1440 | 201 | 226 | 314 | 330 | 638 | 1350 | 1630 | 4570 | 6210 |
| 2026-05-08 05:00 | 4.03 | 722 | 15100 (1961) | 127 (1981) | 1440 | 201 | 226 | 314 | 330 | 638 | 1350 | 1630 | 4570 | 6210 |
| 2026-05-08 04:30 | 4.03 | 722 | 15100 (1961) | 127 (1981) | 1440 | 201 | 226 | 314 | 330 | 638 | 1350 | 1630 | 4570 | 6210 |
| 2026-05-08 04:00 | 4.05 | 729 | 15100 (1961) | 127 (1981) | 1440 | 201 | 226 | 314 | 330 | 638 | 1350 | 1630 | 4570 | 6210 |
| 2026-05-08 03:30 | 4.06 | 733 | 15100 (1961) | 127 (1981) | 1440 | 201 | 226 | 314 | 330 | 638 | 1350 | 1630 | 4570 | 6210 |
| 2026-05-08 03:00 | 4.06 | 733 | 15100 (1961) | 127 (1981) | 1440 | 201 | 226 | 314 | 330 | 638 | 1350 | 1630 | 4570 | 6210 |
| 2026-05-08 02:30 | 4.08 | 741 | 15100 (1961) | 127 (1981) | 1440 | 201 | 226 | 314 | 330 | 638 | 1350 | 1630 | 4570 | 6210 |
| 2026-05-08 02:00 | 4.06 | 733 | 15100 (1961) | 127 (1981) | 1440 | 201 | 226 | 314 | 330 | 638 | 1350 | 1630 | 4570 | 6210 |
| 2026-05-08 01:30 | 4.09 | 745 | 15100 (1961) | 127 (1981) | 1440 | 201 | 226 | 314 | 330 | 638 | 1350 | 1630 | 4570 | 6210 |
| 2026-05-08 01:00 | 4.10 | 749 | 15100 (1961) | 127 (1981) | 1440 | 201 | 226 | 314 | 330 | 638 | 1350 | 1630 | 4570 | 6210 |
| 2026-05-08 00:30 | 4.11 | 753 | 15100 (1961) | 127 (1981) | 1440 | 201 | 226 | 314 | 330 | 638 | 1350 | 1630 | 4570 | 6210 |
| 2026-05-08 00:00 | 4.10 | 749 | 15100 (1961) | 127 (1981) | 1440 | 201 | 226 | 314 | 330 | 638 | 1350 | 1630 | 4570 | 6210 |
| 2026-05-07 23:30 | 4.09 | 745 | 15100 (1961) | 127 (1981) | 1440 | 201 | 226 | 314 | 330 | 638 | 1350 | 1630 | 4570 | 6210 |
| 2026-05-07 23:00 | 4.14 | 765 | 15100 (1961) | 127 (1981) | 1440 | 201 | 226 | 314 | 330 | 638 | 1350 | 1630 | 4570 | 6210 |
| 2026-05-07 22:30 | 4.13 | 761 | 13100 (1961) | 137 (1981) | 1380 | 207 | 250 | 324 | 349 | 677 | 1330 | 1570 | 3200 | 6470 |
| 2026-05-07 22:00 | 4.14 | 765 | 13100 (1961) | 137 (1981) | 1380 | 207 | 250 | 324 | 349 | 677 | 1330 | 1570 | 3200 | 6470 |
| 2026-05-07 21:30 | 4.13 | 761 | 13100 (1961) | 137 (1981) | 1380 | 207 | 250 | 324 | 349 | 677 | 1330 | 1570 | 3200 | 6470 |
| 2026-05-07 21:00 | 4.17 | 777 | 13100 (1961) | 137 (1981) | 1380 | 207 | 250 | 324 | 349 | 677 | 1330 | 1570 | 3200 | 6470 |
| 2026-05-07 20:30 | 4.13 | 761 | 13100 (1961) | 137 (1981) | 1380 | 207 | 250 | 324 | 349 | 677 | 1330 | 1570 | 3200 | 6470 |
| 2026-05-07 20:00 | 4.17 | 777 | 13100 (1961) | 137 (1981) | 1380 | 207 | 250 | 324 | 349 | 677 | 1330 | 1570 | 3200 | 6470 |
| 2026-05-07 19:30 | 4.18 | 781 | 13100 (1961) | 137 (1981) | 1380 | 207 | 250 | 324 | 349 | 677 | 1330 | 1570 | 3200 | 6470 |
| 2026-05-07 19:00 | 4.18 | 781 | 13100 (1961) | 137 (1981) | 1380 | 207 | 250 | 324 | 349 | 677 | 1330 | 1570 | 3200 | 6470 |
| 2026-05-07 18:30 | 4.21 | 793 | 13100 (1961) | 137 (1981) | 1380 | 207 | 250 | 324 | 349 | 677 | 1330 | 1570 | 3200 | 6470 |
| 2026-05-07 18:00 | 4.22 | 797 | 13100 (1961) | 137 (1981) | 1380 | 207 | 250 | 324 | 349 | 677 | 1330 | 1570 | 3200 | 6470 |
| 2026-05-07 17:30 | 4.23 | 801 | 13100 (1961) | 137 (1981) | 1380 | 207 | 250 | 324 | 349 | 677 | 1330 | 1570 | 3200 | 6470 |
| 2026-05-07 17:00 | 4.23 | 801 | 13100 (1961) | 137 (1981) | 1380 | 207 | 250 | 324 | 349 | 677 | 1330 | 1570 | 3200 | 6470 |
| 2026-05-07 16:30 | 4.23 | 801 | 13100 (1961) | 137 (1981) | 1380 | 207 | 250 | 324 | 349 | 677 | 1330 | 1570 | 3200 | 6470 |
| 2026-05-07 16:00 | 4.27 | 817 | 13100 (1961) | 137 (1981) | 1380 | 207 | 250 | 324 | 349 | 677 | 1330 | 1570 | 3200 | 6470 |
| 2026-05-07 15:30 | 4.28 | 821 | 13100 (1961) | 137 (1981) | 1380 | 207 | 250 | 324 | 349 | 677 | 1330 | 1570 | 3200 | 6470 |
| 2026-05-07 15:00 | 4.27 | 817 | 13100 (1961) | 137 (1981) | 1380 | 207 | 250 | 324 | 349 | 677 | 1330 | 1570 | 3200 | 6470 |
| 2026-05-07 14:30 | 4.29 | 825 | 13100 (1961) | 137 (1981) | 1380 | 207 | 250 | 324 | 349 | 677 | 1330 | 1570 | 3200 | 6470 |
| 2026-05-07 14:00 | 4.26 | 813 | 13100 (1961) | 137 (1981) | 1380 | 207 | 250 | 324 | 349 | 677 | 1330 | 1570 | 3200 | 6470 |
| 2026-05-07 13:30 | 4.30 | 829 | 13100 (1961) | 137 (1981) | 1380 | 207 | 250 | 324 | 349 | 677 | 1330 | 1570 | 3200 | 6470 |
| 2026-05-07 13:00 | 4.29 | 825 | 13100 (1961) | 137 (1981) | 1380 | 207 | 250 | 324 | 349 | 677 | 1330 | 1570 | 3200 | 6470 |
| 2026-05-07 12:30 | 4.30 | 829 | 13100 (1961) | 137 (1981) | 1380 | 207 | 250 | 324 | 349 | 677 | 1330 | 1570 | 3200 | 6470 |
| 2026-05-07 12:00 | 4.33 | 841 | 13100 (1961) | 137 (1981) | 1380 | 207 | 250 | 324 | 349 | 677 | 1330 | 1570 | 3200 | 6470 |
| 2026-05-07 11:30 | 4.34 | 845 | 13100 (1961) | 137 (1981) | 1380 | 207 | 250 | 324 | 349 | 677 | 1330 | 1570 | 3200 | 6470 |
| 2026-05-07 11:00 | 4.32 | 837 | 13100 (1961) | 137 (1981) | 1380 | 207 | 250 | 324 | 349 | 677 | 1330 | 1570 | 3200 | 6470 |
| 2026-05-07 10:30 | 4.34 | 845 | 13100 (1961) | 137 (1981) | 1380 | 207 | 250 | 324 | 349 | 677 | 1330 | 1570 | 3200 | 6470 |
| 2026-05-07 10:00 | 4.36 | 853 | 13100 (1961) | 137 (1981) | 1380 | 207 | 250 | 324 | 349 | 677 | 1330 | 1570 | 3200 | 6470 |
| 2026-05-07 09:30 | 4.36 | 853 | 13100 (1961) | 137 (1981) | 1380 | 207 | 250 | 324 | 349 | 677 | 1330 | 1570 | 3200 | 6470 |
| 2026-05-07 09:00 | 4.37 | 858 | 13100 (1961) | 137 (1981) | 1380 | 207 | 250 | 324 | 349 | 677 | 1330 | 1570 | 3200 | 6470 |
| 2026-05-07 08:30 | 4.37 | 858 | 13100 (1961) | 137 (1981) | 1380 | 207 | 250 | 324 | 349 | 677 | 1330 | 1570 | 3200 | 6470 |
| 2026-05-07 08:00 | 4.37 | 858 | 13100 (1961) | 137 (1981) | 1380 | 207 | 250 | 324 | 349 | 677 | 1330 | 1570 | 3200 | 6470 |
| 2026-05-07 07:30 | 4.37 | 858 | 13100 (1961) | 137 (1981) | 1380 | 207 | 250 | 324 | 349 | 677 | 1330 | 1570 | 3200 | 6470 |
| 2026-05-07 07:00 | 4.37 | 858 | 13100 (1961) | 137 (1981) | 1380 | 207 | 250 | 324 | 349 | 677 | 1330 | 1570 | 3200 | 6470 |
| 2026-05-07 06:30 | 4.40 | 870 | 13100 (1961) | 137 (1981) | 1380 | 207 | 250 | 324 | 349 | 677 | 1330 | 1570 | 3200 | 6470 |
| 2026-05-07 06:00 | 4.38 | 862 | 13100 (1961) | 137 (1981) | 1380 | 207 | 250 | 324 | 349 | 677 | 1330 | 1570 | 3200 | 6470 |
| 2026-05-07 05:30 | 4.41 | 874 | 13100 (1961) | 137 (1981) | 1380 | 207 | 250 | 324 | 349 | 677 | 1330 | 1570 | 3200 | 6470 |
| 2026-05-07 05:00 | 4.44 | 886 | 13100 (1961) | 137 (1981) | 1380 | 207 | 250 | 324 | 349 | 677 | 1330 | 1570 | 3200 | 6470 |
| 2026-05-07 04:30 | 4.45 | 891 | 13100 (1961) | 137 (1981) | 1380 | 207 | 250 | 324 | 349 | 677 | 1330 | 1570 | 3200 | 6470 |
| 2026-05-07 04:00 | 4.45 | 891 | 13100 (1961) | 137 (1981) | 1380 | 207 | 250 | 324 | 349 | 677 | 1330 | 1570 | 3200 | 6470 |
| 2026-05-07 03:30 | 4.44 | 886 | 13100 (1961) | 137 (1981) | 1380 | 207 | 250 | 324 | 349 | 677 | 1330 | 1570 | 3200 | 6470 |
| 2026-05-07 02:30 | 4.46 | 895 | 13100 (1961) | 137 (1981) | 1380 | 207 | 250 | 324 | 349 | 677 | 1330 | 1570 | 3200 | 6470 |
| 2026-05-07 02:00 | 4.46 | 895 | 13100 (1961) | 137 (1981) | 1380 | 207 | 250 | 324 | 349 | 677 | 1330 | 1570 | 3200 | 6470 |
| 2026-05-07 01:30 | 4.47 | 899 | 13100 (1961) | 137 (1981) | 1380 | 207 | 250 | 324 | 349 | 677 | 1330 | 1570 | 3200 | 6470 |
| 2026-05-07 01:00 | 4.47 | 899 | 13100 (1961) | 137 (1981) | 1380 | 207 | 250 | 324 | 349 | 677 | 1330 | 1570 | 3200 | 6470 |
| 2026-05-07 00:30 | 4.45 | 891 | 13100 (1961) | 137 (1981) | 1380 | 207 | 250 | 324 | 349 | 677 | 1330 | 1570 | 3200 | 6470 |
| 2026-05-07 00:00 | 4.49 | 907 | 13100 (1961) | 137 (1981) | 1380 | 207 | 250 | 324 | 349 | 677 | 1330 | 1570 | 3200 | 6470 |
| 2026-05-06 23:30 | 4.53 | 924 | 13100 (1961) | 137 (1981) | 1380 | 207 | 250 | 324 | 349 | 677 | 1330 | 1570 | 3200 | 6470 |
| 2026-05-06 23:00 | 4.52 | 920 | 13100 (1961) | 137 (1981) | 1380 | 207 | 250 | 324 | 349 | 677 | 1330 | 1570 | 3200 | 6470 |
| 2026-05-06 22:30 | 4.52 | 920 | 9940 (1961) | 116 (2000) | 1280 | 189 | 245 | 326 | 350 | 602 | 1370 | 1600 | 2750 | 6100 |
| 2026-05-06 22:00 | 4.53 | 924 | 9940 (1961) | 116 (2000) | 1280 | 189 | 245 | 326 | 350 | 602 | 1370 | 1600 | 2750 | 6100 |
| 2026-05-06 21:30 | 4.56 | 937 | 9940 (1961) | 116 (2000) | 1280 | 189 | 245 | 326 | 350 | 602 | 1370 | 1600 | 2750 | 6100 |
| 2026-05-06 21:00 | 4.56 | 937 | 9940 (1961) | 116 (2000) | 1280 | 189 | 245 | 326 | 350 | 602 | 1370 | 1600 | 2750 | 6100 |
| 2026-05-06 20:30 | 4.58 | 945 | 9940 (1961) | 116 (2000) | 1280 | 189 | 245 | 326 | 350 | 602 | 1370 | 1600 | 2750 | 6100 |
| 2026-05-06 20:00 | 4.55 | 933 | 9940 (1961) | 116 (2000) | 1280 | 189 | 245 | 326 | 350 | 602 | 1370 | 1600 | 2750 | 6100 |
| 2026-05-06 19:30 | 4.59 | 949 | 9940 (1961) | 116 (2000) | 1280 | 189 | 245 | 326 | 350 | 602 | 1370 | 1600 | 2750 | 6100 |
| 2026-05-06 19:00 | 4.59 | 949 | 9940 (1961) | 116 (2000) | 1280 | 189 | 245 | 326 | 350 | 602 | 1370 | 1600 | 2750 | 6100 |
| 2026-05-06 18:30 | 4.59 | 949 | 9940 (1961) | 116 (2000) | 1280 | 189 | 245 | 326 | 350 | 602 | 1370 | 1600 | 2750 | 6100 |
| 2026-05-06 18:00 | 4.55 | 933 | 9940 (1961) | 116 (2000) | 1280 | 189 | 245 | 326 | 350 | 602 | 1370 | 1600 | 2750 | 6100 |
| 2026-05-06 17:30 | 4.56 | 937 | 9940 (1961) | 116 (2000) | 1280 | 189 | 245 | 326 | 350 | 602 | 1370 | 1600 | 2750 | 6100 |
| 2026-05-06 17:00 | 4.60 | 954 | 9940 (1961) | 116 (2000) | 1280 | 189 | 245 | 326 | 350 | 602 | 1370 | 1600 | 2750 | 6100 |
| 2026-05-06 16:30 | 4.54 | 928 | 9940 (1961) | 116 (2000) | 1280 | 189 | 245 | 326 | 350 | 602 | 1370 | 1600 | 2750 | 6100 |
| 2026-05-06 16:00 | 4.55 | 933 | 9940 (1961) | 116 (2000) | 1280 | 189 | 245 | 326 | 350 | 602 | 1370 | 1600 | 2750 | 6100 |
| 2026-05-06 15:30 | 4.53 | 924 | 9940 (1961) | 116 (2000) | 1280 | 189 | 245 | 326 | 350 | 602 | 1370 | 1600 | 2750 | 6100 |
| 2026-05-06 15:00 | 4.49 | 907 | 9940 (1961) | 116 (2000) | 1280 | 189 | 245 | 326 | 350 | 602 | 1370 | 1600 | 2750 | 6100 |
| 2026-05-06 14:30 | 4.46 | 895 | 9940 (1961) | 116 (2000) | 1280 | 189 | 245 | 326 | 350 | 602 | 1370 | 1600 | 2750 | 6100 |
| 2026-05-06 14:00 | 4.43 | 882 | 9940 (1961) | 116 (2000) | 1280 | 189 | 245 | 326 | 350 | 602 | 1370 | 1600 | 2750 | 6100 |
| 2026-05-06 13:30 | 4.44 | 886 | 9940 (1961) | 116 (2000) | 1280 | 189 | 245 | 326 | 350 | 602 | 1370 | 1600 | 2750 | 6100 |
| 2026-05-06 13:00 | 4.40 | 870 | 9940 (1961) | 116 (2000) | 1280 | 189 | 245 | 326 | 350 | 602 | 1370 | 1600 | 2750 | 6100 |
| 2026-05-06 12:30 | 4.38 | 862 | 9940 (1961) | 116 (2000) | 1280 | 189 | 245 | 326 | 350 | 602 | 1370 | 1600 | 2750 | 6100 |
| 2026-05-06 12:00 | 4.33 | 841 | 9940 (1961) | 116 (2000) | 1280 | 189 | 245 | 326 | 350 | 602 | 1370 | 1600 | 2750 | 6100 |
| 2026-05-06 11:30 | 4.30 | 829 | 9940 (1961) | 116 (2000) | 1280 | 189 | 245 | 326 | 350 | 602 | 1370 | 1600 | 2750 | 6100 |
| 2026-05-06 11:00 | 4.25 | 809 | 9940 (1961) | 116 (2000) | 1280 | 189 | 245 | 326 | 350 | 602 | 1370 | 1600 | 2750 | 6100 |
| 2026-05-06 10:30 | 4.24 | 805 | 9940 (1961) | 116 (2000) | 1280 | 189 | 245 | 326 | 350 | 602 | 1370 | 1600 | 2750 | 6100 |
| 2026-05-06 10:00 | 4.21 | 793 | 9940 (1961) | 116 (2000) | 1280 | 189 | 245 | 326 | 350 | 602 | 1370 | 1600 | 2750 | 6100 |
| 2026-05-06 09:30 | 4.19 | 785 | 9940 (1961) | 116 (2000) | 1280 | 189 | 245 | 326 | 350 | 602 | 1370 | 1600 | 2750 | 6100 |
| 2026-05-06 09:00 | 4.16 | 773 | 9940 (1961) | 116 (2000) | 1280 | 189 | 245 | 326 | 350 | 602 | 1370 | 1600 | 2750 | 6100 |
| 2026-05-06 08:30 | 4.14 | 765 | 9940 (1961) | 116 (2000) | 1280 | 189 | 245 | 326 | 350 | 602 | 1370 | 1600 | 2750 | 6100 |
| 2026-05-04 07:00 | 3.74 | 612 | 20500 (2013) | 117 (2000) | 1580 | 178 | 269 | 367 | 388 | 689 | 1610 | 1730 | 3410 | 7850 |
| 2026-05-04 03:30 | 4.11 | 753 | 20500 (2013) | 117 (2000) | 1580 | 178 | 269 | 367 | 388 | 689 | 1610 | 1730 | 3410 | 7850 |
| 2026-05-04 03:00 | 4.16 | 773 | 20500 (2013) | 117 (2000) | 1580 | 178 | 269 | 367 | 388 | 689 | 1610 | 1730 | 3410 | 7850 |
| 2026-05-04 02:30 | 4.15 | 769 | 20500 (2013) | 117 (2000) | 1580 | 178 | 269 | 367 | 388 | 689 | 1610 | 1730 | 3410 | 7850 |
| 2026-05-04 02:00 | 4.16 | 773 | 20500 (2013) | 117 (2000) | 1580 | 178 | 269 | 367 | 388 | 689 | 1610 | 1730 | 3410 | 7850 |
| 2026-05-04 01:30 | 4.18 | 781 | 20500 (2013) | 117 (2000) | 1580 | 178 | 269 | 367 | 388 | 689 | 1610 | 1730 | 3410 | 7850 |
| 2026-05-04 01:00 | 4.14 | 765 | 20500 (2013) | 117 (2000) | 1580 | 178 | 269 | 367 | 388 | 689 | 1610 | 1730 | 3410 | 7850 |
| 2026-05-04 00:30 | 4.12 | 757 | 20500 (2013) | 117 (2000) | 1580 | 178 | 269 | 367 | 388 | 689 | 1610 | 1730 | 3410 | 7850 |
| 2026-05-04 00:00 | 4.13 | 761 | 20500 (2013) | 117 (2000) | 1580 | 178 | 269 | 367 | 388 | 689 | 1610 | 1730 | 3410 | 7850 |
| 2026-05-03 23:30 | 4.18 | 781 | 20500 (2013) | 117 (2000) | 1580 | 178 | 269 | 367 | 388 | 689 | 1610 | 1730 | 3410 | 7850 |
| 2026-05-03 23:00 | 4.17 | 777 | 20500 (2013) | 117 (2000) | 1580 | 178 | 269 | 367 | 388 | 689 | 1610 | 1730 | 3410 | 7850 |
| 2026-05-03 22:30 | 4.21 | 793 | 7670 (2011) | 120 (2000) | 1290 | 197 | 278 | 366 | 411 | 678 | 1510 | 1870 | 3240 | 4650 |
| 2026-05-03 22:00 | 4.21 | 793 | 7670 (2011) | 120 (2000) | 1290 | 197 | 278 | 366 | 411 | 678 | 1510 | 1870 | 3240 | 4650 |
| 2026-05-03 21:30 | 4.15 | 769 | 7670 (2011) | 120 (2000) | 1290 | 197 | 278 | 366 | 411 | 678 | 1510 | 1870 | 3240 | 4650 |
| 2026-05-03 21:00 | 4.23 | 801 | 7670 (2011) | 120 (2000) | 1290 | 197 | 278 | 366 | 411 | 678 | 1510 | 1870 | 3240 | 4650 |
| 2026-05-03 20:30 | 4.20 | 789 | 7670 (2011) | 120 (2000) | 1290 | 197 | 278 | 366 | 411 | 678 | 1510 | 1870 | 3240 | 4650 |
| 2026-05-03 20:00 | 4.22 | 797 | 7670 (2011) | 120 (2000) | 1290 | 197 | 278 | 366 | 411 | 678 | 1510 | 1870 | 3240 | 4650 |
| 2026-05-03 19:30 | 4.23 | 801 | 7670 (2011) | 120 (2000) | 1290 | 197 | 278 | 366 | 411 | 678 | 1510 | 1870 | 3240 | 4650 |
| 2026-05-03 19:00 | 4.18 | 781 | 7670 (2011) | 120 (2000) | 1290 | 197 | 278 | 366 | 411 | 678 | 1510 | 1870 | 3240 | 4650 |
| 2026-05-03 18:30 | 4.19 | 785 | 7670 (2011) | 120 (2000) | 1290 | 197 | 278 | 366 | 411 | 678 | 1510 | 1870 | 3240 | 4650 |
| 2026-05-03 18:00 | 4.21 | 793 | 7670 (2011) | 120 (2000) | 1290 | 197 | 278 | 366 | 411 | 678 | 1510 | 1870 | 3240 | 4650 |
| 2026-05-03 17:30 | 4.22 | 797 | 7670 (2011) | 120 (2000) | 1290 | 197 | 278 | 366 | 411 | 678 | 1510 | 1870 | 3240 | 4650 |
| 2026-05-03 17:00 | 4.29 | 825 | 7670 (2011) | 120 (2000) | 1290 | 197 | 278 | 366 | 411 | 678 | 1510 | 1870 | 3240 | 4650 |
| 2026-05-03 16:30 | 4.24 | 805 | 7670 (2011) | 120 (2000) | 1290 | 197 | 278 | 366 | 411 | 678 | 1510 | 1870 | 3240 | 4650 |
| 2026-05-03 16:00 | 4.22 | 797 | 7670 (2011) | 120 (2000) | 1290 | 197 | 278 | 366 | 411 | 678 | 1510 | 1870 | 3240 | 4650 |
| 2026-05-03 15:30 | 4.26 | 813 | 7670 (2011) | 120 (2000) | 1290 | 197 | 278 | 366 | 411 | 678 | 1510 | 1870 | 3240 | 4650 |
| 2026-05-03 15:00 | 4.28 | 821 | 7670 (2011) | 120 (2000) | 1290 | 197 | 278 | 366 | 411 | 678 | 1510 | 1870 | 3240 | 4650 |
| 2026-05-03 14:30 | 4.27 | 817 | 7670 (2011) | 120 (2000) | 1290 | 197 | 278 | 366 | 411 | 678 | 1510 | 1870 | 3240 | 4650 |
| 2026-05-03 14:00 | 4.24 | 805 | 7670 (2011) | 120 (2000) | 1290 | 197 | 278 | 366 | 411 | 678 | 1510 | 1870 | 3240 | 4650 |
| 2026-05-03 13:30 | 4.26 | 813 | 7670 (2011) | 120 (2000) | 1290 | 197 | 278 | 366 | 411 | 678 | 1510 | 1870 | 3240 | 4650 |
| 2026-05-03 13:00 | 4.27 | 817 | 7670 (2011) | 120 (2000) | 1290 | 197 | 278 | 366 | 411 | 678 | 1510 | 1870 | 3240 | 4650 |
| 2026-05-03 12:30 | 4.24 | 805 | 7670 (2011) | 120 (2000) | 1290 | 197 | 278 | 366 | 411 | 678 | 1510 | 1870 | 3240 | 4650 |
| 2026-05-03 12:00 | 4.27 | 817 | 7670 (2011) | 120 (2000) | 1290 | 197 | 278 | 366 | 411 | 678 | 1510 | 1870 | 3240 | 4650 |
| 2026-05-03 11:30 | 4.35 | 849 | 7670 (2011) | 120 (2000) | 1290 | 197 | 278 | 366 | 411 | 678 | 1510 | 1870 | 3240 | 4650 |
| 2026-05-03 11:00 | 4.32 | 837 | 7670 (2011) | 120 (2000) | 1290 | 197 | 278 | 366 | 411 | 678 | 1510 | 1870 | 3240 | 4650 |
| 2026-05-03 10:30 | 4.34 | 845 | 7670 (2011) | 120 (2000) | 1290 | 197 | 278 | 366 | 411 | 678 | 1510 | 1870 | 3240 | 4650 |
| 2026-05-03 10:00 | 4.30 | 829 | 7670 (2011) | 120 (2000) | 1290 | 197 | 278 | 366 | 411 | 678 | 1510 | 1870 | 3240 | 4650 |
| 2026-05-03 09:30 | 4.32 | 837 | 7670 (2011) | 120 (2000) | 1290 | 197 | 278 | 366 | 411 | 678 | 1510 | 1870 | 3240 | 4650 |
| 2026-05-03 09:00 | 4.33 | 841 | 7670 (2011) | 120 (2000) | 1290 | 197 | 278 | 366 | 411 | 678 | 1510 | 1870 | 3240 | 4650 |
| 2026-05-03 08:30 | 4.35 | 849 | 7670 (2011) | 120 (2000) | 1290 | 197 | 278 | 366 | 411 | 678 | 1510 | 1870 | 3240 | 4650 |
| 2026-05-03 08:00 | 4.35 | 849 | 7670 (2011) | 120 (2000) | 1290 | 197 | 278 | 366 | 411 | 678 | 1510 | 1870 | 3240 | 4650 |
| 2026-05-03 07:30 | 4.33 | 841 | 7670 (2011) | 120 (2000) | 1290 | 197 | 278 | 366 | 411 | 678 | 1510 | 1870 | 3240 | 4650 |
| 2026-05-03 07:00 | 4.33 | 841 | 7670 (2011) | 120 (2000) | 1290 | 197 | 278 | 366 | 411 | 678 | 1510 | 1870 | 3240 | 4650 |
| 2026-05-03 06:30 | 4.39 | 866 | 7670 (2011) | 120 (2000) | 1290 | 197 | 278 | 366 | 411 | 678 | 1510 | 1870 | 3240 | 4650 |
| 2026-05-03 06:00 | 4.36 | 853 | 7670 (2011) | 120 (2000) | 1290 | 197 | 278 | 366 | 411 | 678 | 1510 | 1870 | 3240 | 4650 |
| 2026-05-03 05:30 | 4.42 | 878 | 7670 (2011) | 120 (2000) | 1290 | 197 | 278 | 366 | 411 | 678 | 1510 | 1870 | 3240 | 4650 |
| 2026-05-03 05:00 | 4.39 | 866 | 7670 (2011) | 120 (2000) | 1290 | 197 | 278 | 366 | 411 | 678 | 1510 | 1870 | 3240 | 4650 |
| 2026-05-03 04:30 | 4.38 | 862 | 7670 (2011) | 120 (2000) | 1290 | 197 | 278 | 366 | 411 | 678 | 1510 | 1870 | 3240 | 4650 |
| 2026-05-03 04:00 | 4.43 | 882 | 7670 (2011) | 120 (2000) | 1290 | 197 | 278 | 366 | 411 | 678 | 1510 | 1870 | 3240 | 4650 |
| 2026-05-03 03:30 | 4.43 | 882 | 7670 (2011) | 120 (2000) | 1290 | 197 | 278 | 366 | 411 | 678 | 1510 | 1870 | 3240 | 4650 |
| 2026-05-03 03:00 | 4.46 | 895 | 7670 (2011) | 120 (2000) | 1290 | 197 | 278 | 366 | 411 | 678 | 1510 | 1870 | 3240 | 4650 |
| 2026-05-03 02:30 | 4.43 | 882 | 7670 (2011) | 120 (2000) | 1290 | 197 | 278 | 366 | 411 | 678 | 1510 | 1870 | 3240 | 4650 |
| 2026-05-03 02:00 | 4.37 | 858 | 7670 (2011) | 120 (2000) | 1290 | 197 | 278 | 366 | 411 | 678 | 1510 | 1870 | 3240 | 4650 |
| 2026-05-03 01:30 | 4.45 | 891 | 7670 (2011) | 120 (2000) | 1290 | 197 | 278 | 366 | 411 | 678 | 1510 | 1870 | 3240 | 4650 |
| 2026-05-03 01:00 | 4.46 | 895 | 7670 (2011) | 120 (2000) | 1290 | 197 | 278 | 366 | 411 | 678 | 1510 | 1870 | 3240 | 4650 |
| 2026-05-03 00:30 | 4.42 | 878 | 7670 (2011) | 120 (2000) | 1290 | 197 | 278 | 366 | 411 | 678 | 1510 | 1870 | 3240 | 4650 |
| 2026-05-03 00:00 | 4.46 | 895 | 7670 (2011) | 120 (2000) | 1290 | 197 | 278 | 366 | 411 | 678 | 1510 | 1870 | 3240 | 4650 |
| 2026-05-02 23:30 | 4.49 | 907 | 7670 (2011) | 120 (2000) | 1290 | 197 | 278 | 366 | 411 | 678 | 1510 | 1870 | 3240 | 4650 |
| 2026-05-02 23:00 | 4.50 | 911 | 7670 (2011) | 120 (2000) | 1290 | 197 | 278 | 366 | 411 | 678 | 1510 | 1870 | 3240 | 4650 |
| 2026-05-02 22:30 | 4.52 | 920 | 19300 (1983) | 124 (2000) | 1610 | 182 | 276 | 349 | 417 | 749 | 1400 | 1530 | 4560 | 6760 |
| 2026-05-02 22:00 | 4.46 | 895 | 19300 (1983) | 124 (2000) | 1610 | 182 | 276 | 349 | 417 | 749 | 1400 | 1530 | 4560 | 6760 |
| 2026-05-02 21:30 | 4.46 | 895 | 19300 (1983) | 124 (2000) | 1610 | 182 | 276 | 349 | 417 | 749 | 1400 | 1530 | 4560 | 6760 |
| 2026-05-02 21:00 | 4.53 | 924 | 19300 (1983) | 124 (2000) | 1610 | 182 | 276 | 349 | 417 | 749 | 1400 | 1530 | 4560 | 6760 |
| 2026-05-02 20:30 | 4.55 | 933 | 19300 (1983) | 124 (2000) | 1610 | 182 | 276 | 349 | 417 | 749 | 1400 | 1530 | 4560 | 6760 |
| 2026-05-02 20:00 | 4.53 | 924 | 19300 (1983) | 124 (2000) | 1610 | 182 | 276 | 349 | 417 | 749 | 1400 | 1530 | 4560 | 6760 |
| 2026-05-02 19:30 | 4.57 | 941 | 19300 (1983) | 124 (2000) | 1610 | 182 | 276 | 349 | 417 | 749 | 1400 | 1530 | 4560 | 6760 |
| 2026-05-02 19:00 | 4.53 | 924 | 19300 (1983) | 124 (2000) | 1610 | 182 | 276 | 349 | 417 | 749 | 1400 | 1530 | 4560 | 6760 |
| 2026-05-02 18:30 | 4.55 | 933 | 19300 (1983) | 124 (2000) | 1610 | 182 | 276 | 349 | 417 | 749 | 1400 | 1530 | 4560 | 6760 |
| 2026-05-02 18:00 | 4.55 | 933 | 19300 (1983) | 124 (2000) | 1610 | 182 | 276 | 349 | 417 | 749 | 1400 | 1530 | 4560 | 6760 |
| 2026-05-02 17:30 | 4.52 | 920 | 19300 (1983) | 124 (2000) | 1610 | 182 | 276 | 349 | 417 | 749 | 1400 | 1530 | 4560 | 6760 |
| 2026-05-02 17:00 | 4.56 | 937 | 19300 (1983) | 124 (2000) | 1610 | 182 | 276 | 349 | 417 | 749 | 1400 | 1530 | 4560 | 6760 |
| 2026-05-02 16:30 | 4.54 | 928 | 19300 (1983) | 124 (2000) | 1610 | 182 | 276 | 349 | 417 | 749 | 1400 | 1530 | 4560 | 6760 |
| 2026-05-02 16:00 | 4.63 | 966 | 19300 (1983) | 124 (2000) | 1610 | 182 | 276 | 349 | 417 | 749 | 1400 | 1530 | 4560 | 6760 |
| 2026-05-02 15:30 | 4.58 | 945 | 19300 (1983) | 124 (2000) | 1610 | 182 | 276 | 349 | 417 | 749 | 1400 | 1530 | 4560 | 6760 |
| 2026-05-02 15:00 | 4.62 | 962 | 19300 (1983) | 124 (2000) | 1610 | 182 | 276 | 349 | 417 | 749 | 1400 | 1530 | 4560 | 6760 |
| 2026-05-02 14:30 | 4.65 | 975 | 19300 (1983) | 124 (2000) | 1610 | 182 | 276 | 349 | 417 | 749 | 1400 | 1530 | 4560 | 6760 |
| 2026-05-02 14:00 | 4.61 | 958 | 19300 (1983) | 124 (2000) | 1610 | 182 | 276 | 349 | 417 | 749 | 1400 | 1530 | 4560 | 6760 |
| 2026-05-02 13:30 | 4.61 | 958 | 19300 (1983) | 124 (2000) | 1610 | 182 | 276 | 349 | 417 | 749 | 1400 | 1530 | 4560 | 6760 |
| 2026-05-02 13:00 | 4.63 | 966 | 19300 (1983) | 124 (2000) | 1610 | 182 | 276 | 349 | 417 | 749 | 1400 | 1530 | 4560 | 6760 |
| 2026-05-02 12:30 | 4.68 | 988 | 19300 (1983) | 124 (2000) | 1610 | 182 | 276 | 349 | 417 | 749 | 1400 | 1530 | 4560 | 6760 |
| 2026-05-02 12:00 | 4.67 | 984 | 19300 (1983) | 124 (2000) | 1610 | 182 | 276 | 349 | 417 | 749 | 1400 | 1530 | 4560 | 6760 |
| 2026-05-02 11:30 | 4.66 | 979 | 19300 (1983) | 124 (2000) | 1610 | 182 | 276 | 349 | 417 | 749 | 1400 | 1530 | 4560 | 6760 |
| 2026-05-02 11:00 | 4.69 | 992 | 19300 (1983) | 124 (2000) | 1610 | 182 | 276 | 349 | 417 | 749 | 1400 | 1530 | 4560 | 6760 |
| 2026-05-02 10:30 | 4.72 | 1010 | 19300 (1983) | 124 (2000) | 1610 | 182 | 276 | 349 | 417 | 749 | 1400 | 1530 | 4560 | 6760 |
| 2026-05-02 10:00 | 4.72 | 1010 | 19300 (1983) | 124 (2000) | 1610 | 182 | 276 | 349 | 417 | 749 | 1400 | 1530 | 4560 | 6760 |
| 2026-05-02 09:30 | 4.72 | 1010 | 19300 (1983) | 124 (2000) | 1610 | 182 | 276 | 349 | 417 | 749 | 1400 | 1530 | 4560 | 6760 |
| 2026-05-02 09:00 | 4.71 | 1000 | 19300 (1983) | 124 (2000) | 1610 | 182 | 276 | 349 | 417 | 749 | 1400 | 1530 | 4560 | 6760 |
| 2026-05-02 08:30 | 4.72 | 1010 | 19300 (1983) | 124 (2000) | 1610 | 182 | 276 | 349 | 417 | 749 | 1400 | 1530 | 4560 | 6760 |
| 2026-05-02 08:00 | 4.73 | 1010 | 19300 (1983) | 124 (2000) | 1610 | 182 | 276 | 349 | 417 | 749 | 1400 | 1530 | 4560 | 6760 |
| 2026-05-02 07:30 | 4.75 | 1020 | 19300 (1983) | 124 (2000) | 1610 | 182 | 276 | 349 | 417 | 749 | 1400 | 1530 | 4560 | 6760 |
| 2026-05-02 07:00 | 4.78 | 1030 | 19300 (1983) | 124 (2000) | 1610 | 182 | 276 | 349 | 417 | 749 | 1400 | 1530 | 4560 | 6760 |
| 2026-05-02 06:30 | 4.77 | 1030 | 19300 (1983) | 124 (2000) | 1610 | 182 | 276 | 349 | 417 | 749 | 1400 | 1530 | 4560 | 6760 |
| 2026-05-02 06:00 | 4.77 | 1030 | 19300 (1983) | 124 (2000) | 1610 | 182 | 276 | 349 | 417 | 749 | 1400 | 1530 | 4560 | 6760 |
| 2026-05-02 05:30 | 4.77 | 1030 | 19300 (1983) | 124 (2000) | 1610 | 182 | 276 | 349 | 417 | 749 | 1400 | 1530 | 4560 | 6760 |
| 2026-05-02 05:00 | 4.80 | 1040 | 19300 (1983) | 124 (2000) | 1610 | 182 | 276 | 349 | 417 | 749 | 1400 | 1530 | 4560 | 6760 |
| 2026-05-02 04:30 | 4.79 | 1040 | 19300 (1983) | 124 (2000) | 1610 | 182 | 276 | 349 | 417 | 749 | 1400 | 1530 | 4560 | 6760 |
| 2026-05-02 04:00 | 4.80 | 1040 | 19300 (1983) | 124 (2000) | 1610 | 182 | 276 | 349 | 417 | 749 | 1400 | 1530 | 4560 | 6760 |
| 2026-05-02 03:30 | 4.80 | 1040 | 19300 (1983) | 124 (2000) | 1610 | 182 | 276 | 349 | 417 | 749 | 1400 | 1530 | 4560 | 6760 |
| 2026-05-02 03:00 | 4.81 | 1040 | 19300 (1983) | 124 (2000) | 1610 | 182 | 276 | 349 | 417 | 749 | 1400 | 1530 | 4560 | 6760 |
| 2026-05-02 02:30 | 4.79 | 1040 | 19300 (1983) | 124 (2000) | 1610 | 182 | 276 | 349 | 417 | 749 | 1400 | 1530 | 4560 | 6760 |
| 2026-05-02 02:00 | 4.80 | 1040 | 19300 (1983) | 124 (2000) | 1610 | 182 | 276 | 349 | 417 | 749 | 1400 | 1530 | 4560 | 6760 |
| 2026-05-02 01:30 | 4.81 | 1040 | 19300 (1983) | 124 (2000) | 1610 | 182 | 276 | 349 | 417 | 749 | 1400 | 1530 | 4560 | 6760 |
| 2026-05-02 01:00 | 4.76 | 1020 | 19300 (1983) | 124 (2000) | 1610 | 182 | 276 | 349 | 417 | 749 | 1400 | 1530 | 4560 | 6760 |
| 2026-05-02 00:30 | 4.82 | 1050 | 19300 (1983) | 124 (2000) | 1610 | 182 | 276 | 349 | 417 | 749 | 1400 | 1530 | 4560 | 6760 |
| 2026-05-02 00:00 | 4.83 | 1050 | 19300 (1983) | 124 (2000) | 1610 | 182 | 276 | 349 | 417 | 749 | 1400 | 1530 | 4560 | 6760 |
| 2026-05-01 23:30 | 4.84 | 1060 | 19300 (1983) | 124 (2000) | 1610 | 182 | 276 | 349 | 417 | 749 | 1400 | 1530 | 4560 | 6760 |
| 2026-05-01 23:00 | 4.82 | 1050 | 19300 (1983) | 124 (2000) | 1610 | 182 | 276 | 349 | 417 | 749 | 1400 | 1530 | 4560 | 6760 |
| 2026-05-01 22:30 | 4.78 | 1030 | 44700 (2017) | 114 (1954) | 2360 | 174 | 285 | 356 | 469 | 854 | 1670 | 1790 | 3000 | 10500 |
| 2026-05-01 22:00 | 4.89 | 1080 | 44700 (2017) | 114 (1954) | 2360 | 174 | 285 | 356 | 469 | 854 | 1670 | 1790 | 3000 | 10500 |
| 2026-05-01 21:30 | 4.86 | 1070 | 44700 (2017) | 114 (1954) | 2360 | 174 | 285 | 356 | 469 | 854 | 1670 | 1790 | 3000 | 10500 |
| 2026-05-01 21:00 | 4.90 | 1080 | 44700 (2017) | 114 (1954) | 2360 | 174 | 285 | 356 | 469 | 854 | 1670 | 1790 | 3000 | 10500 |
| 2026-05-01 20:30 | 4.89 | 1080 | 44700 (2017) | 114 (1954) | 2360 | 174 | 285 | 356 | 469 | 854 | 1670 | 1790 | 3000 | 10500 |
| 2026-05-01 20:00 | 4.87 | 1070 | 44700 (2017) | 114 (1954) | 2360 | 174 | 285 | 356 | 469 | 854 | 1670 | 1790 | 3000 | 10500 |
| 2026-05-01 19:30 | 4.89 | 1080 | 44700 (2017) | 114 (1954) | 2360 | 174 | 285 | 356 | 469 | 854 | 1670 | 1790 | 3000 | 10500 |
| 2026-05-01 19:00 | 4.91 | 1090 | 44700 (2017) | 114 (1954) | 2360 | 174 | 285 | 356 | 469 | 854 | 1670 | 1790 | 3000 | 10500 |
| 2026-05-01 18:30 | 4.96 | 1110 | 44700 (2017) | 114 (1954) | 2360 | 174 | 285 | 356 | 469 | 854 | 1670 | 1790 | 3000 | 10500 |
| 2026-05-01 18:00 | 4.94 | 1100 | 44700 (2017) | 114 (1954) | 2360 | 174 | 285 | 356 | 469 | 854 | 1670 | 1790 | 3000 | 10500 |
| 2026-05-01 17:30 | 4.99 | 1120 | 44700 (2017) | 114 (1954) | 2360 | 174 | 285 | 356 | 469 | 854 | 1670 | 1790 | 3000 | 10500 |
| 2026-05-01 17:00 | 4.98 | 1120 | 44700 (2017) | 114 (1954) | 2360 | 174 | 285 | 356 | 469 | 854 | 1670 | 1790 | 3000 | 10500 |
| 2026-05-01 16:30 | 5.00 | 1130 | 44700 (2017) | 114 (1954) | 2360 | 174 | 285 | 356 | 469 | 854 | 1670 | 1790 | 3000 | 10500 |
| 2026-05-01 16:00 | 4.97 | 1120 | 44700 (2017) | 114 (1954) | 2360 | 174 | 285 | 356 | 469 | 854 | 1670 | 1790 | 3000 | 10500 |
| 2026-05-01 15:30 | 5.05 | 1150 | 44700 (2017) | 114 (1954) | 2360 | 174 | 285 | 356 | 469 | 854 | 1670 | 1790 | 3000 | 10500 |
| 2026-05-01 15:00 | 5.06 | 1160 | 44700 (2017) | 114 (1954) | 2360 | 174 | 285 | 356 | 469 | 854 | 1670 | 1790 | 3000 | 10500 |
| 2026-05-01 14:30 | 5.07 | 1160 | 44700 (2017) | 114 (1954) | 2360 | 174 | 285 | 356 | 469 | 854 | 1670 | 1790 | 3000 | 10500 |
| 2026-05-01 14:00 | 5.11 | 1180 | 44700 (2017) | 114 (1954) | 2360 | 174 | 285 | 356 | 469 | 854 | 1670 | 1790 | 3000 | 10500 |
| 2026-05-01 13:30 | 5.09 | 1170 | 44700 (2017) | 114 (1954) | 2360 | 174 | 285 | 356 | 469 | 854 | 1670 | 1790 | 3000 | 10500 |
| 2026-05-01 13:00 | 5.09 | 1170 | 44700 (2017) | 114 (1954) | 2360 | 174 | 285 | 356 | 469 | 854 | 1670 | 1790 | 3000 | 10500 |
| 2026-05-01 12:30 | 5.14 | 1190 | 44700 (2017) | 114 (1954) | 2360 | 174 | 285 | 356 | 469 | 854 | 1670 | 1790 | 3000 | 10500 |
| 2026-05-01 12:00 | 5.16 | 1200 | 44700 (2017) | 114 (1954) | 2360 | 174 | 285 | 356 | 469 | 854 | 1670 | 1790 | 3000 | 10500 |
| 2026-05-01 11:30 | 5.12 | 1180 | 44700 (2017) | 114 (1954) | 2360 | 174 | 285 | 356 | 469 | 854 | 1670 | 1790 | 3000 | 10500 |
| 2026-05-01 11:00 | 5.15 | 1200 | 44700 (2017) | 114 (1954) | 2360 | 174 | 285 | 356 | 469 | 854 | 1670 | 1790 | 3000 | 10500 |
| 2026-05-01 10:30 | 5.23 | 1230 | 44700 (2017) | 114 (1954) | 2360 | 174 | 285 | 356 | 469 | 854 | 1670 | 1790 | 3000 | 10500 |
| 2026-05-01 10:00 | 5.20 | 1220 | 44700 (2017) | 114 (1954) | 2360 | 174 | 285 | 356 | 469 | 854 | 1670 | 1790 | 3000 | 10500 |
| 2026-05-01 09:30 | 5.22 | 1230 | 44700 (2017) | 114 (1954) | 2360 | 174 | 285 | 356 | 469 | 854 | 1670 | 1790 | 3000 | 10500 |
| 2026-05-01 09:00 | 5.25 | 1240 | 44700 (2017) | 114 (1954) | 2360 | 174 | 285 | 356 | 469 | 854 | 1670 | 1790 | 3000 | 10500 |
| 2026-05-01 08:30 | 5.30 | 1270 | 44700 (2017) | 114 (1954) | 2360 | 174 | 285 | 356 | 469 | 854 | 1670 | 1790 | 3000 | 10500 |
| 2026-05-01 08:00 | 5.32 | 1280 | 44700 (2017) | 114 (1954) | 2360 | 174 | 285 | 356 | 469 | 854 | 1670 | 1790 | 3000 | 10500 |
| 2026-05-01 07:30 | 5.35 | 1290 | 44700 (2017) | 114 (1954) | 2360 | 174 | 285 | 356 | 469 | 854 | 1670 | 1790 | 3000 | 10500 |
| 2026-05-01 07:00 | 5.33 | 1280 | 44700 (2017) | 114 (1954) | 2360 | 174 | 285 | 356 | 469 | 854 | 1670 | 1790 | 3000 | 10500 |
| 2026-05-01 06:30 | 5.38 | 1300 | 44700 (2017) | 114 (1954) | 2360 | 174 | 285 | 356 | 469 | 854 | 1670 | 1790 | 3000 | 10500 |
| 2026-05-01 06:00 | 5.38 | 1300 | 44700 (2017) | 114 (1954) | 2360 | 174 | 285 | 356 | 469 | 854 | 1670 | 1790 | 3000 | 10500 |
| 2026-05-01 05:30 | 5.43 | 1330 | 44700 (2017) | 114 (1954) | 2360 | 174 | 285 | 356 | 469 | 854 | 1670 | 1790 | 3000 | 10500 |
| 2026-05-01 05:00 | 5.43 | 1330 | 44700 (2017) | 114 (1954) | 2360 | 174 | 285 | 356 | 469 | 854 | 1670 | 1790 | 3000 | 10500 |
| 2026-05-01 04:30 | 5.45 | 1340 | 44700 (2017) | 114 (1954) | 2360 | 174 | 285 | 356 | 469 | 854 | 1670 | 1790 | 3000 | 10500 |
| 2026-05-01 04:00 | 5.48 | 1350 | 44700 (2017) | 114 (1954) | 2360 | 174 | 285 | 356 | 469 | 854 | 1670 | 1790 | 3000 | 10500 |
| 2026-05-01 03:30 | 5.52 | 1370 | 44700 (2017) | 114 (1954) | 2360 | 174 | 285 | 356 | 469 | 854 | 1670 | 1790 | 3000 | 10500 |
| 2026-05-01 03:00 | 5.55 | 1380 | 44700 (2017) | 114 (1954) | 2360 | 174 | 285 | 356 | 469 | 854 | 1670 | 1790 | 3000 | 10500 |
| 2026-05-01 02:30 | 5.54 | 1380 | 44700 (2017) | 114 (1954) | 2360 | 174 | 285 | 356 | 469 | 854 | 1670 | 1790 | 3000 | 10500 |
| 2026-05-01 02:00 | 5.57 | 1390 | 44700 (2017) | 114 (1954) | 2360 | 174 | 285 | 356 | 469 | 854 | 1670 | 1790 | 3000 | 10500 |
| 2026-05-01 01:30 | 5.61 | 1410 | 44700 (2017) | 114 (1954) | 2360 | 174 | 285 | 356 | 469 | 854 | 1670 | 1790 | 3000 | 10500 |
| 2026-05-01 01:00 | 5.63 | 1420 | 44700 (2017) | 114 (1954) | 2360 | 174 | 285 | 356 | 469 | 854 | 1670 | 1790 | 3000 | 10500 |
| 2026-05-01 00:30 | 5.66 | 1440 | 44700 (2017) | 114 (1954) | 2360 | 174 | 285 | 356 | 469 | 854 | 1670 | 1790 | 3000 | 10500 |
| 2026-05-01 00:00 | 5.65 | 1430 | 44700 (2017) | 114 (1954) | 2360 | 174 | 285 | 356 | 469 | 854 | 1670 | 1790 | 3000 | 10500 |
| 2026-04-30 23:30 | 5.64 | 1430 | 44700 (2017) | 114 (1954) | 2360 | 174 | 285 | 356 | 469 | 854 | 1670 | 1790 | 3000 | 10500 |
| 2026-04-30 23:00 | 5.71 | 1460 | 44700 (2017) | 114 (1954) | 2360 | 174 | 285 | 356 | 469 | 854 | 1670 | 1790 | 3000 | 10500 |
| 2026-04-30 22:30 | 5.74 | 1480 | 53600 (2017) | 116 (1954) | 2380 | 176 | 297 | 399 | 476 | 763 | 1660 | 1960 | 3870 | 11300 |
| 2026-04-30 22:00 | 5.78 | 1500 | 53600 (2017) | 116 (1954) | 2380 | 176 | 297 | 399 | 476 | 763 | 1660 | 1960 | 3870 | 11300 |
| 2026-04-30 21:30 | 5.82 | 1520 | 53600 (2017) | 116 (1954) | 2380 | 176 | 297 | 399 | 476 | 763 | 1660 | 1960 | 3870 | 11300 |
| 2026-04-30 21:00 | 5.82 | 1520 | 53600 (2017) | 116 (1954) | 2380 | 176 | 297 | 399 | 476 | 763 | 1660 | 1960 | 3870 | 11300 |
| 2026-04-30 20:30 | 5.87 | 1540 | 53600 (2017) | 116 (1954) | 2380 | 176 | 297 | 399 | 476 | 763 | 1660 | 1960 | 3870 | 11300 |
| 2026-04-30 20:00 | 5.87 | 1540 | 53600 (2017) | 116 (1954) | 2380 | 176 | 297 | 399 | 476 | 763 | 1660 | 1960 | 3870 | 11300 |
| 2026-04-30 19:30 | 5.94 | 1570 | 53600 (2017) | 116 (1954) | 2380 | 176 | 297 | 399 | 476 | 763 | 1660 | 1960 | 3870 | 11300 |
| 2026-04-30 19:00 | 5.93 | 1570 | 53600 (2017) | 116 (1954) | 2380 | 176 | 297 | 399 | 476 | 763 | 1660 | 1960 | 3870 | 11300 |
| 2026-04-30 18:30 | 5.98 | 1590 | 53600 (2017) | 116 (1954) | 2380 | 176 | 297 | 399 | 476 | 763 | 1660 | 1960 | 3870 | 11300 |
| 2026-04-30 18:00 | 6.01 | 1610 | 53600 (2017) | 116 (1954) | 2380 | 176 | 297 | 399 | 476 | 763 | 1660 | 1960 | 3870 | 11300 |
| 2026-04-30 17:30 | 6.07 | 1640 | 53600 (2017) | 116 (1954) | 2380 | 176 | 297 | 399 | 476 | 763 | 1660 | 1960 | 3870 | 11300 |
| 2026-04-30 17:00 | 6.08 | 1650 | 53600 (2017) | 116 (1954) | 2380 | 176 | 297 | 399 | 476 | 763 | 1660 | 1960 | 3870 | 11300 |
| 2026-04-30 16:30 | 6.08 | 1650 | 53600 (2017) | 116 (1954) | 2380 | 176 | 297 | 399 | 476 | 763 | 1660 | 1960 | 3870 | 11300 |
| 2026-04-30 16:00 | 6.13 | 1670 | 53600 (2017) | 116 (1954) | 2380 | 176 | 297 | 399 | 476 | 763 | 1660 | 1960 | 3870 | 11300 |
| 2026-04-30 15:30 | 6.21 | 1710 | 53600 (2017) | 116 (1954) | 2380 | 176 | 297 | 399 | 476 | 763 | 1660 | 1960 | 3870 | 11300 |
| 2026-04-30 15:00 | 6.21 | 1710 | 53600 (2017) | 116 (1954) | 2380 | 176 | 297 | 399 | 476 | 763 | 1660 | 1960 | 3870 | 11300 |
| 2026-04-30 14:30 | 6.24 | 1730 | 53600 (2017) | 116 (1954) | 2380 | 176 | 297 | 399 | 476 | 763 | 1660 | 1960 | 3870 | 11300 |
| 2026-04-30 14:00 | 6.28 | 1750 | 53600 (2017) | 116 (1954) | 2380 | 176 | 297 | 399 | 476 | 763 | 1660 | 1960 | 3870 | 11300 |
| 2026-04-30 13:30 | 6.34 | 1780 | 53600 (2017) | 116 (1954) | 2380 | 176 | 297 | 399 | 476 | 763 | 1660 | 1960 | 3870 | 11300 |
| 2026-04-30 13:00 | 6.39 | 1800 | 53600 (2017) | 116 (1954) | 2380 | 176 | 297 | 399 | 476 | 763 | 1660 | 1960 | 3870 | 11300 |
| 2026-04-30 12:30 | 6.41 | 1820 | 53600 (2017) | 116 (1954) | 2380 | 176 | 297 | 399 | 476 | 763 | 1660 | 1960 | 3870 | 11300 |
| 2026-04-30 12:00 | 6.42 | 1820 | 53600 (2017) | 116 (1954) | 2380 | 176 | 297 | 399 | 476 | 763 | 1660 | 1960 | 3870 | 11300 |
| 2026-04-30 11:30 | 6.47 | 1850 | 53600 (2017) | 116 (1954) | 2380 | 176 | 297 | 399 | 476 | 763 | 1660 | 1960 | 3870 | 11300 |
| 2026-04-30 11:00 | 6.53 | 1880 | 53600 (2017) | 116 (1954) | 2380 | 176 | 297 | 399 | 476 | 763 | 1660 | 1960 | 3870 | 11300 |
| 2026-04-30 10:30 | 6.62 | 1930 | 53600 (2017) | 116 (1954) | 2380 | 176 | 297 | 399 | 476 | 763 | 1660 | 1960 | 3870 | 11300 |
| 2026-04-30 10:00 | 6.61 | 1920 | 53600 (2017) | 116 (1954) | 2380 | 176 | 297 | 399 | 476 | 763 | 1660 | 1960 | 3870 | 11300 |
| 2026-04-30 09:30 | 6.73 | 1990 | 53600 (2017) | 116 (1954) | 2380 | 176 | 297 | 399 | 476 | 763 | 1660 | 1960 | 3870 | 11300 |
| 2026-04-30 09:00 | 6.75 | 2000 | 53600 (2017) | 116 (1954) | 2380 | 176 | 297 | 399 | 476 | 763 | 1660 | 1960 | 3870 | 11300 |
| 2026-04-30 08:30 | 6.81 | 2040 | 53600 (2017) | 116 (1954) | 2380 | 176 | 297 | 399 | 476 | 763 | 1660 | 1960 | 3870 | 11300 |
| 2026-04-30 08:00 | 6.86 | 2070 | 53600 (2017) | 116 (1954) | 2380 | 176 | 297 | 399 | 476 | 763 | 1660 | 1960 | 3870 | 11300 |
| 2026-04-30 07:30 | 6.93 | 2110 | 53600 (2017) | 116 (1954) | 2380 | 176 | 297 | 399 | 476 | 763 | 1660 | 1960 | 3870 | 11300 |
| 2026-04-30 07:00 | 6.94 | 2120 | 53600 (2017) | 116 (1954) | 2380 | 176 | 297 | 399 | 476 | 763 | 1660 | 1960 | 3870 | 11300 |
| 2026-04-30 06:30 | 7.00 | 2160 | 53600 (2017) | 116 (1954) | 2380 | 176 | 297 | 399 | 476 | 763 | 1660 | 1960 | 3870 | 11300 |
| 2026-04-30 06:00 | 7.04 | 2180 | 53600 (2017) | 116 (1954) | 2380 | 176 | 297 | 399 | 476 | 763 | 1660 | 1960 | 3870 | 11300 |
| 2026-04-30 05:30 | 7.14 | 2250 | 53600 (2017) | 116 (1954) | 2380 | 176 | 297 | 399 | 476 | 763 | 1660 | 1960 | 3870 | 11300 |
| 2026-04-30 05:00 | 7.18 | 2280 | 53600 (2017) | 116 (1954) | 2380 | 176 | 297 | 399 | 476 | 763 | 1660 | 1960 | 3870 | 11300 |
| 2026-04-30 04:30 | 7.25 | 2330 | 53600 (2017) | 116 (1954) | 2380 | 176 | 297 | 399 | 476 | 763 | 1660 | 1960 | 3870 | 11300 |
| 2026-04-30 04:00 | 7.31 | 2370 | 53600 (2017) | 116 (1954) | 2380 | 176 | 297 | 399 | 476 | 763 | 1660 | 1960 | 3870 | 11300 |
| 2026-04-30 03:30 | 7.37 | 2410 | 53600 (2017) | 116 (1954) | 2380 | 176 | 297 | 399 | 476 | 763 | 1660 | 1960 | 3870 | 11300 |
| 2026-04-30 03:00 | 7.42 | 2440 | 53600 (2017) | 116 (1954) | 2380 | 176 | 297 | 399 | 476 | 763 | 1660 | 1960 | 3870 | 11300 |
| 2026-04-30 02:30 | 7.47 | 2480 | 53600 (2017) | 116 (1954) | 2380 | 176 | 297 | 399 | 476 | 763 | 1660 | 1960 | 3870 | 11300 |
| 2026-04-30 02:00 | 7.52 | 2510 | 53600 (2017) | 116 (1954) | 2380 | 176 | 297 | 399 | 476 | 763 | 1660 | 1960 | 3870 | 11300 |
| 2026-04-30 01:30 | 7.59 | 2560 | 53600 (2017) | 116 (1954) | 2380 | 176 | 297 | 399 | 476 | 763 | 1660 | 1960 | 3870 | 11300 |
| 2026-04-30 01:00 | 7.66 | 2610 | 53600 (2017) | 116 (1954) | 2380 | 176 | 297 | 399 | 476 | 763 | 1660 | 1960 | 3870 | 11300 |
| 2026-04-30 00:30 | 7.69 | 2630 | 53600 (2017) | 116 (1954) | 2380 | 176 | 297 | 399 | 476 | 763 | 1660 | 1960 | 3870 | 11300 |
| 2026-04-30 00:00 | 7.73 | 2660 | 53600 (2017) | 116 (1954) | 2380 | 176 | 297 | 399 | 476 | 763 | 1660 | 1960 | 3870 | 11300 |
| 2026-04-29 23:30 | 7.79 | 2710 | 53600 (2017) | 116 (1954) | 2380 | 176 | 297 | 399 | 476 | 763 | 1660 | 1960 | 3870 | 11300 |
| 2026-04-29 23:00 | 7.85 | 2750 | 53600 (2017) | 116 (1954) | 2380 | 176 | 297 | 399 | 476 | 763 | 1660 | 1960 | 3870 | 11300 |
| 2026-04-29 22:30 | 7.88 | 2770 | 18200 (1996) | 116 (1954) | 2000 | 183 | 303 | 427 | 500 | 784 | 1730 | 2260 | 4920 | 11400 |
| 2026-04-29 22:00 | 7.94 | 2820 | 18200 (1996) | 116 (1954) | 2000 | 183 | 303 | 427 | 500 | 784 | 1730 | 2260 | 4920 | 11400 |
| 2026-04-29 21:30 | 7.99 | 2850 | 18200 (1996) | 116 (1954) | 2000 | 183 | 303 | 427 | 500 | 784 | 1730 | 2260 | 4920 | 11400 |
| 2026-04-29 21:00 | 8.01 | 2870 | 18200 (1996) | 116 (1954) | 2000 | 183 | 303 | 427 | 500 | 784 | 1730 | 2260 | 4920 | 11400 |
| 2026-04-29 20:30 | 8.06 | 2910 | 18200 (1996) | 116 (1954) | 2000 | 183 | 303 | 427 | 500 | 784 | 1730 | 2260 | 4920 | 11400 |
| 2026-04-29 20:00 | 8.10 | 2940 | 18200 (1996) | 116 (1954) | 2000 | 183 | 303 | 427 | 500 | 784 | 1730 | 2260 | 4920 | 11400 |
| 2026-04-29 19:30 | 8.11 | 2940 | 18200 (1996) | 116 (1954) | 2000 | 183 | 303 | 427 | 500 | 784 | 1730 | 2260 | 4920 | 11400 |
| 2026-04-29 19:00 | 8.19 | 3000 | 18200 (1996) | 116 (1954) | 2000 | 183 | 303 | 427 | 500 | 784 | 1730 | 2260 | 4920 | 11400 |
| 2026-04-29 18:30 | 8.22 | 3030 | 18200 (1996) | 116 (1954) | 2000 | 183 | 303 | 427 | 500 | 784 | 1730 | 2260 | 4920 | 11400 |
| 2026-04-29 18:00 | 8.28 | 3070 | 18200 (1996) | 116 (1954) | 2000 | 183 | 303 | 427 | 500 | 784 | 1730 | 2260 | 4920 | 11400 |
| 2026-04-29 17:30 | 8.29 | 3080 | 18200 (1996) | 116 (1954) | 2000 | 183 | 303 | 427 | 500 | 784 | 1730 | 2260 | 4920 | 11400 |
| 2026-04-29 17:00 | 8.33 | 3110 | 18200 (1996) | 116 (1954) | 2000 | 183 | 303 | 427 | 500 | 784 | 1730 | 2260 | 4920 | 11400 |
| 2026-04-29 16:30 | 8.35 | 3130 | 18200 (1996) | 116 (1954) | 2000 | 183 | 303 | 427 | 500 | 784 | 1730 | 2260 | 4920 | 11400 |
| 2026-04-29 16:00 | 8.38 | 3150 | 18200 (1996) | 116 (1954) | 2000 | 183 | 303 | 427 | 500 | 784 | 1730 | 2260 | 4920 | 11400 |
| 2026-04-29 15:30 | 8.40 | 3170 | 18200 (1996) | 116 (1954) | 2000 | 183 | 303 | 427 | 500 | 784 | 1730 | 2260 | 4920 | 11400 |
| 2026-04-29 15:00 | 8.42 | 3180 | 18200 (1996) | 116 (1954) | 2000 | 183 | 303 | 427 | 500 | 784 | 1730 | 2260 | 4920 | 11400 |
| 2026-04-29 14:30 | 8.38 | 3150 | 18200 (1996) | 116 (1954) | 2000 | 183 | 303 | 427 | 500 | 784 | 1730 | 2260 | 4920 | 11400 |
| 2026-04-29 14:00 | 8.43 | 3190 | 18200 (1996) | 116 (1954) | 2000 | 183 | 303 | 427 | 500 | 784 | 1730 | 2260 | 4920 | 11400 |
| 2026-04-29 13:30 | 8.41 | 3170 | 18200 (1996) | 116 (1954) | 2000 | 183 | 303 | 427 | 500 | 784 | 1730 | 2260 | 4920 | 11400 |
| 2026-04-29 13:00 | 8.42 | 3180 | 18200 (1996) | 116 (1954) | 2000 | 183 | 303 | 427 | 500 | 784 | 1730 | 2260 | 4920 | 11400 |
| 2026-04-29 12:30 | 8.39 | 3160 | 18200 (1996) | 116 (1954) | 2000 | 183 | 303 | 427 | 500 | 784 | 1730 | 2260 | 4920 | 11400 |
| 2026-04-29 12:00 | 8.36 | 3130 | 18200 (1996) | 116 (1954) | 2000 | 183 | 303 | 427 | 500 | 784 | 1730 | 2260 | 4920 | 11400 |
| 2026-04-29 11:30 | 8.29 | 3080 | 18200 (1996) | 116 (1954) | 2000 | 183 | 303 | 427 | 500 | 784 | 1730 | 2260 | 4920 | 11400 |
| 2026-04-29 11:00 | 8.26 | 3060 | 18200 (1996) | 116 (1954) | 2000 | 183 | 303 | 427 | 500 | 784 | 1730 | 2260 | 4920 | 11400 |
| 2026-04-29 10:30 | 8.24 | 3040 | 18200 (1996) | 116 (1954) | 2000 | 183 | 303 | 427 | 500 | 784 | 1730 | 2260 | 4920 | 11400 |
| 2026-04-29 10:00 | 8.19 | 3000 | 18200 (1996) | 116 (1954) | 2000 | 183 | 303 | 427 | 500 | 784 | 1730 | 2260 | 4920 | 11400 |
| 2026-04-29 09:30 | 8.16 | 2980 | 18200 (1996) | 116 (1954) | 2000 | 183 | 303 | 427 | 500 | 784 | 1730 | 2260 | 4920 | 11400 |
| 2026-04-29 09:00 | 8.06 | 2910 | 18200 (1996) | 116 (1954) | 2000 | 183 | 303 | 427 | 500 | 784 | 1730 | 2260 | 4920 | 11400 |
| 2026-04-29 08:30 | 8.02 | 2880 | 18200 (1996) | 116 (1954) | 2000 | 183 | 303 | 427 | 500 | 784 | 1730 | 2260 | 4920 | 11400 |
| 2026-04-29 08:00 | 7.98 | 2850 | 18200 (1996) | 116 (1954) | 2000 | 183 | 303 | 427 | 500 | 784 | 1730 | 2260 | 4920 | 11400 |
| 2026-04-29 07:30 | 7.98 | 2850 | 18200 (1996) | 116 (1954) | 2000 | 183 | 303 | 427 | 500 | 784 | 1730 | 2260 | 4920 | 11400 |
| 2026-04-29 07:00 | 7.99 | 2850 | 18200 (1996) | 116 (1954) | 2000 | 183 | 303 | 427 | 500 | 784 | 1730 | 2260 | 4920 | 11400 |
| 2026-04-29 06:30 | 7.95 | 2820 | 18200 (1996) | 116 (1954) | 2000 | 183 | 303 | 427 | 500 | 784 | 1730 | 2260 | 4920 | 11400 |
| 2026-04-29 06:00 | 7.90 | 2790 | 18200 (1996) | 116 (1954) | 2000 | 183 | 303 | 427 | 500 | 784 | 1730 | 2260 | 4920 | 11400 |
| 2026-04-29 05:30 | 7.89 | 2780 | 18200 (1996) | 116 (1954) | 2000 | 183 | 303 | 427 | 500 | 784 | 1730 | 2260 | 4920 | 11400 |
| 2026-04-29 05:00 | 7.85 | 2750 | 18200 (1996) | 116 (1954) | 2000 | 183 | 303 | 427 | 500 | 784 | 1730 | 2260 | 4920 | 11400 |
| 2026-04-29 04:30 | 7.76 | 2690 | 18200 (1996) | 116 (1954) | 2000 | 183 | 303 | 427 | 500 | 784 | 1730 | 2260 | 4920 | 11400 |
| 2026-04-29 04:00 | 7.79 | 2710 | 18200 (1996) | 116 (1954) | 2000 | 183 | 303 | 427 | 500 | 784 | 1730 | 2260 | 4920 | 11400 |
| 2026-04-29 03:30 | 7.74 | 2670 | 18200 (1996) | 116 (1954) | 2000 | 183 | 303 | 427 | 500 | 784 | 1730 | 2260 | 4920 | 11400 |
| 2026-04-29 03:00 | 7.71 | 2650 | 18200 (1996) | 116 (1954) | 2000 | 183 | 303 | 427 | 500 | 784 | 1730 | 2260 | 4920 | 11400 |
| 2026-04-29 02:30 | 7.65 | 2610 | 18200 (1996) | 116 (1954) | 2000 | 183 | 303 | 427 | 500 | 784 | 1730 | 2260 | 4920 | 11400 |
| 2026-04-29 02:00 | 7.64 | 2600 | 18200 (1996) | 116 (1954) | 2000 | 183 | 303 | 427 | 500 | 784 | 1730 | 2260 | 4920 | 11400 |
| 2026-04-29 01:30 | 7.60 | 2570 | 18200 (1996) | 116 (1954) | 2000 | 183 | 303 | 427 | 500 | 784 | 1730 | 2260 | 4920 | 11400 |
| 2026-04-29 01:00 | 7.54 | 2530 | 18200 (1996) | 116 (1954) | 2000 | 183 | 303 | 427 | 500 | 784 | 1730 | 2260 | 4920 | 11400 |
| 2026-04-29 00:30 | 7.50 | 2500 | 18200 (1996) | 116 (1954) | 2000 | 183 | 303 | 427 | 500 | 784 | 1730 | 2260 | 4920 | 11400 |
| 2026-04-29 00:00 | 7.43 | 2450 | 18200 (1996) | 116 (1954) | 2000 | 183 | 303 | 427 | 500 | 784 | 1730 | 2260 | 4920 | 11400 |
| 2026-04-28 23:30 | 7.37 | 2410 | 18200 (1996) | 116 (1954) | 2000 | 183 | 303 | 427 | 500 | 784 | 1730 | 2260 | 4920 | 11400 |
| 2026-04-28 23:00 | 7.31 | 2370 | 18200 (1996) | 116 (1954) | 2000 | 183 | 303 | 427 | 500 | 784 | 1730 | 2260 | 4920 | 11400 |
| 2026-04-28 22:30 | 7.23 | 2310 | 23300 (2011) | 131 (1954) | 1560 | 180 | 309 | 392 | 438 | 719 | 1460 | 1520 | 2580 | 5480 |
| 2026-04-28 22:00 | 7.12 | 2240 | 23300 (2011) | 131 (1954) | 1560 | 180 | 309 | 392 | 438 | 719 | 1460 | 1520 | 2580 | 5480 |
| 2026-04-28 21:30 | 6.99 | 2150 | 23300 (2011) | 131 (1954) | 1560 | 180 | 309 | 392 | 438 | 719 | 1460 | 1520 | 2580 | 5480 |
| 2026-04-28 21:00 | 6.86 | 2070 | 23300 (2011) | 131 (1954) | 1560 | 180 | 309 | 392 | 438 | 719 | 1460 | 1520 | 2580 | 5480 |
| 2026-04-28 20:30 | 6.79 | 2030 | 23300 (2011) | 131 (1954) | 1560 | 180 | 309 | 392 | 438 | 719 | 1460 | 1520 | 2580 | 5480 |
| 2026-04-28 20:00 | 6.68 | 1960 | 23300 (2011) | 131 (1954) | 1560 | 180 | 309 | 392 | 438 | 719 | 1460 | 1520 | 2580 | 5480 |
| 2026-04-28 19:30 | 6.60 | 1920 | 23300 (2011) | 131 (1954) | 1560 | 180 | 309 | 392 | 438 | 719 | 1460 | 1520 | 2580 | 5480 |
| 2026-04-28 19:00 | 6.49 | 1860 | 23300 (2011) | 131 (1954) | 1560 | 180 | 309 | 392 | 438 | 719 | 1460 | 1520 | 2580 | 5480 |
| 2026-04-28 18:30 | 6.39 | 1800 | 23300 (2011) | 131 (1954) | 1560 | 180 | 309 | 392 | 438 | 719 | 1460 | 1520 | 2580 | 5480 |
| 2026-04-28 18:00 | 6.32 | 1770 | 23300 (2011) | 131 (1954) | 1560 | 180 | 309 | 392 | 438 | 719 | 1460 | 1520 | 2580 | 5480 |
| 2026-04-28 17:30 | 6.27 | 1740 | 23300 (2011) | 131 (1954) | 1560 | 180 | 309 | 392 | 438 | 719 | 1460 | 1520 | 2580 | 5480 |
| 2026-04-28 17:00 | 6.24 | 1730 | 23300 (2011) | 131 (1954) | 1560 | 180 | 309 | 392 | 438 | 719 | 1460 | 1520 | 2580 | 5480 |
| 2026-04-28 16:30 | 6.26 | 1740 | 23300 (2011) | 131 (1954) | 1560 | 180 | 309 | 392 | 438 | 719 | 1460 | 1520 | 2580 | 5480 |
| 2026-04-28 16:00 | 6.17 | 1690 | 23300 (2011) | 131 (1954) | 1560 | 180 | 309 | 392 | 438 | 719 | 1460 | 1520 | 2580 | 5480 |
| 2026-04-28 15:30 | 6.14 | 1680 | 23300 (2011) | 131 (1954) | 1560 | 180 | 309 | 392 | 438 | 719 | 1460 | 1520 | 2580 | 5480 |
| 2026-04-28 15:00 | 6.08 | 1650 | 23300 (2011) | 131 (1954) | 1560 | 180 | 309 | 392 | 438 | 719 | 1460 | 1520 | 2580 | 5480 |
| 2026-04-28 14:30 | 6.07 | 1640 | 23300 (2011) | 131 (1954) | 1560 | 180 | 309 | 392 | 438 | 719 | 1460 | 1520 | 2580 | 5480 |
| 2026-04-28 14:00 | 6.07 | 1640 | 23300 (2011) | 131 (1954) | 1560 | 180 | 309 | 392 | 438 | 719 | 1460 | 1520 | 2580 | 5480 |
| 2026-04-28 13:30 | 6.04 | 1620 | 23300 (2011) | 131 (1954) | 1560 | 180 | 309 | 392 | 438 | 719 | 1460 | 1520 | 2580 | 5480 |
| 2026-04-28 13:00 | 6.02 | 1610 | 23300 (2011) | 131 (1954) | 1560 | 180 | 309 | 392 | 438 | 719 | 1460 | 1520 | 2580 | 5480 |
| 2026-04-28 12:30 | 6.06 | 1640 | 23300 (2011) | 131 (1954) | 1560 | 180 | 309 | 392 | 438 | 719 | 1460 | 1520 | 2580 | 5480 |
| 2026-04-28 12:00 | 6.05 | 1630 | 23300 (2011) | 131 (1954) | 1560 | 180 | 309 | 392 | 438 | 719 | 1460 | 1520 | 2580 | 5480 |
| 2026-04-28 11:30 | 6.07 | 1640 | 23300 (2011) | 131 (1954) | 1560 | 180 | 309 | 392 | 438 | 719 | 1460 | 1520 | 2580 | 5480 |
| 2026-04-28 11:00 | 6.10 | 1660 | 23300 (2011) | 131 (1954) | 1560 | 180 | 309 | 392 | 438 | 719 | 1460 | 1520 | 2580 | 5480 |
| 2026-04-28 10:30 | 6.11 | 1660 | 23300 (2011) | 131 (1954) | 1560 | 180 | 309 | 392 | 438 | 719 | 1460 | 1520 | 2580 | 5480 |
| 2026-04-28 10:00 | 6.16 | 1690 | 23300 (2011) | 131 (1954) | 1560 | 180 | 309 | 392 | 438 | 719 | 1460 | 1520 | 2580 | 5480 |
| 2026-04-28 09:30 | 6.20 | 1710 | 23300 (2011) | 131 (1954) | 1560 | 180 | 309 | 392 | 438 | 719 | 1460 | 1520 | 2580 | 5480 |
| 2026-04-28 09:00 | 6.24 | 1730 | 23300 (2011) | 131 (1954) | 1560 | 180 | 309 | 392 | 438 | 719 | 1460 | 1520 | 2580 | 5480 |
| 2026-04-28 08:30 | 6.21 | 1710 | 23300 (2011) | 131 (1954) | 1560 | 180 | 309 | 392 | 438 | 719 | 1460 | 1520 | 2580 | 5480 |
| 2026-04-28 08:00 | 6.22 | 1720 | 23300 (2011) | 131 (1954) | 1560 | 180 | 309 | 392 | 438 | 719 | 1460 | 1520 | 2580 | 5480 |
| 2026-04-28 07:30 | 6.24 | 1730 | 23300 (2011) | 131 (1954) | 1560 | 180 | 309 | 392 | 438 | 719 | 1460 | 1520 | 2580 | 5480 |
| 2026-04-28 07:00 | 6.23 | 1720 | 23300 (2011) | 131 (1954) | 1560 | 180 | 309 | 392 | 438 | 719 | 1460 | 1520 | 2580 | 5480 |
| 2026-04-28 06:30 | 6.25 | 1730 | 23300 (2011) | 131 (1954) | 1560 | 180 | 309 | 392 | 438 | 719 | 1460 | 1520 | 2580 | 5480 |
| 2026-04-28 06:00 | 6.31 | 1760 | 23300 (2011) | 131 (1954) | 1560 | 180 | 309 | 392 | 438 | 719 | 1460 | 1520 | 2580 | 5480 |
| 2026-04-28 05:30 | 6.29 | 1750 | 23300 (2011) | 131 (1954) | 1560 | 180 | 309 | 392 | 438 | 719 | 1460 | 1520 | 2580 | 5480 |
| 2026-04-28 05:00 | 6.33 | 1770 | 23300 (2011) | 131 (1954) | 1560 | 180 | 309 | 392 | 438 | 719 | 1460 | 1520 | 2580 | 5480 |
| 2026-04-28 04:30 | 6.40 | 1810 | 23300 (2011) | 131 (1954) | 1560 | 180 | 309 | 392 | 438 | 719 | 1460 | 1520 | 2580 | 5480 |
| 2026-04-28 04:00 | 6.41 | 1820 | 23300 (2011) | 131 (1954) | 1560 | 180 | 309 | 392 | 438 | 719 | 1460 | 1520 | 2580 | 5480 |
| 2026-04-28 03:30 | 6.44 | 1830 | 23300 (2011) | 131 (1954) | 1560 | 180 | 309 | 392 | 438 | 719 | 1460 | 1520 | 2580 | 5480 |
| 2026-04-28 03:00 | 6.51 | 1870 | 23300 (2011) | 131 (1954) | 1560 | 180 | 309 | 392 | 438 | 719 | 1460 | 1520 | 2580 | 5480 |
| 2026-04-28 02:30 | 6.55 | 1890 | 23300 (2011) | 131 (1954) | 1560 | 180 | 309 | 392 | 438 | 719 | 1460 | 1520 | 2580 | 5480 |
| 2026-04-28 02:00 | 6.59 | 1910 | 23300 (2011) | 131 (1954) | 1560 | 180 | 309 | 392 | 438 | 719 | 1460 | 1520 | 2580 | 5480 |
| 2026-04-28 01:30 | 6.58 | 1900 | 23300 (2011) | 131 (1954) | 1560 | 180 | 309 | 392 | 438 | 719 | 1460 | 1520 | 2580 | 5480 |
| 2026-04-28 01:00 | 6.63 | 1930 | 23300 (2011) | 131 (1954) | 1560 | 180 | 309 | 392 | 438 | 719 | 1460 | 1520 | 2580 | 5480 |
| 2026-04-28 00:30 | 6.64 | 1940 | 23300 (2011) | 131 (1954) | 1560 | 180 | 309 | 392 | 438 | 719 | 1460 | 1520 | 2580 | 5480 |
| 2026-04-28 00:00 | 6.75 | 2000 | 23300 (2011) | 131 (1954) | 1560 | 180 | 309 | 392 | 438 | 719 | 1460 | 1520 | 2580 | 5480 |
| 2026-04-27 23:30 | 6.68 | 1960 | 23300 (2011) | 131 (1954) | 1560 | 180 | 309 | 392 | 438 | 719 | 1460 | 1520 | 2580 | 5480 |
| 2026-04-27 23:00 | 6.73 | 1990 | 23300 (2011) | 131 (1954) | 1560 | 180 | 309 | 392 | 438 | 719 | 1460 | 1520 | 2580 | 5480 |
| 2026-04-27 22:30 | 6.77 | 2010 | 17200 (2011) | 146 (2000) | 1380 | 186 | 293 | 380 | 414 | 720 | 1240 | 1690 | 2930 | 4000 |
| 2026-04-27 22:00 | 6.69 | 1970 | 17200 (2011) | 146 (2000) | 1380 | 186 | 293 | 380 | 414 | 720 | 1240 | 1690 | 2930 | 4000 |
| 2026-04-27 21:30 | 6.69 | 1970 | 17200 (2011) | 146 (2000) | 1380 | 186 | 293 | 380 | 414 | 720 | 1240 | 1690 | 2930 | 4000 |
| 2026-04-27 21:00 | 6.62 | 1930 | 17200 (2011) | 146 (2000) | 1380 | 186 | 293 | 380 | 414 | 720 | 1240 | 1690 | 2930 | 4000 |
| 2026-04-27 20:30 | 6.58 | 1900 | 17200 (2011) | 146 (2000) | 1380 | 186 | 293 | 380 | 414 | 720 | 1240 | 1690 | 2930 | 4000 |
| 2026-04-27 20:00 | 6.51 | 1870 | 17200 (2011) | 146 (2000) | 1380 | 186 | 293 | 380 | 414 | 720 | 1240 | 1690 | 2930 | 4000 |
| 2026-04-27 19:30 | 6.46 | 1840 | 17200 (2011) | 146 (2000) | 1380 | 186 | 293 | 380 | 414 | 720 | 1240 | 1690 | 2930 | 4000 |
| 2026-04-27 19:00 | 6.31 | 1760 | 17200 (2011) | 146 (2000) | 1380 | 186 | 293 | 380 | 414 | 720 | 1240 | 1690 | 2930 | 4000 |
| 2026-04-27 18:30 | 6.32 | 1770 | 17200 (2011) | 146 (2000) | 1380 | 186 | 293 | 380 | 414 | 720 | 1240 | 1690 | 2930 | 4000 |
| 2026-04-27 18:00 | 6.26 | 1740 | 17200 (2011) | 146 (2000) | 1380 | 186 | 293 | 380 | 414 | 720 | 1240 | 1690 | 2930 | 4000 |
| 2026-04-27 17:30 | 6.28 | 1750 | 17200 (2011) | 146 (2000) | 1380 | 186 | 293 | 380 | 414 | 720 | 1240 | 1690 | 2930 | 4000 |
| 2026-04-27 17:00 | 6.27 | 1740 | 17200 (2011) | 146 (2000) | 1380 | 186 | 293 | 380 | 414 | 720 | 1240 | 1690 | 2930 | 4000 |
| 2026-04-27 16:30 | 6.29 | 1750 | 17200 (2011) | 146 (2000) | 1380 | 186 | 293 | 380 | 414 | 720 | 1240 | 1690 | 2930 | 4000 |
| 2026-04-27 16:00 | 6.18 | 1700 | 17200 (2011) | 146 (2000) | 1380 | 186 | 293 | 380 | 414 | 720 | 1240 | 1690 | 2930 | 4000 |
| 2026-04-27 15:30 | 6.22 | 1720 | 17200 (2011) | 146 (2000) | 1380 | 186 | 293 | 380 | 414 | 720 | 1240 | 1690 | 2930 | 4000 |
| 2026-04-27 15:00 | 6.05 | 1630 | 17200 (2011) | 146 (2000) | 1380 | 186 | 293 | 380 | 414 | 720 | 1240 | 1690 | 2930 | 4000 |
| 2026-04-27 14:30 | 5.98 | 1590 | 17200 (2011) | 146 (2000) | 1380 | 186 | 293 | 380 | 414 | 720 | 1240 | 1690 | 2930 | 4000 |
| 2026-04-27 14:00 | 5.88 | 1540 | 17200 (2011) | 146 (2000) | 1380 | 186 | 293 | 380 | 414 | 720 | 1240 | 1690 | 2930 | 4000 |
| 2026-04-27 13:30 | 5.77 | 1490 | 17200 (2011) | 146 (2000) | 1380 | 186 | 293 | 380 | 414 | 720 | 1240 | 1690 | 2930 | 4000 |
| 2026-04-27 13:00 | 5.69 | 1450 | 17200 (2011) | 146 (2000) | 1380 | 186 | 293 | 380 | 414 | 720 | 1240 | 1690 | 2930 | 4000 |
| 2026-04-27 12:30 | 5.55 | 1380 | 17200 (2011) | 146 (2000) | 1380 | 186 | 293 | 380 | 414 | 720 | 1240 | 1690 | 2930 | 4000 |
| 2026-04-27 12:00 | 5.43 | 1330 | 17200 (2011) | 146 (2000) | 1380 | 186 | 293 | 380 | 414 | 720 | 1240 | 1690 | 2930 | 4000 |
| 2026-04-27 11:30 | 5.39 | 1310 | 17200 (2011) | 146 (2000) | 1380 | 186 | 293 | 380 | 414 | 720 | 1240 | 1690 | 2930 | 4000 |
| 2026-04-27 11:00 | 5.27 | 1250 | 17200 (2011) | 146 (2000) | 1380 | 186 | 293 | 380 | 414 | 720 | 1240 | 1690 | 2930 | 4000 |
| 2026-04-27 10:30 | 5.12 | 1180 | 17200 (2011) | 146 (2000) | 1380 | 186 | 293 | 380 | 414 | 720 | 1240 | 1690 | 2930 | 4000 |
| 2026-04-27 10:00 | 5.02 | 1140 | 17200 (2011) | 146 (2000) | 1380 | 186 | 293 | 380 | 414 | 720 | 1240 | 1690 | 2930 | 4000 |
| 2026-04-27 09:30 | 4.89 | 1080 | 17200 (2011) | 146 (2000) | 1380 | 186 | 293 | 380 | 414 | 720 | 1240 | 1690 | 2930 | 4000 |
| 2026-04-27 09:00 | 4.84 | 1060 | 17200 (2011) | 146 (2000) | 1380 | 186 | 293 | 380 | 414 | 720 | 1240 | 1690 | 2930 | 4000 |
| 2026-04-27 08:30 | 4.78 | 1030 | 17200 (2011) | 146 (2000) | 1380 | 186 | 293 | 380 | 414 | 720 | 1240 | 1690 | 2930 | 4000 |
| 2026-04-27 08:00 | 4.75 | 1020 | 17200 (2011) | 146 (2000) | 1380 | 186 | 293 | 380 | 414 | 720 | 1240 | 1690 | 2930 | 4000 |
| 2026-04-27 07:30 | 4.73 | 1010 | 17200 (2011) | 146 (2000) | 1380 | 186 | 293 | 380 | 414 | 720 | 1240 | 1690 | 2930 | 4000 |
| 2026-04-27 07:00 | 4.66 | 979 | 17200 (2011) | 146 (2000) | 1380 | 186 | 293 | 380 | 414 | 720 | 1240 | 1690 | 2930 | 4000 |
| 2026-04-27 06:30 | 4.58 | 945 | 17200 (2011) | 146 (2000) | 1380 | 186 | 293 | 380 | 414 | 720 | 1240 | 1690 | 2930 | 4000 |
| 2026-04-27 06:00 | 4.54 | 928 | 17200 (2011) | 146 (2000) | 1380 | 186 | 293 | 380 | 414 | 720 | 1240 | 1690 | 2930 | 4000 |
| 2026-04-27 05:30 | 4.50 | 911 | 17200 (2011) | 146 (2000) | 1380 | 186 | 293 | 380 | 414 | 720 | 1240 | 1690 | 2930 | 4000 |
| 2026-04-27 05:00 | 4.46 | 895 | 17200 (2011) | 146 (2000) | 1380 | 186 | 293 | 380 | 414 | 720 | 1240 | 1690 | 2930 | 4000 |
| 2026-04-27 04:30 | 4.47 | 899 | 17200 (2011) | 146 (2000) | 1380 | 186 | 293 | 380 | 414 | 720 | 1240 | 1690 | 2930 | 4000 |
| 2026-04-27 04:00 | 4.46 | 895 | 17200 (2011) | 146 (2000) | 1380 | 186 | 293 | 380 | 414 | 720 | 1240 | 1690 | 2930 | 4000 |
| 2026-04-27 03:30 | 4.42 | 878 | 17200 (2011) | 146 (2000) | 1380 | 186 | 293 | 380 | 414 | 720 | 1240 | 1690 | 2930 | 4000 |
| 2026-04-27 03:00 | 4.43 | 882 | 17200 (2011) | 146 (2000) | 1380 | 186 | 293 | 380 | 414 | 720 | 1240 | 1690 | 2930 | 4000 |
| 2026-04-27 02:30 | 4.39 | 866 | 17200 (2011) | 146 (2000) | 1380 | 186 | 293 | 380 | 414 | 720 | 1240 | 1690 | 2930 | 4000 |
| 2026-04-27 02:00 | 4.40 | 870 | 17200 (2011) | 146 (2000) | 1380 | 186 | 293 | 380 | 414 | 720 | 1240 | 1690 | 2930 | 4000 |
| 2026-04-27 01:30 | 4.41 | 874 | 17200 (2011) | 146 (2000) | 1380 | 186 | 293 | 380 | 414 | 720 | 1240 | 1690 | 2930 | 4000 |
| 2026-04-27 01:00 | 4.41 | 874 | 17200 (2011) | 146 (2000) | 1380 | 186 | 293 | 380 | 414 | 720 | 1240 | 1690 | 2930 | 4000 |
| 2026-04-27 00:30 | 4.43 | 882 | 17200 (2011) | 146 (2000) | 1380 | 186 | 293 | 380 | 414 | 720 | 1240 | 1690 | 2930 | 4000 |
| 2026-04-27 00:00 | 4.43 | 882 | 17200 (2011) | 146 (2000) | 1380 | 186 | 293 | 380 | 414 | 720 | 1240 | 1690 | 2930 | 4000 |
| 2026-04-26 23:30 | 4.45 | 891 | 17200 (2011) | 146 (2000) | 1380 | 186 | 293 | 380 | 414 | 720 | 1240 | 1690 | 2930 | 4000 |
| 2026-04-26 23:00 | 4.47 | 899 | 17200 (2011) | 146 (2000) | 1380 | 186 | 293 | 380 | 414 | 720 | 1240 | 1690 | 2930 | 4000 |
| 2026-04-26 22:30 | 4.49 | 907 | 18600 (2011) | 150 (1956) | 1480 | 189 | 302 | 382 | 423 | 779 | 1390 | 1660 | 3610 | 5350 |
| 2026-04-26 22:00 | 4.49 | 907 | 18600 (2011) | 150 (1956) | 1480 | 189 | 302 | 382 | 423 | 779 | 1390 | 1660 | 3610 | 5350 |
| 2026-04-26 21:30 | 4.51 | 916 | 18600 (2011) | 150 (1956) | 1480 | 189 | 302 | 382 | 423 | 779 | 1390 | 1660 | 3610 | 5350 |
| 2026-04-26 21:00 | 4.53 | 924 | 18600 (2011) | 150 (1956) | 1480 | 189 | 302 | 382 | 423 | 779 | 1390 | 1660 | 3610 | 5350 |
| 2026-04-26 20:30 | 4.53 | 924 | 18600 (2011) | 150 (1956) | 1480 | 189 | 302 | 382 | 423 | 779 | 1390 | 1660 | 3610 | 5350 |
| 2026-04-26 20:00 | 4.55 | 933 | 18600 (2011) | 150 (1956) | 1480 | 189 | 302 | 382 | 423 | 779 | 1390 | 1660 | 3610 | 5350 |
| 2026-04-26 19:30 | 4.54 | 928 | 18600 (2011) | 150 (1956) | 1480 | 189 | 302 | 382 | 423 | 779 | 1390 | 1660 | 3610 | 5350 |
| 2026-04-26 19:00 | 4.60 | 954 | 18600 (2011) | 150 (1956) | 1480 | 189 | 302 | 382 | 423 | 779 | 1390 | 1660 | 3610 | 5350 |
| 2026-04-26 18:30 | 4.57 | 941 | 18600 (2011) | 150 (1956) | 1480 | 189 | 302 | 382 | 423 | 779 | 1390 | 1660 | 3610 | 5350 |
| 2026-04-26 18:00 | 4.62 | 962 | 18600 (2011) | 150 (1956) | 1480 | 189 | 302 | 382 | 423 | 779 | 1390 | 1660 | 3610 | 5350 |
| 2026-04-26 17:30 | 4.65 | 975 | 18600 (2011) | 150 (1956) | 1480 | 189 | 302 | 382 | 423 | 779 | 1390 | 1660 | 3610 | 5350 |
| 2026-04-26 17:00 | 4.66 | 979 | 18600 (2011) | 150 (1956) | 1480 | 189 | 302 | 382 | 423 | 779 | 1390 | 1660 | 3610 | 5350 |
| 2026-04-26 16:30 | 4.68 | 988 | 18600 (2011) | 150 (1956) | 1480 | 189 | 302 | 382 | 423 | 779 | 1390 | 1660 | 3610 | 5350 |
| 2026-04-26 16:00 | 4.68 | 988 | 18600 (2011) | 150 (1956) | 1480 | 189 | 302 | 382 | 423 | 779 | 1390 | 1660 | 3610 | 5350 |
| 2026-04-26 15:30 | 4.68 | 988 | 18600 (2011) | 150 (1956) | 1480 | 189 | 302 | 382 | 423 | 779 | 1390 | 1660 | 3610 | 5350 |
| 2026-04-26 15:00 | 4.72 | 1010 | 18600 (2011) | 150 (1956) | 1480 | 189 | 302 | 382 | 423 | 779 | 1390 | 1660 | 3610 | 5350 |
| 2026-04-26 14:30 | 4.74 | 1010 | 18600 (2011) | 150 (1956) | 1480 | 189 | 302 | 382 | 423 | 779 | 1390 | 1660 | 3610 | 5350 |
| 2026-04-26 14:00 | 4.75 | 1020 | 18600 (2011) | 150 (1956) | 1480 | 189 | 302 | 382 | 423 | 779 | 1390 | 1660 | 3610 | 5350 |
| 2026-04-26 13:30 | 4.77 | 1030 | 18600 (2011) | 150 (1956) | 1480 | 189 | 302 | 382 | 423 | 779 | 1390 | 1660 | 3610 | 5350 |
| 2026-04-26 13:00 | 4.77 | 1030 | 18600 (2011) | 150 (1956) | 1480 | 189 | 302 | 382 | 423 | 779 | 1390 | 1660 | 3610 | 5350 |
| 2026-04-26 12:30 | 4.81 | 1040 | 18600 (2011) | 150 (1956) | 1480 | 189 | 302 | 382 | 423 | 779 | 1390 | 1660 | 3610 | 5350 |
| 2026-04-26 12:00 | 4.83 | 1050 | 18600 (2011) | 150 (1956) | 1480 | 189 | 302 | 382 | 423 | 779 | 1390 | 1660 | 3610 | 5350 |
| 2026-04-26 11:30 | 4.86 | 1070 | 18600 (2011) | 150 (1956) | 1480 | 189 | 302 | 382 | 423 | 779 | 1390 | 1660 | 3610 | 5350 |
| 2026-04-26 11:00 | 4.88 | 1080 | 18600 (2011) | 150 (1956) | 1480 | 189 | 302 | 382 | 423 | 779 | 1390 | 1660 | 3610 | 5350 |
| 2026-04-26 10:30 | 4.88 | 1080 | 18600 (2011) | 150 (1956) | 1480 | 189 | 302 | 382 | 423 | 779 | 1390 | 1660 | 3610 | 5350 |
| 2026-04-26 10:00 | 4.90 | 1080 | 18600 (2011) | 150 (1956) | 1480 | 189 | 302 | 382 | 423 | 779 | 1390 | 1660 | 3610 | 5350 |
| 2026-04-26 09:30 | 4.94 | 1100 | 18600 (2011) | 150 (1956) | 1480 | 189 | 302 | 382 | 423 | 779 | 1390 | 1660 | 3610 | 5350 |
| 2026-04-26 09:00 | 4.93 | 1100 | 18600 (2011) | 150 (1956) | 1480 | 189 | 302 | 382 | 423 | 779 | 1390 | 1660 | 3610 | 5350 |
| 2026-04-26 08:30 | 4.98 | 1120 | 18600 (2011) | 150 (1956) | 1480 | 189 | 302 | 382 | 423 | 779 | 1390 | 1660 | 3610 | 5350 |
| 2026-04-26 08:00 | 4.99 | 1120 | 18600 (2011) | 150 (1956) | 1480 | 189 | 302 | 382 | 423 | 779 | 1390 | 1660 | 3610 | 5350 |
| 2026-04-26 07:30 | 5.01 | 1130 | 18600 (2011) | 150 (1956) | 1480 | 189 | 302 | 382 | 423 | 779 | 1390 | 1660 | 3610 | 5350 |
| 2026-04-26 07:00 | 5.04 | 1150 | 18600 (2011) | 150 (1956) | 1480 | 189 | 302 | 382 | 423 | 779 | 1390 | 1660 | 3610 | 5350 |
| 2026-04-26 06:30 | 5.04 | 1150 | 18600 (2011) | 150 (1956) | 1480 | 189 | 302 | 382 | 423 | 779 | 1390 | 1660 | 3610 | 5350 |
| 2026-04-26 06:00 | 5.09 | 1170 | 18600 (2011) | 150 (1956) | 1480 | 189 | 302 | 382 | 423 | 779 | 1390 | 1660 | 3610 | 5350 |
| 2026-04-26 05:30 | 5.10 | 1170 | 18600 (2011) | 150 (1956) | 1480 | 189 | 302 | 382 | 423 | 779 | 1390 | 1660 | 3610 | 5350 |
| 2026-04-26 05:00 | 5.13 | 1190 | 18600 (2011) | 150 (1956) | 1480 | 189 | 302 | 382 | 423 | 779 | 1390 | 1660 | 3610 | 5350 |
| 2026-04-26 04:30 | 5.15 | 1200 | 18600 (2011) | 150 (1956) | 1480 | 189 | 302 | 382 | 423 | 779 | 1390 | 1660 | 3610 | 5350 |
| 2026-04-26 04:00 | 5.18 | 1210 | 18600 (2011) | 150 (1956) | 1480 | 189 | 302 | 382 | 423 | 779 | 1390 | 1660 | 3610 | 5350 |
| 2026-04-26 03:30 | 5.21 | 1220 | 18600 (2011) | 150 (1956) | 1480 | 189 | 302 | 382 | 423 | 779 | 1390 | 1660 | 3610 | 5350 |
| 2026-04-26 03:00 | 5.22 | 1230 | 18600 (2011) | 150 (1956) | 1480 | 189 | 302 | 382 | 423 | 779 | 1390 | 1660 | 3610 | 5350 |
| 2026-04-26 02:30 | 5.26 | 1250 | 18600 (2011) | 150 (1956) | 1480 | 189 | 302 | 382 | 423 | 779 | 1390 | 1660 | 3610 | 5350 |
| 2026-04-26 02:00 | 5.24 | 1240 | 18600 (2011) | 150 (1956) | 1480 | 189 | 302 | 382 | 423 | 779 | 1390 | 1660 | 3610 | 5350 |
| 2026-04-26 01:30 | 5.29 | 1260 | 18600 (2011) | 150 (1956) | 1480 | 189 | 302 | 382 | 423 | 779 | 1390 | 1660 | 3610 | 5350 |
| 2026-04-26 01:00 | 5.32 | 1280 | 18600 (2011) | 150 (1956) | 1480 | 189 | 302 | 382 | 423 | 779 | 1390 | 1660 | 3610 | 5350 |
| 2026-04-26 00:30 | 5.38 | 1300 | 18600 (2011) | 150 (1956) | 1480 | 189 | 302 | 382 | 423 | 779 | 1390 | 1660 | 3610 | 5350 |
| 2026-04-26 00:00 | 5.34 | 1280 | 18600 (2011) | 150 (1956) | 1480 | 189 | 302 | 382 | 423 | 779 | 1390 | 1660 | 3610 | 5350 |
| 2026-04-25 23:30 | 5.41 | 1320 | 18600 (2011) | 150 (1956) | 1480 | 189 | 302 | 382 | 423 | 779 | 1390 | 1660 | 3610 | 5350 |
| 2026-04-25 23:00 | 5.42 | 1320 | 18600 (2011) | 150 (1956) | 1480 | 189 | 302 | 382 | 423 | 779 | 1390 | 1660 | 3610 | 5350 |
| 2026-04-25 22:30 | 5.46 | 1340 | 13600 (2011) | 152 (1956) | 1430 | 193 | 299 | 397 | 444 | 814 | 1320 | 1770 | 3360 | 5100 |
| 2026-04-25 22:00 | 5.44 | 1330 | 13600 (2011) | 152 (1956) | 1430 | 193 | 299 | 397 | 444 | 814 | 1320 | 1770 | 3360 | 5100 |
| 2026-04-25 21:30 | 5.48 | 1350 | 13600 (2011) | 152 (1956) | 1430 | 193 | 299 | 397 | 444 | 814 | 1320 | 1770 | 3360 | 5100 |
| 2026-04-25 21:00 | 5.49 | 1360 | 13600 (2011) | 152 (1956) | 1430 | 193 | 299 | 397 | 444 | 814 | 1320 | 1770 | 3360 | 5100 |
| 2026-04-25 20:30 | 5.53 | 1370 | 13600 (2011) | 152 (1956) | 1430 | 193 | 299 | 397 | 444 | 814 | 1320 | 1770 | 3360 | 5100 |
| 2026-04-25 20:00 | 5.48 | 1350 | 13600 (2011) | 152 (1956) | 1430 | 193 | 299 | 397 | 444 | 814 | 1320 | 1770 | 3360 | 5100 |
| 2026-04-25 19:30 | 5.51 | 1360 | 13600 (2011) | 152 (1956) | 1430 | 193 | 299 | 397 | 444 | 814 | 1320 | 1770 | 3360 | 5100 |
| 2026-04-25 19:00 | 5.51 | 1360 | 13600 (2011) | 152 (1956) | 1430 | 193 | 299 | 397 | 444 | 814 | 1320 | 1770 | 3360 | 5100 |
| 2026-04-25 18:30 | 5.50 | 1360 | 13600 (2011) | 152 (1956) | 1430 | 193 | 299 | 397 | 444 | 814 | 1320 | 1770 | 3360 | 5100 |
| 2026-04-25 18:00 | 5.47 | 1350 | 13600 (2011) | 152 (1956) | 1430 | 193 | 299 | 397 | 444 | 814 | 1320 | 1770 | 3360 | 5100 |
| 2026-04-25 17:30 | 5.47 | 1350 | 13600 (2011) | 152 (1956) | 1430 | 193 | 299 | 397 | 444 | 814 | 1320 | 1770 | 3360 | 5100 |
| 2026-04-25 17:00 | 5.46 | 1340 | 13600 (2011) | 152 (1956) | 1430 | 193 | 299 | 397 | 444 | 814 | 1320 | 1770 | 3360 | 5100 |
| 2026-04-25 16:30 | 5.40 | 1310 | 13600 (2011) | 152 (1956) | 1430 | 193 | 299 | 397 | 444 | 814 | 1320 | 1770 | 3360 | 5100 |
| 2026-04-25 16:00 | 5.37 | 1300 | 13600 (2011) | 152 (1956) | 1430 | 193 | 299 | 397 | 444 | 814 | 1320 | 1770 | 3360 | 5100 |
| 2026-04-25 15:30 | 5.35 | 1290 | 13600 (2011) | 152 (1956) | 1430 | 193 | 299 | 397 | 444 | 814 | 1320 | 1770 | 3360 | 5100 |
| 2026-04-25 15:00 | 5.30 | 1270 | 13600 (2011) | 152 (1956) | 1430 | 193 | 299 | 397 | 444 | 814 | 1320 | 1770 | 3360 | 5100 |
| 2026-04-25 14:30 | 5.32 | 1280 | 13600 (2011) | 152 (1956) | 1430 | 193 | 299 | 397 | 444 | 814 | 1320 | 1770 | 3360 | 5100 |
| 2026-04-25 14:00 | 5.30 | 1270 | 13600 (2011) | 152 (1956) | 1430 | 193 | 299 | 397 | 444 | 814 | 1320 | 1770 | 3360 | 5100 |
| 2026-04-25 13:30 | 5.25 | 1240 | 13600 (2011) | 152 (1956) | 1430 | 193 | 299 | 397 | 444 | 814 | 1320 | 1770 | 3360 | 5100 |
| 2026-04-25 13:00 | 5.29 | 1260 | 13600 (2011) | 152 (1956) | 1430 | 193 | 299 | 397 | 444 | 814 | 1320 | 1770 | 3360 | 5100 |
| 2026-04-25 12:30 | 5.28 | 1260 | 13600 (2011) | 152 (1956) | 1430 | 193 | 299 | 397 | 444 | 814 | 1320 | 1770 | 3360 | 5100 |
| 2026-04-25 12:00 | 5.26 | 1250 | 13600 (2011) | 152 (1956) | 1430 | 193 | 299 | 397 | 444 | 814 | 1320 | 1770 | 3360 | 5100 |
| 2026-04-25 11:30 | 5.24 | 1240 | 13600 (2011) | 152 (1956) | 1430 | 193 | 299 | 397 | 444 | 814 | 1320 | 1770 | 3360 | 5100 |
| 2026-04-25 11:00 | 5.18 | 1210 | 13600 (2011) | 152 (1956) | 1430 | 193 | 299 | 397 | 444 | 814 | 1320 | 1770 | 3360 | 5100 |
| 2026-04-25 10:30 | 5.26 | 1250 | 13600 (2011) | 152 (1956) | 1430 | 193 | 299 | 397 | 444 | 814 | 1320 | 1770 | 3360 | 5100 |
| 2026-04-25 10:00 | 5.19 | 1210 | 13600 (2011) | 152 (1956) | 1430 | 193 | 299 | 397 | 444 | 814 | 1320 | 1770 | 3360 | 5100 |
| 2026-04-25 09:30 | 5.18 | 1210 | 13600 (2011) | 152 (1956) | 1430 | 193 | 299 | 397 | 444 | 814 | 1320 | 1770 | 3360 | 5100 |
| 2026-04-25 09:00 | 5.17 | 1210 | 13600 (2011) | 152 (1956) | 1430 | 193 | 299 | 397 | 444 | 814 | 1320 | 1770 | 3360 | 5100 |
| 2026-04-25 08:30 | 5.17 | 1210 | 13600 (2011) | 152 (1956) | 1430 | 193 | 299 | 397 | 444 | 814 | 1320 | 1770 | 3360 | 5100 |
| 2026-04-25 08:00 | 5.13 | 1190 | 13600 (2011) | 152 (1956) | 1430 | 193 | 299 | 397 | 444 | 814 | 1320 | 1770 | 3360 | 5100 |
| 2026-04-25 07:30 | 5.13 | 1190 | 13600 (2011) | 152 (1956) | 1430 | 193 | 299 | 397 | 444 | 814 | 1320 | 1770 | 3360 | 5100 |
| 2026-04-25 07:00 | 5.04 | 1150 | 13600 (2011) | 152 (1956) | 1430 | 193 | 299 | 397 | 444 | 814 | 1320 | 1770 | 3360 | 5100 |
| 2026-04-25 06:30 | 5.02 | 1140 | 13600 (2011) | 152 (1956) | 1430 | 193 | 299 | 397 | 444 | 814 | 1320 | 1770 | 3360 | 5100 |
| 2026-04-25 06:00 | 5.03 | 1140 | 13600 (2011) | 152 (1956) | 1430 | 193 | 299 | 397 | 444 | 814 | 1320 | 1770 | 3360 | 5100 |
| 2026-04-25 05:30 | 4.97 | 1120 | 13600 (2011) | 152 (1956) | 1430 | 193 | 299 | 397 | 444 | 814 | 1320 | 1770 | 3360 | 5100 |
| 2026-04-25 05:00 | 4.93 | 1100 | 13600 (2011) | 152 (1956) | 1430 | 193 | 299 | 397 | 444 | 814 | 1320 | 1770 | 3360 | 5100 |
| 2026-04-25 04:30 | 4.89 | 1080 | 13600 (2011) | 152 (1956) | 1430 | 193 | 299 | 397 | 444 | 814 | 1320 | 1770 | 3360 | 5100 |
| 2026-04-25 04:00 | 4.87 | 1070 | 13600 (2011) | 152 (1956) | 1430 | 193 | 299 | 397 | 444 | 814 | 1320 | 1770 | 3360 | 5100 |
| 2026-04-25 03:30 | 4.87 | 1070 | 13600 (2011) | 152 (1956) | 1430 | 193 | 299 | 397 | 444 | 814 | 1320 | 1770 | 3360 | 5100 |
| 2026-04-25 03:00 | 4.84 | 1060 | 13600 (2011) | 152 (1956) | 1430 | 193 | 299 | 397 | 444 | 814 | 1320 | 1770 | 3360 | 5100 |
| 2026-04-25 02:30 | 4.86 | 1070 | 13600 (2011) | 152 (1956) | 1430 | 193 | 299 | 397 | 444 | 814 | 1320 | 1770 | 3360 | 5100 |
| 2026-04-25 02:00 | 4.87 | 1070 | 13600 (2011) | 152 (1956) | 1430 | 193 | 299 | 397 | 444 | 814 | 1320 | 1770 | 3360 | 5100 |
| 2026-04-25 01:30 | 4.88 | 1080 | 13600 (2011) | 152 (1956) | 1430 | 193 | 299 | 397 | 444 | 814 | 1320 | 1770 | 3360 | 5100 |
| 2026-04-25 01:00 | 4.86 | 1070 | 13600 (2011) | 152 (1956) | 1430 | 193 | 299 | 397 | 444 | 814 | 1320 | 1770 | 3360 | 5100 |
| 2026-04-25 00:30 | 4.84 | 1060 | 13600 (2011) | 152 (1956) | 1430 | 193 | 299 | 397 | 444 | 814 | 1320 | 1770 | 3360 | 5100 |
| 2026-04-25 00:00 | 4.83 | 1050 | 13600 (2011) | 152 (1956) | 1430 | 193 | 299 | 397 | 444 | 814 | 1320 | 1770 | 3360 | 5100 |
| 2026-04-24 23:30 | 4.78 | 1030 | 13600 (2011) | 152 (1956) | 1430 | 193 | 299 | 397 | 444 | 814 | 1320 | 1770 | 3360 | 5100 |
| 2026-04-24 23:00 | 4.77 | 1030 | 13600 (2011) | 152 (1956) | 1430 | 193 | 299 | 397 | 444 | 814 | 1320 | 1770 | 3360 | 5100 |
| 2026-04-24 22:30 | 4.72 | 1010 | 12500 (2011) | 142 (2000) | 1460 | 201 | 320 | 412 | 430 | 813 | 1420 | 1790 | 3180 | 6790 |
| 2026-04-24 22:00 | 4.65 | 975 | 12500 (2011) | 142 (2000) | 1460 | 201 | 320 | 412 | 430 | 813 | 1420 | 1790 | 3180 | 6790 |
| 2026-04-24 21:30 | 4.56 | 937 | 12500 (2011) | 142 (2000) | 1460 | 201 | 320 | 412 | 430 | 813 | 1420 | 1790 | 3180 | 6790 |
| 2026-04-24 21:00 | 4.51 | 916 | 12500 (2011) | 142 (2000) | 1460 | 201 | 320 | 412 | 430 | 813 | 1420 | 1790 | 3180 | 6790 |
| 2026-04-24 20:30 | 4.44 | 886 | 12500 (2011) | 142 (2000) | 1460 | 201 | 320 | 412 | 430 | 813 | 1420 | 1790 | 3180 | 6790 |
| 2026-04-24 20:00 | 4.40 | 870 | 12500 (2011) | 142 (2000) | 1460 | 201 | 320 | 412 | 430 | 813 | 1420 | 1790 | 3180 | 6790 |
| 2026-04-24 19:30 | 4.36 | 853 | 12500 (2011) | 142 (2000) | 1460 | 201 | 320 | 412 | 430 | 813 | 1420 | 1790 | 3180 | 6790 |
| 2026-04-24 19:00 | 4.33 | 841 | 12500 (2011) | 142 (2000) | 1460 | 201 | 320 | 412 | 430 | 813 | 1420 | 1790 | 3180 | 6790 |
| 2026-04-24 18:30 | 4.28 | 821 | 12500 (2011) | 142 (2000) | 1460 | 201 | 320 | 412 | 430 | 813 | 1420 | 1790 | 3180 | 6790 |
| 2026-04-24 18:00 | 4.23 | 801 | 12500 (2011) | 142 (2000) | 1460 | 201 | 320 | 412 | 430 | 813 | 1420 | 1790 | 3180 | 6790 |
| 2026-04-24 17:30 | 4.20 | 789 | 12500 (2011) | 142 (2000) | 1460 | 201 | 320 | 412 | 430 | 813 | 1420 | 1790 | 3180 | 6790 |
| 2026-04-24 17:00 | 4.16 | 773 | 12500 (2011) | 142 (2000) | 1460 | 201 | 320 | 412 | 430 | 813 | 1420 | 1790 | 3180 | 6790 |
| 2026-04-24 16:30 | 4.13 | 761 | 12500 (2011) | 142 (2000) | 1460 | 201 | 320 | 412 | 430 | 813 | 1420 | 1790 | 3180 | 6790 |
| 2026-04-24 16:00 | 4.06 | 733 | 12500 (2011) | 142 (2000) | 1460 | 201 | 320 | 412 | 430 | 813 | 1420 | 1790 | 3180 | 6790 |
| 2026-04-24 15:30 | 3.95 | 691 | 12500 (2011) | 142 (2000) | 1460 | 201 | 320 | 412 | 430 | 813 | 1420 | 1790 | 3180 | 6790 |
| 2026-04-24 15:00 | 3.92 | 679 | 12500 (2011) | 142 (2000) | 1460 | 201 | 320 | 412 | 430 | 813 | 1420 | 1790 | 3180 | 6790 |
| 2026-04-24 14:30 | 3.92 | 679 | 12500 (2011) | 142 (2000) | 1460 | 201 | 320 | 412 | 430 | 813 | 1420 | 1790 | 3180 | 6790 |
| 2026-04-24 14:00 | 3.89 | 668 | 12500 (2011) | 142 (2000) | 1460 | 201 | 320 | 412 | 430 | 813 | 1420 | 1790 | 3180 | 6790 |
| 2026-04-24 13:30 | 3.81 | 638 | 12500 (2011) | 142 (2000) | 1460 | 201 | 320 | 412 | 430 | 813 | 1420 | 1790 | 3180 | 6790 |
| 2026-04-24 13:00 | 3.86 | 656 | 12500 (2011) | 142 (2000) | 1460 | 201 | 320 | 412 | 430 | 813 | 1420 | 1790 | 3180 | 6790 |
| 2026-04-24 12:30 | 3.85 | 653 | 12500 (2011) | 142 (2000) | 1460 | 201 | 320 | 412 | 430 | 813 | 1420 | 1790 | 3180 | 6790 |
| 2026-04-24 12:00 | 3.81 | 638 | 12500 (2011) | 142 (2000) | 1460 | 201 | 320 | 412 | 430 | 813 | 1420 | 1790 | 3180 | 6790 |
| 2026-04-24 11:30 | 3.80 | 634 | 12500 (2011) | 142 (2000) | 1460 | 201 | 320 | 412 | 430 | 813 | 1420 | 1790 | 3180 | 6790 |
| 2026-04-24 11:00 | 3.81 | 638 | 12500 (2011) | 142 (2000) | 1460 | 201 | 320 | 412 | 430 | 813 | 1420 | 1790 | 3180 | 6790 |
| 2026-04-24 10:30 | 3.75 | 615 | 12500 (2011) | 142 (2000) | 1460 | 201 | 320 | 412 | 430 | 813 | 1420 | 1790 | 3180 | 6790 |
| 2026-04-24 10:00 | 3.72 | 604 | 12500 (2011) | 142 (2000) | 1460 | 201 | 320 | 412 | 430 | 813 | 1420 | 1790 | 3180 | 6790 |
| 2026-04-24 09:30 | 3.71 | 601 | 12500 (2011) | 142 (2000) | 1460 | 201 | 320 | 412 | 430 | 813 | 1420 | 1790 | 3180 | 6790 |
| 2026-04-24 09:00 | 3.73 | 608 | 12500 (2011) | 142 (2000) | 1460 | 201 | 320 | 412 | 430 | 813 | 1420 | 1790 | 3180 | 6790 |
| 2026-04-24 08:30 | 3.69 | 593 | 12500 (2011) | 142 (2000) | 1460 | 201 | 320 | 412 | 430 | 813 | 1420 | 1790 | 3180 | 6790 |
| 2026-04-24 08:00 | 3.69 | 593 | 12500 (2011) | 142 (2000) | 1460 | 201 | 320 | 412 | 430 | 813 | 1420 | 1790 | 3180 | 6790 |
| 2026-04-24 07:30 | 3.65 | 579 | 12500 (2011) | 142 (2000) | 1460 | 201 | 320 | 412 | 430 | 813 | 1420 | 1790 | 3180 | 6790 |
| 2026-04-24 07:00 | 3.69 | 593 | 12500 (2011) | 142 (2000) | 1460 | 201 | 320 | 412 | 430 | 813 | 1420 | 1790 | 3180 | 6790 |
| 2026-04-24 06:30 | 3.67 | 586 | 12500 (2011) | 142 (2000) | 1460 | 201 | 320 | 412 | 430 | 813 | 1420 | 1790 | 3180 | 6790 |
| 2026-04-24 06:00 | 3.68 | 590 | 12500 (2011) | 142 (2000) | 1460 | 201 | 320 | 412 | 430 | 813 | 1420 | 1790 | 3180 | 6790 |
| 2026-04-24 05:30 | 3.69 | 593 | 12500 (2011) | 142 (2000) | 1460 | 201 | 320 | 412 | 430 | 813 | 1420 | 1790 | 3180 | 6790 |
| 2026-04-24 05:00 | 3.63 | 572 | 12500 (2011) | 142 (2000) | 1460 | 201 | 320 | 412 | 430 | 813 | 1420 | 1790 | 3180 | 6790 |
| 2026-04-24 04:30 | 3.63 | 572 | 12500 (2011) | 142 (2000) | 1460 | 201 | 320 | 412 | 430 | 813 | 1420 | 1790 | 3180 | 6790 |
| 2026-04-24 04:00 | 3.65 | 579 | 12500 (2011) | 142 (2000) | 1460 | 201 | 320 | 412 | 430 | 813 | 1420 | 1790 | 3180 | 6790 |
| 2026-04-24 03:30 | 3.61 | 564 | 12500 (2011) | 142 (2000) | 1460 | 201 | 320 | 412 | 430 | 813 | 1420 | 1790 | 3180 | 6790 |
| 2026-04-24 03:00 | 3.65 | 579 | 12500 (2011) | 142 (2000) | 1460 | 201 | 320 | 412 | 430 | 813 | 1420 | 1790 | 3180 | 6790 |
| 2026-04-24 02:30 | 3.65 | 579 | 12500 (2011) | 142 (2000) | 1460 | 201 | 320 | 412 | 430 | 813 | 1420 | 1790 | 3180 | 6790 |
| 2026-04-24 02:00 | 3.63 | 572 | 12500 (2011) | 142 (2000) | 1460 | 201 | 320 | 412 | 430 | 813 | 1420 | 1790 | 3180 | 6790 |
| 2026-04-24 01:30 | 3.63 | 572 | 12500 (2011) | 142 (2000) | 1460 | 201 | 320 | 412 | 430 | 813 | 1420 | 1790 | 3180 | 6790 |
| 2026-04-24 01:00 | 3.68 | 590 | 12500 (2011) | 142 (2000) | 1460 | 201 | 320 | 412 | 430 | 813 | 1420 | 1790 | 3180 | 6790 |
| 2026-04-24 00:30 | 3.64 | 575 | 12500 (2011) | 142 (2000) | 1460 | 201 | 320 | 412 | 430 | 813 | 1420 | 1790 | 3180 | 6790 |
| 2026-04-24 00:00 | 3.64 | 575 | 12500 (2011) | 142 (2000) | 1460 | 201 | 320 | 412 | 430 | 813 | 1420 | 1790 | 3180 | 6790 |
| 2026-04-23 23:30 | 3.71 | 601 | 12500 (2011) | 142 (2000) | 1460 | 201 | 320 | 412 | 430 | 813 | 1420 | 1790 | 3180 | 6790 |
| 2026-04-23 23:00 | 3.69 | 593 | 12500 (2011) | 142 (2000) | 1460 | 201 | 320 | 412 | 430 | 813 | 1420 | 1790 | 3180 | 6790 |
| 2026-04-23 22:30 | 3.66 | 582 | 15100 (1996) | 125 (2000) | 1470 | 209 | 300 | 421 | 450 | 712 | 1170 | 1510 | 3520 | 5280 |
| 2026-04-23 22:00 | 3.67 | 586 | 15100 (1996) | 125 (2000) | 1470 | 209 | 300 | 421 | 450 | 712 | 1170 | 1510 | 3520 | 5280 |
| 2026-04-23 21:30 | 3.71 | 601 | 15100 (1996) | 125 (2000) | 1470 | 209 | 300 | 421 | 450 | 712 | 1170 | 1510 | 3520 | 5280 |
| 2026-04-23 21:00 | 3.67 | 586 | 15100 (1996) | 125 (2000) | 1470 | 209 | 300 | 421 | 450 | 712 | 1170 | 1510 | 3520 | 5280 |
| 2026-04-23 20:30 | 3.67 | 586 | 15100 (1996) | 125 (2000) | 1470 | 209 | 300 | 421 | 450 | 712 | 1170 | 1510 | 3520 | 5280 |
| 2026-04-23 20:00 | 3.70 | 597 | 15100 (1996) | 125 (2000) | 1470 | 209 | 300 | 421 | 450 | 712 | 1170 | 1510 | 3520 | 5280 |
| 2026-04-23 19:30 | 3.74 | 612 | 15100 (1996) | 125 (2000) | 1470 | 209 | 300 | 421 | 450 | 712 | 1170 | 1510 | 3520 | 5280 |
| 2026-04-23 19:00 | 3.69 | 593 | 15100 (1996) | 125 (2000) | 1470 | 209 | 300 | 421 | 450 | 712 | 1170 | 1510 | 3520 | 5280 |
| 2026-04-23 18:30 | 3.78 | 626 | 15100 (1996) | 125 (2000) | 1470 | 209 | 300 | 421 | 450 | 712 | 1170 | 1510 | 3520 | 5280 |
| 2026-04-23 18:00 | 3.73 | 608 | 15100 (1996) | 125 (2000) | 1470 | 209 | 300 | 421 | 450 | 712 | 1170 | 1510 | 3520 | 5280 |
| 2026-04-23 17:30 | 3.77 | 623 | 15100 (1996) | 125 (2000) | 1470 | 209 | 300 | 421 | 450 | 712 | 1170 | 1510 | 3520 | 5280 |
| 2026-04-23 17:00 | 3.72 | 604 | 15100 (1996) | 125 (2000) | 1470 | 209 | 300 | 421 | 450 | 712 | 1170 | 1510 | 3520 | 5280 |
| 2026-04-23 16:30 | 3.70 | 597 | 15100 (1996) | 125 (2000) | 1470 | 209 | 300 | 421 | 450 | 712 | 1170 | 1510 | 3520 | 5280 |
| 2026-04-23 16:00 | 3.78 | 626 | 15100 (1996) | 125 (2000) | 1470 | 209 | 300 | 421 | 450 | 712 | 1170 | 1510 | 3520 | 5280 |
| 2026-04-23 15:30 | 3.72 | 604 | 15100 (1996) | 125 (2000) | 1470 | 209 | 300 | 421 | 450 | 712 | 1170 | 1510 | 3520 | 5280 |
| 2026-04-23 15:00 | 3.75 | 615 | 15100 (1996) | 125 (2000) | 1470 | 209 | 300 | 421 | 450 | 712 | 1170 | 1510 | 3520 | 5280 |
| 2026-04-23 14:30 | 3.85 | 653 | 15100 (1996) | 125 (2000) | 1470 | 209 | 300 | 421 | 450 | 712 | 1170 | 1510 | 3520 | 5280 |
| 2026-04-23 14:00 | 3.86 | 656 | 15100 (1996) | 125 (2000) | 1470 | 209 | 300 | 421 | 450 | 712 | 1170 | 1510 | 3520 | 5280 |
| 2026-04-23 13:30 | 3.87 | 660 | 15100 (1996) | 125 (2000) | 1470 | 209 | 300 | 421 | 450 | 712 | 1170 | 1510 | 3520 | 5280 |
| 2026-04-23 13:00 | 3.86 | 656 | 15100 (1996) | 125 (2000) | 1470 | 209 | 300 | 421 | 450 | 712 | 1170 | 1510 | 3520 | 5280 |
| 2026-04-23 12:30 | 3.87 | 660 | 15100 (1996) | 125 (2000) | 1470 | 209 | 300 | 421 | 450 | 712 | 1170 | 1510 | 3520 | 5280 |
| 2026-04-23 12:00 | 3.89 | 668 | 15100 (1996) | 125 (2000) | 1470 | 209 | 300 | 421 | 450 | 712 | 1170 | 1510 | 3520 | 5280 |
| 2026-04-23 11:30 | 3.89 | 668 | 15100 (1996) | 125 (2000) | 1470 | 209 | 300 | 421 | 450 | 712 | 1170 | 1510 | 3520 | 5280 |
| 2026-04-23 11:00 | 3.89 | 668 | 15100 (1996) | 125 (2000) | 1470 | 209 | 300 | 421 | 450 | 712 | 1170 | 1510 | 3520 | 5280 |
| 2026-04-23 10:30 | 3.91 | 675 | 15100 (1996) | 125 (2000) | 1470 | 209 | 300 | 421 | 450 | 712 | 1170 | 1510 | 3520 | 5280 |
| 2026-04-23 10:00 | 3.92 | 679 | 15100 (1996) | 125 (2000) | 1470 | 209 | 300 | 421 | 450 | 712 | 1170 | 1510 | 3520 | 5280 |
| 2026-04-23 09:30 | 3.91 | 675 | 15100 (1996) | 125 (2000) | 1470 | 209 | 300 | 421 | 450 | 712 | 1170 | 1510 | 3520 | 5280 |
| 2026-04-23 09:00 | 3.92 | 679 | 15100 (1996) | 125 (2000) | 1470 | 209 | 300 | 421 | 450 | 712 | 1170 | 1510 | 3520 | 5280 |
| 2026-04-23 08:30 | 3.93 | 683 | 15100 (1996) | 125 (2000) | 1470 | 209 | 300 | 421 | 450 | 712 | 1170 | 1510 | 3520 | 5280 |
| 2026-04-23 08:00 | 3.92 | 679 | 15100 (1996) | 125 (2000) | 1470 | 209 | 300 | 421 | 450 | 712 | 1170 | 1510 | 3520 | 5280 |
| 2026-04-23 07:30 | 3.92 | 679 | 15100 (1996) | 125 (2000) | 1470 | 209 | 300 | 421 | 450 | 712 | 1170 | 1510 | 3520 | 5280 |
| 2026-04-23 07:00 | 3.93 | 683 | 15100 (1996) | 125 (2000) | 1470 | 209 | 300 | 421 | 450 | 712 | 1170 | 1510 | 3520 | 5280 |
| 2026-04-23 06:30 | 3.92 | 679 | 15100 (1996) | 125 (2000) | 1470 | 209 | 300 | 421 | 450 | 712 | 1170 | 1510 | 3520 | 5280 |
| 2026-04-23 06:00 | 3.95 | 691 | 15100 (1996) | 125 (2000) | 1470 | 209 | 300 | 421 | 450 | 712 | 1170 | 1510 | 3520 | 5280 |
| 2026-04-23 05:30 | 3.95 | 691 | 15100 (1996) | 125 (2000) | 1470 | 209 | 300 | 421 | 450 | 712 | 1170 | 1510 | 3520 | 5280 |
| 2026-04-23 05:00 | 3.97 | 698 | 15100 (1996) | 125 (2000) | 1470 | 209 | 300 | 421 | 450 | 712 | 1170 | 1510 | 3520 | 5280 |
| 2026-04-23 04:30 | 3.94 | 687 | 15100 (1996) | 125 (2000) | 1470 | 209 | 300 | 421 | 450 | 712 | 1170 | 1510 | 3520 | 5280 |
| 2026-04-23 04:00 | 3.97 | 698 | 15100 (1996) | 125 (2000) | 1470 | 209 | 300 | 421 | 450 | 712 | 1170 | 1510 | 3520 | 5280 |
| 2026-04-23 03:30 | 3.98 | 702 | 15100 (1996) | 125 (2000) | 1470 | 209 | 300 | 421 | 450 | 712 | 1170 | 1510 | 3520 | 5280 |
| 2026-04-23 03:00 | 3.98 | 702 | 15100 (1996) | 125 (2000) | 1470 | 209 | 300 | 421 | 450 | 712 | 1170 | 1510 | 3520 | 5280 |
| 2026-04-23 02:30 | 3.98 | 702 | 15100 (1996) | 125 (2000) | 1470 | 209 | 300 | 421 | 450 | 712 | 1170 | 1510 | 3520 | 5280 |
| 2026-04-23 02:00 | 3.99 | 706 | 15100 (1996) | 125 (2000) | 1470 | 209 | 300 | 421 | 450 | 712 | 1170 | 1510 | 3520 | 5280 |
| 2026-04-23 01:30 | 4.00 | 710 | 15100 (1996) | 125 (2000) | 1470 | 209 | 300 | 421 | 450 | 712 | 1170 | 1510 | 3520 | 5280 |
| 2026-04-23 01:00 | 4.02 | 718 | 15100 (1996) | 125 (2000) | 1470 | 209 | 300 | 421 | 450 | 712 | 1170 | 1510 | 3520 | 5280 |
| 2026-04-23 00:30 | 4.00 | 710 | 15100 (1996) | 125 (2000) | 1470 | 209 | 300 | 421 | 450 | 712 | 1170 | 1510 | 3520 | 5280 |
| 2026-04-23 00:00 | 4.02 | 718 | 15100 (1996) | 125 (2000) | 1470 | 209 | 300 | 421 | 450 | 712 | 1170 | 1510 | 3520 | 5280 |
| 2026-04-22 23:30 | 4.02 | 718 | 15100 (1996) | 125 (2000) | 1470 | 209 | 300 | 421 | 450 | 712 | 1170 | 1510 | 3520 | 5280 |
| 2026-04-22 23:00 | 4.03 | 722 | 15100 (1996) | 125 (2000) | 1470 | 209 | 300 | 421 | 450 | 712 | 1170 | 1510 | 3520 | 5280 |
| 2026-04-22 22:30 | 4.04 | 725 | 13900 (2005) | 127 (2000) | 1750 | 229 | 291 | 439 | 459 | 711 | 1430 | 1680 | 5170 | 9080 |
| 2026-04-22 22:00 | 4.05 | 729 | 13900 (2005) | 127 (2000) | 1750 | 229 | 291 | 439 | 459 | 711 | 1430 | 1680 | 5170 | 9080 |
| 2026-04-22 21:30 | 4.05 | 729 | 13900 (2005) | 127 (2000) | 1750 | 229 | 291 | 439 | 459 | 711 | 1430 | 1680 | 5170 | 9080 |
| 2026-04-22 21:00 | 4.07 | 737 | 13900 (2005) | 127 (2000) | 1750 | 229 | 291 | 439 | 459 | 711 | 1430 | 1680 | 5170 | 9080 |
| 2026-04-22 20:30 | 4.07 | 737 | 13900 (2005) | 127 (2000) | 1750 | 229 | 291 | 439 | 459 | 711 | 1430 | 1680 | 5170 | 9080 |
| 2026-04-22 20:00 | 4.08 | 741 | 13900 (2005) | 127 (2000) | 1750 | 229 | 291 | 439 | 459 | 711 | 1430 | 1680 | 5170 | 9080 |
| 2026-04-22 19:30 | 4.09 | 745 | 13900 (2005) | 127 (2000) | 1750 | 229 | 291 | 439 | 459 | 711 | 1430 | 1680 | 5170 | 9080 |
| 2026-04-22 19:00 | 4.09 | 745 | 13900 (2005) | 127 (2000) | 1750 | 229 | 291 | 439 | 459 | 711 | 1430 | 1680 | 5170 | 9080 |
| 2026-04-22 18:30 | 4.11 | 753 | 13900 (2005) | 127 (2000) | 1750 | 229 | 291 | 439 | 459 | 711 | 1430 | 1680 | 5170 | 9080 |
| 2026-04-22 18:00 | 4.13 | 761 | 13900 (2005) | 127 (2000) | 1750 | 229 | 291 | 439 | 459 | 711 | 1430 | 1680 | 5170 | 9080 |
| 2026-04-22 17:30 | 4.12 | 757 | 13900 (2005) | 127 (2000) | 1750 | 229 | 291 | 439 | 459 | 711 | 1430 | 1680 | 5170 | 9080 |
| 2026-04-22 17:00 | 4.14 | 765 | 13900 (2005) | 127 (2000) | 1750 | 229 | 291 | 439 | 459 | 711 | 1430 | 1680 | 5170 | 9080 |
| 2026-04-22 16:30 | 4.15 | 769 | 13900 (2005) | 127 (2000) | 1750 | 229 | 291 | 439 | 459 | 711 | 1430 | 1680 | 5170 | 9080 |
| 2026-04-22 16:00 | 4.11 | 753 | 13900 (2005) | 127 (2000) | 1750 | 229 | 291 | 439 | 459 | 711 | 1430 | 1680 | 5170 | 9080 |
| 2026-04-22 15:30 | 4.15 | 769 | 13900 (2005) | 127 (2000) | 1750 | 229 | 291 | 439 | 459 | 711 | 1430 | 1680 | 5170 | 9080 |
| 2026-04-22 15:00 | 4.15 | 769 | 13900 (2005) | 127 (2000) | 1750 | 229 | 291 | 439 | 459 | 711 | 1430 | 1680 | 5170 | 9080 |
| 2026-04-22 14:30 | 4.16 | 773 | 13900 (2005) | 127 (2000) | 1750 | 229 | 291 | 439 | 459 | 711 | 1430 | 1680 | 5170 | 9080 |
| 2026-04-22 14:00 | 4.18 | 781 | 13900 (2005) | 127 (2000) | 1750 | 229 | 291 | 439 | 459 | 711 | 1430 | 1680 | 5170 | 9080 |
| 2026-04-22 13:30 | 4.19 | 785 | 13900 (2005) | 127 (2000) | 1750 | 229 | 291 | 439 | 459 | 711 | 1430 | 1680 | 5170 | 9080 |
| 2026-04-22 13:00 | 4.20 | 789 | 13900 (2005) | 127 (2000) | 1750 | 229 | 291 | 439 | 459 | 711 | 1430 | 1680 | 5170 | 9080 |
| 2026-04-22 12:30 | 4.19 | 785 | 13900 (2005) | 127 (2000) | 1750 | 229 | 291 | 439 | 459 | 711 | 1430 | 1680 | 5170 | 9080 |
| 2026-04-22 12:00 | 4.19 | 785 | 13900 (2005) | 127 (2000) | 1750 | 229 | 291 | 439 | 459 | 711 | 1430 | 1680 | 5170 | 9080 |
| 2026-04-22 11:30 | 4.22 | 797 | 13900 (2005) | 127 (2000) | 1750 | 229 | 291 | 439 | 459 | 711 | 1430 | 1680 | 5170 | 9080 |
| 2026-04-22 11:00 | 4.24 | 805 | 13900 (2005) | 127 (2000) | 1750 | 229 | 291 | 439 | 459 | 711 | 1430 | 1680 | 5170 | 9080 |
| 2026-04-22 10:30 | 4.24 | 805 | 13900 (2005) | 127 (2000) | 1750 | 229 | 291 | 439 | 459 | 711 | 1430 | 1680 | 5170 | 9080 |
| 2026-04-22 10:00 | 4.24 | 805 | 13900 (2005) | 127 (2000) | 1750 | 229 | 291 | 439 | 459 | 711 | 1430 | 1680 | 5170 | 9080 |
| 2026-04-22 09:30 | 4.24 | 805 | 13900 (2005) | 127 (2000) | 1750 | 229 | 291 | 439 | 459 | 711 | 1430 | 1680 | 5170 | 9080 |
| 2026-04-22 09:00 | 4.27 | 817 | 13900 (2005) | 127 (2000) | 1750 | 229 | 291 | 439 | 459 | 711 | 1430 | 1680 | 5170 | 9080 |
| 2026-04-22 08:30 | 4.27 | 817 | 13900 (2005) | 127 (2000) | 1750 | 229 | 291 | 439 | 459 | 711 | 1430 | 1680 | 5170 | 9080 |
| 2026-04-22 08:00 | 4.28 | 821 | 13900 (2005) | 127 (2000) | 1750 | 229 | 291 | 439 | 459 | 711 | 1430 | 1680 | 5170 | 9080 |
| 2026-04-22 07:30 | 4.28 | 821 | 13900 (2005) | 127 (2000) | 1750 | 229 | 291 | 439 | 459 | 711 | 1430 | 1680 | 5170 | 9080 |
| 2026-04-22 07:00 | 4.30 | 829 | 13900 (2005) | 127 (2000) | 1750 | 229 | 291 | 439 | 459 | 711 | 1430 | 1680 | 5170 | 9080 |
| 2026-04-22 06:30 | 4.32 | 837 | 13900 (2005) | 127 (2000) | 1750 | 229 | 291 | 439 | 459 | 711 | 1430 | 1680 | 5170 | 9080 |
| 2026-04-22 06:00 | 4.32 | 837 | 13900 (2005) | 127 (2000) | 1750 | 229 | 291 | 439 | 459 | 711 | 1430 | 1680 | 5170 | 9080 |
| 2026-04-22 05:30 | 4.32 | 837 | 13900 (2005) | 127 (2000) | 1750 | 229 | 291 | 439 | 459 | 711 | 1430 | 1680 | 5170 | 9080 |
| 2026-04-22 05:00 | 4.34 | 845 | 13900 (2005) | 127 (2000) | 1750 | 229 | 291 | 439 | 459 | 711 | 1430 | 1680 | 5170 | 9080 |
| 2026-04-22 04:30 | 4.36 | 853 | 13900 (2005) | 127 (2000) | 1750 | 229 | 291 | 439 | 459 | 711 | 1430 | 1680 | 5170 | 9080 |
| 2026-04-22 04:00 | 4.36 | 853 | 13900 (2005) | 127 (2000) | 1750 | 229 | 291 | 439 | 459 | 711 | 1430 | 1680 | 5170 | 9080 |
| 2026-04-22 03:30 | 4.37 | 858 | 13900 (2005) | 127 (2000) | 1750 | 229 | 291 | 439 | 459 | 711 | 1430 | 1680 | 5170 | 9080 |
| 2026-04-22 03:00 | 4.36 | 853 | 13900 (2005) | 127 (2000) | 1750 | 229 | 291 | 439 | 459 | 711 | 1430 | 1680 | 5170 | 9080 |
| 2026-04-22 02:30 | 4.40 | 870 | 13900 (2005) | 127 (2000) | 1750 | 229 | 291 | 439 | 459 | 711 | 1430 | 1680 | 5170 | 9080 |
| 2026-04-22 02:00 | 4.39 | 866 | 13900 (2005) | 127 (2000) | 1750 | 229 | 291 | 439 | 459 | 711 | 1430 | 1680 | 5170 | 9080 |
| 2026-04-22 01:30 | 4.41 | 874 | 13900 (2005) | 127 (2000) | 1750 | 229 | 291 | 439 | 459 | 711 | 1430 | 1680 | 5170 | 9080 |
| 2026-04-22 01:00 | 4.44 | 886 | 13900 (2005) | 127 (2000) | 1750 | 229 | 291 | 439 | 459 | 711 | 1430 | 1680 | 5170 | 9080 |
| 2026-04-22 00:30 | 4.42 | 878 | 13900 (2005) | 127 (2000) | 1750 | 229 | 291 | 439 | 459 | 711 | 1430 | 1680 | 5170 | 9080 |
| 2026-04-22 00:00 | 4.44 | 886 | 13900 (2005) | 127 (2000) | 1750 | 229 | 291 | 439 | 459 | 711 | 1430 | 1680 | 5170 | 9080 |
| 2026-04-21 23:30 | 4.45 | 891 | 13900 (2005) | 127 (2000) | 1750 | 229 | 291 | 439 | 459 | 711 | 1430 | 1680 | 5170 | 9080 |
| 2026-04-21 23:00 | 4.46 | 895 | 13900 (2005) | 127 (2000) | 1750 | 229 | 291 | 439 | 459 | 711 | 1430 | 1680 | 5170 | 9080 |
| 2026-04-21 22:30 | 4.47 | 899 | 9670 (1972) | 133 (2000) | 1430 | 246 | 300 | 413 | 463 | 659 | 1450 | 1770 | 3980 | 6350 |
| 2026-04-21 22:00 | 4.48 | 903 | 9670 (1972) | 133 (2000) | 1430 | 246 | 300 | 413 | 463 | 659 | 1450 | 1770 | 3980 | 6350 |
| 2026-04-21 21:30 | 4.51 | 916 | 9670 (1972) | 133 (2000) | 1430 | 246 | 300 | 413 | 463 | 659 | 1450 | 1770 | 3980 | 6350 |
| 2026-04-21 21:00 | 4.52 | 920 | 9670 (1972) | 133 (2000) | 1430 | 246 | 300 | 413 | 463 | 659 | 1450 | 1770 | 3980 | 6350 |
| 2026-04-21 20:30 | 4.50 | 911 | 9670 (1972) | 133 (2000) | 1430 | 246 | 300 | 413 | 463 | 659 | 1450 | 1770 | 3980 | 6350 |
| 2026-04-21 20:00 | 4.51 | 916 | 9670 (1972) | 133 (2000) | 1430 | 246 | 300 | 413 | 463 | 659 | 1450 | 1770 | 3980 | 6350 |
| 2026-04-21 19:30 | 4.53 | 924 | 9670 (1972) | 133 (2000) | 1430 | 246 | 300 | 413 | 463 | 659 | 1450 | 1770 | 3980 | 6350 |
| 2026-04-21 19:00 | 4.56 | 937 | 9670 (1972) | 133 (2000) | 1430 | 246 | 300 | 413 | 463 | 659 | 1450 | 1770 | 3980 | 6350 |
| 2026-04-21 18:30 | 4.56 | 937 | 9670 (1972) | 133 (2000) | 1430 | 246 | 300 | 413 | 463 | 659 | 1450 | 1770 | 3980 | 6350 |
| 2026-04-21 18:00 | 4.58 | 945 | 9670 (1972) | 133 (2000) | 1430 | 246 | 300 | 413 | 463 | 659 | 1450 | 1770 | 3980 | 6350 |
| 2026-04-21 17:30 | 4.57 | 941 | 9670 (1972) | 133 (2000) | 1430 | 246 | 300 | 413 | 463 | 659 | 1450 | 1770 | 3980 | 6350 |
| 2026-04-21 17:00 | 4.62 | 962 | 9670 (1972) | 133 (2000) | 1430 | 246 | 300 | 413 | 463 | 659 | 1450 | 1770 | 3980 | 6350 |
| 2026-04-21 16:30 | 4.60 | 954 | 9670 (1972) | 133 (2000) | 1430 | 246 | 300 | 413 | 463 | 659 | 1450 | 1770 | 3980 | 6350 |
| 2026-04-21 16:00 | 4.62 | 962 | 9670 (1972) | 133 (2000) | 1430 | 246 | 300 | 413 | 463 | 659 | 1450 | 1770 | 3980 | 6350 |
| 2026-04-21 15:30 | 4.67 | 984 | 9670 (1972) | 133 (2000) | 1430 | 246 | 300 | 413 | 463 | 659 | 1450 | 1770 | 3980 | 6350 |
| 2026-04-21 15:00 | 4.63 | 966 | 9670 (1972) | 133 (2000) | 1430 | 246 | 300 | 413 | 463 | 659 | 1450 | 1770 | 3980 | 6350 |
| 2026-04-21 14:30 | 4.67 | 984 | 9670 (1972) | 133 (2000) | 1430 | 246 | 300 | 413 | 463 | 659 | 1450 | 1770 | 3980 | 6350 |
| 2026-04-21 14:00 | 4.69 | 992 | 9670 (1972) | 133 (2000) | 1430 | 246 | 300 | 413 | 463 | 659 | 1450 | 1770 | 3980 | 6350 |
| 2026-04-21 13:30 | 4.70 | 997 | 9670 (1972) | 133 (2000) | 1430 | 246 | 300 | 413 | 463 | 659 | 1450 | 1770 | 3980 | 6350 |
| 2026-04-21 13:00 | 4.74 | 1010 | 9670 (1972) | 133 (2000) | 1430 | 246 | 300 | 413 | 463 | 659 | 1450 | 1770 | 3980 | 6350 |
| 2026-04-21 12:30 | 4.71 | 1000 | 9670 (1972) | 133 (2000) | 1430 | 246 | 300 | 413 | 463 | 659 | 1450 | 1770 | 3980 | 6350 |
| 2026-04-21 12:00 | 4.76 | 1020 | 9670 (1972) | 133 (2000) | 1430 | 246 | 300 | 413 | 463 | 659 | 1450 | 1770 | 3980 | 6350 |
| 2026-04-21 11:30 | 4.77 | 1030 | 9670 (1972) | 133 (2000) | 1430 | 246 | 300 | 413 | 463 | 659 | 1450 | 1770 | 3980 | 6350 |
| 2026-04-21 11:00 | 4.74 | 1010 | 9670 (1972) | 133 (2000) | 1430 | 246 | 300 | 413 | 463 | 659 | 1450 | 1770 | 3980 | 6350 |
| 2026-04-21 10:30 | 4.78 | 1030 | 9670 (1972) | 133 (2000) | 1430 | 246 | 300 | 413 | 463 | 659 | 1450 | 1770 | 3980 | 6350 |
| 2026-04-21 10:00 | 4.81 | 1040 | 9670 (1972) | 133 (2000) | 1430 | 246 | 300 | 413 | 463 | 659 | 1450 | 1770 | 3980 | 6350 |
| 2026-04-21 09:30 | 4.81 | 1040 | 9670 (1972) | 133 (2000) | 1430 | 246 | 300 | 413 | 463 | 659 | 1450 | 1770 | 3980 | 6350 |
| 2026-04-21 09:00 | 4.86 | 1070 | 9670 (1972) | 133 (2000) | 1430 | 246 | 300 | 413 | 463 | 659 | 1450 | 1770 | 3980 | 6350 |
| 2026-04-21 08:30 | 4.87 | 1070 | 9670 (1972) | 133 (2000) | 1430 | 246 | 300 | 413 | 463 | 659 | 1450 | 1770 | 3980 | 6350 |
| 2026-04-21 08:00 | 4.88 | 1080 | 9670 (1972) | 133 (2000) | 1430 | 246 | 300 | 413 | 463 | 659 | 1450 | 1770 | 3980 | 6350 |
| 2026-04-21 07:30 | 4.90 | 1080 | 9670 (1972) | 133 (2000) | 1430 | 246 | 300 | 413 | 463 | 659 | 1450 | 1770 | 3980 | 6350 |
| 2026-04-21 07:00 | 4.90 | 1080 | 9670 (1972) | 133 (2000) | 1430 | 246 | 300 | 413 | 463 | 659 | 1450 | 1770 | 3980 | 6350 |
| 2026-04-21 06:30 | 4.92 | 1090 | 9670 (1972) | 133 (2000) | 1430 | 246 | 300 | 413 | 463 | 659 | 1450 | 1770 | 3980 | 6350 |
| 2026-04-21 06:00 | 4.89 | 1080 | 9670 (1972) | 133 (2000) | 1430 | 246 | 300 | 413 | 463 | 659 | 1450 | 1770 | 3980 | 6350 |
| 2026-04-21 05:30 | 4.92 | 1090 | 9670 (1972) | 133 (2000) | 1430 | 246 | 300 | 413 | 463 | 659 | 1450 | 1770 | 3980 | 6350 |
| 2026-04-21 05:00 | 4.97 | 1120 | 9670 (1972) | 133 (2000) | 1430 | 246 | 300 | 413 | 463 | 659 | 1450 | 1770 | 3980 | 6350 |
| 2026-04-21 04:30 | 4.97 | 1120 | 9670 (1972) | 133 (2000) | 1430 | 246 | 300 | 413 | 463 | 659 | 1450 | 1770 | 3980 | 6350 |
| 2026-04-21 04:00 | 4.97 | 1120 | 9670 (1972) | 133 (2000) | 1430 | 246 | 300 | 413 | 463 | 659 | 1450 | 1770 | 3980 | 6350 |
| 2026-04-21 03:30 | 5.01 | 1130 | 9670 (1972) | 133 (2000) | 1430 | 246 | 300 | 413 | 463 | 659 | 1450 | 1770 | 3980 | 6350 |
| 2026-04-21 02:30 | 5.05 | 1150 | 9670 (1972) | 133 (2000) | 1430 | 246 | 300 | 413 | 463 | 659 | 1450 | 1770 | 3980 | 6350 |
| 2026-04-21 02:00 | 5.07 | 1160 | 9670 (1972) | 133 (2000) | 1430 | 246 | 300 | 413 | 463 | 659 | 1450 | 1770 | 3980 | 6350 |
| 2026-04-21 01:30 | 5.09 | 1170 | 9670 (1972) | 133 (2000) | 1430 | 246 | 300 | 413 | 463 | 659 | 1450 | 1770 | 3980 | 6350 |
| 2026-04-21 01:00 | 5.12 | 1180 | 9670 (1972) | 133 (2000) | 1430 | 246 | 300 | 413 | 463 | 659 | 1450 | 1770 | 3980 | 6350 |
| 2026-04-21 00:30 | 5.11 | 1180 | 9670 (1972) | 133 (2000) | 1430 | 246 | 300 | 413 | 463 | 659 | 1450 | 1770 | 3980 | 6350 |
| 2026-04-21 00:00 | 5.16 | 1200 | 9670 (1972) | 133 (2000) | 1430 | 246 | 300 | 413 | 463 | 659 | 1450 | 1770 | 3980 | 6350 |
| 2026-04-20 23:30 | 5.16 | 1200 | 9670 (1972) | 133 (2000) | 1430 | 246 | 300 | 413 | 463 | 659 | 1450 | 1770 | 3980 | 6350 |
| 2026-04-20 23:00 | 5.18 | 1210 | 9670 (1972) | 133 (2000) | 1430 | 246 | 300 | 413 | 463 | 659 | 1450 | 1770 | 3980 | 6350 |
| 2026-04-20 22:30 | 5.19 | 1210 | 10500 (1992) | 140 (2000) | 1440 | 250 | 320 | 406 | 463 | 670 | 1000 | 1720 | 3840 | 7560 |
| 2026-04-20 22:00 | 5.22 | 1230 | 10500 (1992) | 140 (2000) | 1440 | 250 | 320 | 406 | 463 | 670 | 1000 | 1720 | 3840 | 7560 |
| 2026-04-20 21:30 | 5.24 | 1240 | 10500 (1992) | 140 (2000) | 1440 | 250 | 320 | 406 | 463 | 670 | 1000 | 1720 | 3840 | 7560 |
| 2026-04-20 21:00 | 5.28 | 1260 | 10500 (1992) | 140 (2000) | 1440 | 250 | 320 | 406 | 463 | 670 | 1000 | 1720 | 3840 | 7560 |
| 2026-04-20 20:30 | 5.28 | 1260 | 10500 (1992) | 140 (2000) | 1440 | 250 | 320 | 406 | 463 | 670 | 1000 | 1720 | 3840 | 7560 |
| 2026-04-20 20:00 | 5.29 | 1260 | 10500 (1992) | 140 (2000) | 1440 | 250 | 320 | 406 | 463 | 670 | 1000 | 1720 | 3840 | 7560 |
| 2026-04-20 19:30 | 5.36 | 1290 | 10500 (1992) | 140 (2000) | 1440 | 250 | 320 | 406 | 463 | 670 | 1000 | 1720 | 3840 | 7560 |
| 2026-04-20 19:00 | 5.33 | 1280 | 10500 (1992) | 140 (2000) | 1440 | 250 | 320 | 406 | 463 | 670 | 1000 | 1720 | 3840 | 7560 |
| 2026-04-20 18:30 | 5.39 | 1310 | 10500 (1992) | 140 (2000) | 1440 | 250 | 320 | 406 | 463 | 670 | 1000 | 1720 | 3840 | 7560 |
| 2026-04-20 18:00 | 5.40 | 1310 | 10500 (1992) | 140 (2000) | 1440 | 250 | 320 | 406 | 463 | 670 | 1000 | 1720 | 3840 | 7560 |
| 2026-04-20 17:30 | 5.43 | 1330 | 10500 (1992) | 140 (2000) | 1440 | 250 | 320 | 406 | 463 | 670 | 1000 | 1720 | 3840 | 7560 |
| 2026-04-20 17:00 | 5.46 | 1340 | 10500 (1992) | 140 (2000) | 1440 | 250 | 320 | 406 | 463 | 670 | 1000 | 1720 | 3840 | 7560 |
| 2026-04-20 16:30 | 5.48 | 1350 | 10500 (1992) | 140 (2000) | 1440 | 250 | 320 | 406 | 463 | 670 | 1000 | 1720 | 3840 | 7560 |
| 2026-04-20 16:00 | 5.51 | 1360 | 10500 (1992) | 140 (2000) | 1440 | 250 | 320 | 406 | 463 | 670 | 1000 | 1720 | 3840 | 7560 |
| 2026-04-20 15:30 | 5.52 | 1370 | 10500 (1992) | 140 (2000) | 1440 | 250 | 320 | 406 | 463 | 670 | 1000 | 1720 | 3840 | 7560 |
| 2026-04-20 15:00 | 5.50 | 1360 | 10500 (1992) | 140 (2000) | 1440 | 250 | 320 | 406 | 463 | 670 | 1000 | 1720 | 3840 | 7560 |
| 2026-04-20 14:30 | 5.60 | 1410 | 10500 (1992) | 140 (2000) | 1440 | 250 | 320 | 406 | 463 | 670 | 1000 | 1720 | 3840 | 7560 |
| 2026-04-20 14:00 | 5.62 | 1420 | 10500 (1992) | 140 (2000) | 1440 | 250 | 320 | 406 | 463 | 670 | 1000 | 1720 | 3840 | 7560 |
| 2026-04-20 13:30 | 5.62 | 1420 | 10500 (1992) | 140 (2000) | 1440 | 250 | 320 | 406 | 463 | 670 | 1000 | 1720 | 3840 | 7560 |
| 2026-04-20 13:00 | 5.66 | 1440 | 10500 (1992) | 140 (2000) | 1440 | 250 | 320 | 406 | 463 | 670 | 1000 | 1720 | 3840 | 7560 |
| 2026-04-20 12:30 | 5.71 | 1460 | 10500 (1992) | 140 (2000) | 1440 | 250 | 320 | 406 | 463 | 670 | 1000 | 1720 | 3840 | 7560 |
| 2026-04-20 12:00 | 5.73 | 1470 | 10500 (1992) | 140 (2000) | 1440 | 250 | 320 | 406 | 463 | 670 | 1000 | 1720 | 3840 | 7560 |
| 2026-04-20 11:30 | 5.76 | 1490 | 10500 (1992) | 140 (2000) | 1440 | 250 | 320 | 406 | 463 | 670 | 1000 | 1720 | 3840 | 7560 |
| 2026-04-20 11:00 | 5.80 | 1510 | 10500 (1992) | 140 (2000) | 1440 | 250 | 320 | 406 | 463 | 670 | 1000 | 1720 | 3840 | 7560 |
| 2026-04-20 10:30 | 5.81 | 1510 | 10500 (1992) | 140 (2000) | 1440 | 250 | 320 | 406 | 463 | 670 | 1000 | 1720 | 3840 | 7560 |
| 2026-04-20 10:00 | 5.84 | 1530 | 10500 (1992) | 140 (2000) | 1440 | 250 | 320 | 406 | 463 | 670 | 1000 | 1720 | 3840 | 7560 |
| 2026-04-20 09:30 | 5.89 | 1550 | 10500 (1992) | 140 (2000) | 1440 | 250 | 320 | 406 | 463 | 670 | 1000 | 1720 | 3840 | 7560 |
| 2026-04-20 09:00 | 5.94 | 1570 | 10500 (1992) | 140 (2000) | 1440 | 250 | 320 | 406 | 463 | 670 | 1000 | 1720 | 3840 | 7560 |
| 2026-04-20 08:30 | 5.97 | 1590 | 10500 (1992) | 140 (2000) | 1440 | 250 | 320 | 406 | 463 | 670 | 1000 | 1720 | 3840 | 7560 |
| 2026-04-20 08:00 | 5.99 | 1600 | 10500 (1992) | 140 (2000) | 1440 | 250 | 320 | 406 | 463 | 670 | 1000 | 1720 | 3840 | 7560 |
| 2026-04-20 07:30 | 6.00 | 1600 | 10500 (1992) | 140 (2000) | 1440 | 250 | 320 | 406 | 463 | 670 | 1000 | 1720 | 3840 | 7560 |
| 2026-04-20 07:00 | 6.07 | 1640 | 10500 (1992) | 140 (2000) | 1440 | 250 | 320 | 406 | 463 | 670 | 1000 | 1720 | 3840 | 7560 |
| 2026-04-20 06:30 | 6.11 | 1660 | 10500 (1992) | 140 (2000) | 1440 | 250 | 320 | 406 | 463 | 670 | 1000 | 1720 | 3840 | 7560 |
| 2026-04-20 06:00 | 6.14 | 1680 | 10500 (1992) | 140 (2000) | 1440 | 250 | 320 | 406 | 463 | 670 | 1000 | 1720 | 3840 | 7560 |
| 2026-04-20 05:30 | 6.16 | 1690 | 10500 (1992) | 140 (2000) | 1440 | 250 | 320 | 406 | 463 | 670 | 1000 | 1720 | 3840 | 7560 |
| 2026-04-20 05:00 | 6.24 | 1730 | 10500 (1992) | 140 (2000) | 1440 | 250 | 320 | 406 | 463 | 670 | 1000 | 1720 | 3840 | 7560 |
| 2026-04-20 04:30 | 6.26 | 1740 | 10500 (1992) | 140 (2000) | 1440 | 250 | 320 | 406 | 463 | 670 | 1000 | 1720 | 3840 | 7560 |
| 2026-04-20 04:00 | 6.32 | 1770 | 10500 (1992) | 140 (2000) | 1440 | 250 | 320 | 406 | 463 | 670 | 1000 | 1720 | 3840 | 7560 |
| 2026-04-20 03:30 | 6.34 | 1780 | 10500 (1992) | 140 (2000) | 1440 | 250 | 320 | 406 | 463 | 670 | 1000 | 1720 | 3840 | 7560 |
| 2026-04-20 03:00 | 6.40 | 1810 | 10500 (1992) | 140 (2000) | 1440 | 250 | 320 | 406 | 463 | 670 | 1000 | 1720 | 3840 | 7560 |
| 2026-04-20 02:30 | 6.43 | 1830 | 10500 (1992) | 140 (2000) | 1440 | 250 | 320 | 406 | 463 | 670 | 1000 | 1720 | 3840 | 7560 |
| 2026-04-20 02:00 | 6.48 | 1850 | 10500 (1992) | 140 (2000) | 1440 | 250 | 320 | 406 | 463 | 670 | 1000 | 1720 | 3840 | 7560 |
| 2026-04-20 01:30 | 6.55 | 1890 | 10500 (1992) | 140 (2000) | 1440 | 250 | 320 | 406 | 463 | 670 | 1000 | 1720 | 3840 | 7560 |
| 2026-04-20 01:00 | 6.60 | 1920 | 10500 (1992) | 140 (2000) | 1440 | 250 | 320 | 406 | 463 | 670 | 1000 | 1720 | 3840 | 7560 |
| 2026-04-20 00:30 | 6.59 | 1910 | 10500 (1992) | 140 (2000) | 1440 | 250 | 320 | 406 | 463 | 670 | 1000 | 1720 | 3840 | 7560 |
| 2026-04-20 00:00 | 6.69 | 1970 | 10500 (1992) | 140 (2000) | 1440 | 250 | 320 | 406 | 463 | 670 | 1000 | 1720 | 3840 | 7560 |
| 2026-04-19 23:30 | 6.76 | 2010 | 10500 (1992) | 140 (2000) | 1440 | 250 | 320 | 406 | 463 | 670 | 1000 | 1720 | 3840 | 7560 |
| 2026-04-19 23:00 | 6.80 | 2030 | 10500 (1992) | 140 (2000) | 1440 | 250 | 320 | 406 | 463 | 670 | 1000 | 1720 | 3840 | 7560 |
| 2026-04-19 22:30 | 6.88 | 2080 | 26000 (2013) | 146 (2000) | 1390 | 210 | 308 | 431 | 457 | 723 | 1070 | 1280 | 2290 | 5170 |
| 2026-04-19 22:00 | 6.94 | 2120 | 26000 (2013) | 146 (2000) | 1390 | 210 | 308 | 431 | 457 | 723 | 1070 | 1280 | 2290 | 5170 |
| 2026-04-19 21:30 | 6.98 | 2150 | 26000 (2013) | 146 (2000) | 1390 | 210 | 308 | 431 | 457 | 723 | 1070 | 1280 | 2290 | 5170 |
| 2026-04-19 21:00 | 7.08 | 2210 | 26000 (2013) | 146 (2000) | 1390 | 210 | 308 | 431 | 457 | 723 | 1070 | 1280 | 2290 | 5170 |
| 2026-04-19 20:30 | 7.17 | 2270 | 26000 (2013) | 146 (2000) | 1390 | 210 | 308 | 431 | 457 | 723 | 1070 | 1280 | 2290 | 5170 |
| 2026-04-19 20:00 | 7.25 | 2330 | 26000 (2013) | 146 (2000) | 1390 | 210 | 308 | 431 | 457 | 723 | 1070 | 1280 | 2290 | 5170 |
| 2026-04-19 19:30 | 7.32 | 2370 | 26000 (2013) | 146 (2000) | 1390 | 210 | 308 | 431 | 457 | 723 | 1070 | 1280 | 2290 | 5170 |
| 2026-04-19 19:00 | 7.41 | 2440 | 26000 (2013) | 146 (2000) | 1390 | 210 | 308 | 431 | 457 | 723 | 1070 | 1280 | 2290 | 5170 |
| 2026-04-19 18:30 | 7.52 | 2510 | 26000 (2013) | 146 (2000) | 1390 | 210 | 308 | 431 | 457 | 723 | 1070 | 1280 | 2290 | 5170 |
| 2026-04-19 18:00 | 7.61 | 2580 | 26000 (2013) | 146 (2000) | 1390 | 210 | 308 | 431 | 457 | 723 | 1070 | 1280 | 2290 | 5170 |
| 2026-04-19 17:30 | 7.72 | 2660 | 26000 (2013) | 146 (2000) | 1390 | 210 | 308 | 431 | 457 | 723 | 1070 | 1280 | 2290 | 5170 |
| 2026-04-19 17:00 | 7.83 | 2740 | 26000 (2013) | 146 (2000) | 1390 | 210 | 308 | 431 | 457 | 723 | 1070 | 1280 | 2290 | 5170 |
| 2026-04-19 16:30 | 7.92 | 2800 | 26000 (2013) | 146 (2000) | 1390 | 210 | 308 | 431 | 457 | 723 | 1070 | 1280 | 2290 | 5170 |
| 2026-04-19 16:00 | 8.04 | 2890 | 26000 (2013) | 146 (2000) | 1390 | 210 | 308 | 431 | 457 | 723 | 1070 | 1280 | 2290 | 5170 |
| 2026-04-19 15:30 | 8.14 | 2970 | 26000 (2013) | 146 (2000) | 1390 | 210 | 308 | 431 | 457 | 723 | 1070 | 1280 | 2290 | 5170 |
| 2026-04-19 15:00 | 8.27 | 3070 | 26000 (2013) | 146 (2000) | 1390 | 210 | 308 | 431 | 457 | 723 | 1070 | 1280 | 2290 | 5170 |
| 2026-04-19 14:30 | 8.37 | 3140 | 26000 (2013) | 146 (2000) | 1390 | 210 | 308 | 431 | 457 | 723 | 1070 | 1280 | 2290 | 5170 |
| 2026-04-19 14:00 | 8.47 | 3220 | 26000 (2013) | 146 (2000) | 1390 | 210 | 308 | 431 | 457 | 723 | 1070 | 1280 | 2290 | 5170 |
| 2026-04-19 13:30 | 8.56 | 3290 | 26000 (2013) | 146 (2000) | 1390 | 210 | 308 | 431 | 457 | 723 | 1070 | 1280 | 2290 | 5170 |
| 2026-04-19 13:00 | 8.64 | 3350 | 26000 (2013) | 146 (2000) | 1390 | 210 | 308 | 431 | 457 | 723 | 1070 | 1280 | 2290 | 5170 |
| 2026-04-19 12:30 | 8.76 | 3450 | 26000 (2013) | 146 (2000) | 1390 | 210 | 308 | 431 | 457 | 723 | 1070 | 1280 | 2290 | 5170 |
| 2026-04-19 12:00 | 8.84 | 3510 | 26000 (2013) | 146 (2000) | 1390 | 210 | 308 | 431 | 457 | 723 | 1070 | 1280 | 2290 | 5170 |
| 2026-04-19 11:30 | 8.89 | 3550 | 26000 (2013) | 146 (2000) | 1390 | 210 | 308 | 431 | 457 | 723 | 1070 | 1280 | 2290 | 5170 |
| 2026-04-19 11:00 | 8.93 | 3590 | 26000 (2013) | 146 (2000) | 1390 | 210 | 308 | 431 | 457 | 723 | 1070 | 1280 | 2290 | 5170 |
| 2026-04-19 10:30 | 8.96 | 3610 | 26000 (2013) | 146 (2000) | 1390 | 210 | 308 | 431 | 457 | 723 | 1070 | 1280 | 2290 | 5170 |
| 2026-04-19 10:00 | 8.95 | 3600 | 26000 (2013) | 146 (2000) | 1390 | 210 | 308 | 431 | 457 | 723 | 1070 | 1280 | 2290 | 5170 |
| 2026-04-19 09:30 | 8.97 | 3620 | 26000 (2013) | 146 (2000) | 1390 | 210 | 308 | 431 | 457 | 723 | 1070 | 1280 | 2290 | 5170 |
| 2026-04-19 09:00 | 8.94 | 3590 | 26000 (2013) | 146 (2000) | 1390 | 210 | 308 | 431 | 457 | 723 | 1070 | 1280 | 2290 | 5170 |
| 2026-04-19 08:30 | 8.89 | 3550 | 26000 (2013) | 146 (2000) | 1390 | 210 | 308 | 431 | 457 | 723 | 1070 | 1280 | 2290 | 5170 |
| 2026-04-19 08:00 | 8.82 | 3500 | 26000 (2013) | 146 (2000) | 1390 | 210 | 308 | 431 | 457 | 723 | 1070 | 1280 | 2290 | 5170 |
| 2026-04-19 07:30 | 8.69 | 3390 | 26000 (2013) | 146 (2000) | 1390 | 210 | 308 | 431 | 457 | 723 | 1070 | 1280 | 2290 | 5170 |
| 2026-04-19 07:00 | 8.64 | 3350 | 26000 (2013) | 146 (2000) | 1390 | 210 | 308 | 431 | 457 | 723 | 1070 | 1280 | 2290 | 5170 |
| 2026-04-19 06:30 | 8.43 | 3190 | 26000 (2013) | 146 (2000) | 1390 | 210 | 308 | 431 | 457 | 723 | 1070 | 1280 | 2290 | 5170 |
| 2026-04-19 06:00 | 8.30 | 3090 | 26000 (2013) | 146 (2000) | 1390 | 210 | 308 | 431 | 457 | 723 | 1070 | 1280 | 2290 | 5170 |
| 2026-04-19 05:30 | 8.11 | 2940 | 26000 (2013) | 146 (2000) | 1390 | 210 | 308 | 431 | 457 | 723 | 1070 | 1280 | 2290 | 5170 |
| 2026-04-19 05:00 | 7.94 | 2820 | 26000 (2013) | 146 (2000) | 1390 | 210 | 308 | 431 | 457 | 723 | 1070 | 1280 | 2290 | 5170 |
| 2026-04-19 04:30 | 7.78 | 2700 | 26000 (2013) | 146 (2000) | 1390 | 210 | 308 | 431 | 457 | 723 | 1070 | 1280 | 2290 | 5170 |
| 2026-04-19 04:00 | 7.63 | 2590 | 26000 (2013) | 146 (2000) | 1390 | 210 | 308 | 431 | 457 | 723 | 1070 | 1280 | 2290 | 5170 |
| 2026-04-19 03:30 | 7.50 | 2500 | 26000 (2013) | 146 (2000) | 1390 | 210 | 308 | 431 | 457 | 723 | 1070 | 1280 | 2290 | 5170 |
| 2026-04-19 03:00 | 7.41 | 2440 | 26000 (2013) | 146 (2000) | 1390 | 210 | 308 | 431 | 457 | 723 | 1070 | 1280 | 2290 | 5170 |
| 2026-04-19 02:30 | 7.32 | 2370 | 26000 (2013) | 146 (2000) | 1390 | 210 | 308 | 431 | 457 | 723 | 1070 | 1280 | 2290 | 5170 |
| 2026-04-19 02:00 | 7.28 | 2350 | 26000 (2013) | 146 (2000) | 1390 | 210 | 308 | 431 | 457 | 723 | 1070 | 1280 | 2290 | 5170 |
| 2026-04-19 01:30 | 7.25 | 2330 | 26000 (2013) | 146 (2000) | 1390 | 210 | 308 | 431 | 457 | 723 | 1070 | 1280 | 2290 | 5170 |
| 2026-04-19 01:00 | 7.24 | 2320 | 26000 (2013) | 146 (2000) | 1390 | 210 | 308 | 431 | 457 | 723 | 1070 | 1280 | 2290 | 5170 |
| 2026-04-19 00:30 | 7.17 | 2270 | 26000 (2013) | 146 (2000) | 1390 | 210 | 308 | 431 | 457 | 723 | 1070 | 1280 | 2290 | 5170 |
| 2026-04-19 00:00 | 7.19 | 2290 | 26000 (2013) | 146 (2000) | 1390 | 210 | 308 | 431 | 457 | 723 | 1070 | 1280 | 2290 | 5170 |
| 2026-04-18 23:30 | 7.12 | 2240 | 26000 (2013) | 146 (2000) | 1390 | 210 | 308 | 431 | 457 | 723 | 1070 | 1280 | 2290 | 5170 |
| 2026-04-18 23:00 | 7.08 | 2210 | 26000 (2013) | 146 (2000) | 1390 | 210 | 308 | 431 | 457 | 723 | 1070 | 1280 | 2290 | 5170 |
| 2026-04-18 22:30 | 7.05 | 2190 | 8450 (2013) | 151 (2000) | 949 | 206 | 258 | 381 | 437 | 675 | 1050 | 1170 | 1670 | 2630 |
| 2026-04-18 22:00 | 7.06 | 2200 | 8450 (2013) | 151 (2000) | 949 | 206 | 258 | 381 | 437 | 675 | 1050 | 1170 | 1670 | 2630 |
| 2026-04-18 21:30 | 7.02 | 2170 | 8450 (2013) | 151 (2000) | 949 | 206 | 258 | 381 | 437 | 675 | 1050 | 1170 | 1670 | 2630 |
| 2026-04-18 21:00 | 7.03 | 2180 | 8450 (2013) | 151 (2000) | 949 | 206 | 258 | 381 | 437 | 675 | 1050 | 1170 | 1670 | 2630 |
| 2026-04-18 20:30 | 7.04 | 2180 | 8450 (2013) | 151 (2000) | 949 | 206 | 258 | 381 | 437 | 675 | 1050 | 1170 | 1670 | 2630 |
| 2026-04-18 20:00 | 7.05 | 2190 | 8450 (2013) | 151 (2000) | 949 | 206 | 258 | 381 | 437 | 675 | 1050 | 1170 | 1670 | 2630 |
| 2026-04-18 19:30 | 7.08 | 2210 | 8450 (2013) | 151 (2000) | 949 | 206 | 258 | 381 | 437 | 675 | 1050 | 1170 | 1670 | 2630 |
| 2026-04-18 19:00 | 7.09 | 2220 | 8450 (2013) | 151 (2000) | 949 | 206 | 258 | 381 | 437 | 675 | 1050 | 1170 | 1670 | 2630 |
| 2026-04-18 18:30 | 7.04 | 2180 | 8450 (2013) | 151 (2000) | 949 | 206 | 258 | 381 | 437 | 675 | 1050 | 1170 | 1670 | 2630 |
| 2026-04-18 18:00 | 6.99 | 2150 | 8450 (2013) | 151 (2000) | 949 | 206 | 258 | 381 | 437 | 675 | 1050 | 1170 | 1670 | 2630 |
| 2026-04-18 17:30 | 6.92 | 2110 | 8450 (2013) | 151 (2000) | 949 | 206 | 258 | 381 | 437 | 675 | 1050 | 1170 | 1670 | 2630 |
| 2026-04-18 17:00 | 6.85 | 2060 | 8450 (2013) | 151 (2000) | 949 | 206 | 258 | 381 | 437 | 675 | 1050 | 1170 | 1670 | 2630 |
| 2026-04-18 16:30 | 6.76 | 2010 | 8450 (2013) | 151 (2000) | 949 | 206 | 258 | 381 | 437 | 675 | 1050 | 1170 | 1670 | 2630 |
| 2026-04-18 16:00 | 6.62 | 1930 | 8450 (2013) | 151 (2000) | 949 | 206 | 258 | 381 | 437 | 675 | 1050 | 1170 | 1670 | 2630 |
| 2026-04-18 15:30 | 6.51 | 1870 | 8450 (2013) | 151 (2000) | 949 | 206 | 258 | 381 | 437 | 675 | 1050 | 1170 | 1670 | 2630 |
| 2026-04-18 15:00 | 6.39 | 1800 | 8450 (2013) | 151 (2000) | 949 | 206 | 258 | 381 | 437 | 675 | 1050 | 1170 | 1670 | 2630 |
| 2026-04-18 14:30 | 6.30 | 1760 | 8450 (2013) | 151 (2000) | 949 | 206 | 258 | 381 | 437 | 675 | 1050 | 1170 | 1670 | 2630 |
| 2026-04-18 14:00 | 6.19 | 1700 | 8450 (2013) | 151 (2000) | 949 | 206 | 258 | 381 | 437 | 675 | 1050 | 1170 | 1670 | 2630 |
| 2026-04-18 13:30 | 6.08 | 1650 | 8450 (2013) | 151 (2000) | 949 | 206 | 258 | 381 | 437 | 675 | 1050 | 1170 | 1670 | 2630 |
| 2026-04-18 13:00 | 5.94 | 1570 | 8450 (2013) | 151 (2000) | 949 | 206 | 258 | 381 | 437 | 675 | 1050 | 1170 | 1670 | 2630 |
| 2026-04-18 12:30 | 5.83 | 1520 | 8450 (2013) | 151 (2000) | 949 | 206 | 258 | 381 | 437 | 675 | 1050 | 1170 | 1670 | 2630 |
| 2026-04-18 12:00 | 5.68 | 1450 | 8450 (2013) | 151 (2000) | 949 | 206 | 258 | 381 | 437 | 675 | 1050 | 1170 | 1670 | 2630 |
| 2026-04-18 11:30 | 5.54 | 1380 | 8450 (2013) | 151 (2000) | 949 | 206 | 258 | 381 | 437 | 675 | 1050 | 1170 | 1670 | 2630 |
| 2026-04-18 11:00 | 5.39 | 1310 | 8450 (2013) | 151 (2000) | 949 | 206 | 258 | 381 | 437 | 675 | 1050 | 1170 | 1670 | 2630 |
| 2026-04-18 10:30 | 5.25 | 1240 | 8450 (2013) | 151 (2000) | 949 | 206 | 258 | 381 | 437 | 675 | 1050 | 1170 | 1670 | 2630 |
| 2026-04-18 10:00 | 5.17 | 1210 | 8450 (2013) | 151 (2000) | 949 | 206 | 258 | 381 | 437 | 675 | 1050 | 1170 | 1670 | 2630 |
| 2026-04-18 09:30 | 5.08 | 1160 | 8450 (2013) | 151 (2000) | 949 | 206 | 258 | 381 | 437 | 675 | 1050 | 1170 | 1670 | 2630 |
| 2026-04-18 09:00 | 5.06 | 1160 | 8450 (2013) | 151 (2000) | 949 | 206 | 258 | 381 | 437 | 675 | 1050 | 1170 | 1670 | 2630 |
| 2026-04-18 08:30 | 4.94 | 1100 | 8450 (2013) | 151 (2000) | 949 | 206 | 258 | 381 | 437 | 675 | 1050 | 1170 | 1670 | 2630 |
| 2026-04-18 08:00 | 4.89 | 1080 | 8450 (2013) | 151 (2000) | 949 | 206 | 258 | 381 | 437 | 675 | 1050 | 1170 | 1670 | 2630 |
| 2026-04-18 07:30 | 4.81 | 1040 | 8450 (2013) | 151 (2000) | 949 | 206 | 258 | 381 | 437 | 675 | 1050 | 1170 | 1670 | 2630 |
| 2026-04-18 07:00 | 4.70 | 997 | 8450 (2013) | 151 (2000) | 949 | 206 | 258 | 381 | 437 | 675 | 1050 | 1170 | 1670 | 2630 |
| 2026-04-18 06:30 | 4.71 | 1000 | 8450 (2013) | 151 (2000) | 949 | 206 | 258 | 381 | 437 | 675 | 1050 | 1170 | 1670 | 2630 |
| 2026-04-18 06:00 | 4.61 | 958 | 8450 (2013) | 151 (2000) | 949 | 206 | 258 | 381 | 437 | 675 | 1050 | 1170 | 1670 | 2630 |
| 2026-04-18 05:30 | 4.55 | 933 | 8450 (2013) | 151 (2000) | 949 | 206 | 258 | 381 | 437 | 675 | 1050 | 1170 | 1670 | 2630 |
| 2026-04-18 05:00 | 4.54 | 928 | 8450 (2013) | 151 (2000) | 949 | 206 | 258 | 381 | 437 | 675 | 1050 | 1170 | 1670 | 2630 |
| 2026-04-18 04:30 | 4.50 | 911 | 8450 (2013) | 151 (2000) | 949 | 206 | 258 | 381 | 437 | 675 | 1050 | 1170 | 1670 | 2630 |
| 2026-04-18 04:00 | 4.48 | 903 | 8450 (2013) | 151 (2000) | 949 | 206 | 258 | 381 | 437 | 675 | 1050 | 1170 | 1670 | 2630 |
| 2026-04-18 03:30 | 4.47 | 899 | 8450 (2013) | 151 (2000) | 949 | 206 | 258 | 381 | 437 | 675 | 1050 | 1170 | 1670 | 2630 |
| 2026-04-18 03:00 | 4.46 | 895 | 8450 (2013) | 151 (2000) | 949 | 206 | 258 | 381 | 437 | 675 | 1050 | 1170 | 1670 | 2630 |
| 2026-04-18 02:30 | 4.43 | 882 | 8450 (2013) | 151 (2000) | 949 | 206 | 258 | 381 | 437 | 675 | 1050 | 1170 | 1670 | 2630 |
| 2026-04-18 02:00 | 4.42 | 878 | 8450 (2013) | 151 (2000) | 949 | 206 | 258 | 381 | 437 | 675 | 1050 | 1170 | 1670 | 2630 |
| 2026-04-18 01:30 | 4.41 | 874 | 8450 (2013) | 151 (2000) | 949 | 206 | 258 | 381 | 437 | 675 | 1050 | 1170 | 1670 | 2630 |
| 2026-04-18 01:00 | 4.37 | 858 | 8450 (2013) | 151 (2000) | 949 | 206 | 258 | 381 | 437 | 675 | 1050 | 1170 | 1670 | 2630 |
| 2026-04-18 00:30 | 4.34 | 845 | 8450 (2013) | 151 (2000) | 949 | 206 | 258 | 381 | 437 | 675 | 1050 | 1170 | 1670 | 2630 |
| 2026-04-18 00:00 | 4.28 | 821 | 8450 (2013) | 151 (2000) | 949 | 206 | 258 | 381 | 437 | 675 | 1050 | 1170 | 1670 | 2630 |
| 2026-04-17 23:30 | 4.25 | 809 | 8450 (2013) | 151 (2000) | 949 | 206 | 258 | 381 | 437 | 675 | 1050 | 1170 | 1670 | 2630 |
| 2026-04-17 23:00 | 4.20 | 789 | 8450 (2013) | 151 (2000) | 949 | 206 | 258 | 381 | 437 | 675 | 1050 | 1170 | 1670 | 2630 |
| 2026-04-17 22:30 | 4.10 | 749 | 7660 (1972) | 160 (2000) | 922 | 215 | 291 | 412 | 420 | 669 | 1150 | 1270 | 1510 | 2110 |
| 2026-04-17 22:00 | 4.08 | 741 | 7660 (1972) | 160 (2000) | 922 | 215 | 291 | 412 | 420 | 669 | 1150 | 1270 | 1510 | 2110 |
| 2026-04-17 21:30 | 4.01 | 714 | 7660 (1972) | 160 (2000) | 922 | 215 | 291 | 412 | 420 | 669 | 1150 | 1270 | 1510 | 2110 |
| 2026-04-17 21:00 | 3.93 | 683 | 7660 (1972) | 160 (2000) | 922 | 215 | 291 | 412 | 420 | 669 | 1150 | 1270 | 1510 | 2110 |
| 2026-04-17 20:30 | 3.91 | 675 | 7660 (1972) | 160 (2000) | 922 | 215 | 291 | 412 | 420 | 669 | 1150 | 1270 | 1510 | 2110 |
| 2026-04-17 20:00 | 3.93 | 683 | 7660 (1972) | 160 (2000) | 922 | 215 | 291 | 412 | 420 | 669 | 1150 | 1270 | 1510 | 2110 |
| 2026-04-17 19:30 | 3.92 | 679 | 7660 (1972) | 160 (2000) | 922 | 215 | 291 | 412 | 420 | 669 | 1150 | 1270 | 1510 | 2110 |
| 2026-04-17 19:00 | 3.89 | 668 | 7660 (1972) | 160 (2000) | 922 | 215 | 291 | 412 | 420 | 669 | 1150 | 1270 | 1510 | 2110 |
| 2026-04-17 18:30 | 3.91 | 675 | 7660 (1972) | 160 (2000) | 922 | 215 | 291 | 412 | 420 | 669 | 1150 | 1270 | 1510 | 2110 |
| 2026-04-17 18:00 | 3.94 | 687 | 7660 (1972) | 160 (2000) | 922 | 215 | 291 | 412 | 420 | 669 | 1150 | 1270 | 1510 | 2110 |
| 2026-04-17 17:30 | 3.93 | 683 | 7660 (1972) | 160 (2000) | 922 | 215 | 291 | 412 | 420 | 669 | 1150 | 1270 | 1510 | 2110 |
| 2026-04-17 17:00 | 3.91 | 675 | 7660 (1972) | 160 (2000) | 922 | 215 | 291 | 412 | 420 | 669 | 1150 | 1270 | 1510 | 2110 |
| 2026-04-17 16:30 | 3.92 | 679 | 7660 (1972) | 160 (2000) | 922 | 215 | 291 | 412 | 420 | 669 | 1150 | 1270 | 1510 | 2110 |
| 2026-04-17 16:00 | 3.93 | 683 | 7660 (1972) | 160 (2000) | 922 | 215 | 291 | 412 | 420 | 669 | 1150 | 1270 | 1510 | 2110 |
| 2026-04-17 15:30 | 3.95 | 691 | 7660 (1972) | 160 (2000) | 922 | 215 | 291 | 412 | 420 | 669 | 1150 | 1270 | 1510 | 2110 |
| 2026-04-17 15:00 | 3.94 | 687 | 7660 (1972) | 160 (2000) | 922 | 215 | 291 | 412 | 420 | 669 | 1150 | 1270 | 1510 | 2110 |
| 2026-04-17 14:30 | 3.97 | 698 | 7660 (1972) | 160 (2000) | 922 | 215 | 291 | 412 | 420 | 669 | 1150 | 1270 | 1510 | 2110 |
| 2026-04-17 14:00 | 3.98 | 702 | 7660 (1972) | 160 (2000) | 922 | 215 | 291 | 412 | 420 | 669 | 1150 | 1270 | 1510 | 2110 |
| 2026-04-17 13:30 | 3.97 | 698 | 7660 (1972) | 160 (2000) | 922 | 215 | 291 | 412 | 420 | 669 | 1150 | 1270 | 1510 | 2110 |
| 2026-04-17 13:00 | 3.96 | 694 | 7660 (1972) | 160 (2000) | 922 | 215 | 291 | 412 | 420 | 669 | 1150 | 1270 | 1510 | 2110 |
| 2026-04-17 12:30 | 4.00 | 710 | 7660 (1972) | 160 (2000) | 922 | 215 | 291 | 412 | 420 | 669 | 1150 | 1270 | 1510 | 2110 |
| 2026-04-17 12:00 | 3.97 | 698 | 7660 (1972) | 160 (2000) | 922 | 215 | 291 | 412 | 420 | 669 | 1150 | 1270 | 1510 | 2110 |
| 2026-04-17 11:30 | 3.99 | 706 | 7660 (1972) | 160 (2000) | 922 | 215 | 291 | 412 | 420 | 669 | 1150 | 1270 | 1510 | 2110 |
| 2026-04-17 11:00 | 3.99 | 706 | 7660 (1972) | 160 (2000) | 922 | 215 | 291 | 412 | 420 | 669 | 1150 | 1270 | 1510 | 2110 |
| 2026-04-17 10:30 | 4.01 | 714 | 7660 (1972) | 160 (2000) | 922 | 215 | 291 | 412 | 420 | 669 | 1150 | 1270 | 1510 | 2110 |
| 2026-04-17 10:00 | 4.01 | 714 | 7660 (1972) | 160 (2000) | 922 | 215 | 291 | 412 | 420 | 669 | 1150 | 1270 | 1510 | 2110 |
| 2026-04-17 09:30 | 4.04 | 725 | 7660 (1972) | 160 (2000) | 922 | 215 | 291 | 412 | 420 | 669 | 1150 | 1270 | 1510 | 2110 |
| 2026-04-17 09:00 | 3.99 | 706 | 7660 (1972) | 160 (2000) | 922 | 215 | 291 | 412 | 420 | 669 | 1150 | 1270 | 1510 | 2110 |
| 2026-04-17 08:30 | 3.98 | 702 | 7660 (1972) | 160 (2000) | 922 | 215 | 291 | 412 | 420 | 669 | 1150 | 1270 | 1510 | 2110 |
| 2026-04-17 08:00 | 3.98 | 702 | 7660 (1972) | 160 (2000) | 922 | 215 | 291 | 412 | 420 | 669 | 1150 | 1270 | 1510 | 2110 |
| 2026-04-17 07:30 | 4.00 | 710 | 7660 (1972) | 160 (2000) | 922 | 215 | 291 | 412 | 420 | 669 | 1150 | 1270 | 1510 | 2110 |
| 2026-04-17 07:00 | 4.00 | 710 | 7660 (1972) | 160 (2000) | 922 | 215 | 291 | 412 | 420 | 669 | 1150 | 1270 | 1510 | 2110 |
| 2026-04-17 06:30 | 4.03 | 722 | 7660 (1972) | 160 (2000) | 922 | 215 | 291 | 412 | 420 | 669 | 1150 | 1270 | 1510 | 2110 |
| 2026-04-17 06:00 | 4.04 | 725 | 7660 (1972) | 160 (2000) | 922 | 215 | 291 | 412 | 420 | 669 | 1150 | 1270 | 1510 | 2110 |
| 2026-04-17 05:30 | 4.02 | 718 | 7660 (1972) | 160 (2000) | 922 | 215 | 291 | 412 | 420 | 669 | 1150 | 1270 | 1510 | 2110 |
| 2026-04-17 05:00 | 4.05 | 729 | 7660 (1972) | 160 (2000) | 922 | 215 | 291 | 412 | 420 | 669 | 1150 | 1270 | 1510 | 2110 |
| 2026-04-17 04:30 | 4.03 | 722 | 7660 (1972) | 160 (2000) | 922 | 215 | 291 | 412 | 420 | 669 | 1150 | 1270 | 1510 | 2110 |
| 2026-04-17 04:00 | 4.04 | 725 | 7660 (1972) | 160 (2000) | 922 | 215 | 291 | 412 | 420 | 669 | 1150 | 1270 | 1510 | 2110 |
| 2026-04-17 03:30 | 4.08 | 741 | 7660 (1972) | 160 (2000) | 922 | 215 | 291 | 412 | 420 | 669 | 1150 | 1270 | 1510 | 2110 |
| 2026-04-17 03:00 | 4.10 | 749 | 7660 (1972) | 160 (2000) | 922 | 215 | 291 | 412 | 420 | 669 | 1150 | 1270 | 1510 | 2110 |
| 2026-04-17 02:30 | 4.11 | 753 | 7660 (1972) | 160 (2000) | 922 | 215 | 291 | 412 | 420 | 669 | 1150 | 1270 | 1510 | 2110 |
| 2026-04-17 02:00 | 4.14 | 765 | 7660 (1972) | 160 (2000) | 922 | 215 | 291 | 412 | 420 | 669 | 1150 | 1270 | 1510 | 2110 |
| 2026-04-17 01:30 | 4.14 | 765 | 7660 (1972) | 160 (2000) | 922 | 215 | 291 | 412 | 420 | 669 | 1150 | 1270 | 1510 | 2110 |
| 2026-04-17 01:00 | 4.15 | 769 | 7660 (1972) | 160 (2000) | 922 | 215 | 291 | 412 | 420 | 669 | 1150 | 1270 | 1510 | 2110 |
| 2026-04-17 00:30 | 4.15 | 769 | 7660 (1972) | 160 (2000) | 922 | 215 | 291 | 412 | 420 | 669 | 1150 | 1270 | 1510 | 2110 |
| 2026-04-17 00:00 | 4.18 | 781 | 7660 (1972) | 160 (2000) | 922 | 215 | 291 | 412 | 420 | 669 | 1150 | 1270 | 1510 | 2110 |
| 2026-04-16 23:30 | 4.19 | 785 | 7660 (1972) | 160 (2000) | 922 | 215 | 291 | 412 | 420 | 669 | 1150 | 1270 | 1510 | 2110 |
| 2026-04-16 23:00 | 4.18 | 781 | 7660 (1972) | 160 (2000) | 922 | 215 | 291 | 412 | 420 | 669 | 1150 | 1270 | 1510 | 2110 |
| 2026-04-16 22:30 | 4.19 | 785 | 15200 (1972) | 151 (2000) | 1220 | 235 | 279 | 418 | 441 | 683 | 1350 | 1480 | 2110 | 3340 |
| 2026-04-16 22:00 | 4.20 | 789 | 15200 (1972) | 151 (2000) | 1220 | 235 | 279 | 418 | 441 | 683 | 1350 | 1480 | 2110 | 3340 |
| 2026-04-16 21:30 | 4.19 | 785 | 15200 (1972) | 151 (2000) | 1220 | 235 | 279 | 418 | 441 | 683 | 1350 | 1480 | 2110 | 3340 |
| 2026-04-16 21:00 | 4.19 | 785 | 15200 (1972) | 151 (2000) | 1220 | 235 | 279 | 418 | 441 | 683 | 1350 | 1480 | 2110 | 3340 |
| 2026-04-16 20:30 | 4.15 | 769 | 15200 (1972) | 151 (2000) | 1220 | 235 | 279 | 418 | 441 | 683 | 1350 | 1480 | 2110 | 3340 |
| 2026-04-16 20:00 | 4.18 | 781 | 15200 (1972) | 151 (2000) | 1220 | 235 | 279 | 418 | 441 | 683 | 1350 | 1480 | 2110 | 3340 |
| 2026-04-16 19:30 | 4.14 | 765 | 15200 (1972) | 151 (2000) | 1220 | 235 | 279 | 418 | 441 | 683 | 1350 | 1480 | 2110 | 3340 |
| 2026-04-16 19:00 | 4.14 | 765 | 15200 (1972) | 151 (2000) | 1220 | 235 | 279 | 418 | 441 | 683 | 1350 | 1480 | 2110 | 3340 |
| 2026-04-16 18:30 | 4.12 | 757 | 15200 (1972) | 151 (2000) | 1220 | 235 | 279 | 418 | 441 | 683 | 1350 | 1480 | 2110 | 3340 |
| 2026-04-16 18:00 | 4.12 | 757 | 15200 (1972) | 151 (2000) | 1220 | 235 | 279 | 418 | 441 | 683 | 1350 | 1480 | 2110 | 3340 |
| 2026-04-16 17:30 | 4.10 | 749 | 15200 (1972) | 151 (2000) | 1220 | 235 | 279 | 418 | 441 | 683 | 1350 | 1480 | 2110 | 3340 |
| 2026-04-16 17:00 | 4.08 | 741 | 15200 (1972) | 151 (2000) | 1220 | 235 | 279 | 418 | 441 | 683 | 1350 | 1480 | 2110 | 3340 |
| 2026-04-16 16:30 | 4.08 | 741 | 15200 (1972) | 151 (2000) | 1220 | 235 | 279 | 418 | 441 | 683 | 1350 | 1480 | 2110 | 3340 |
| 2026-04-16 16:00 | 4.02 | 718 | 15200 (1972) | 151 (2000) | 1220 | 235 | 279 | 418 | 441 | 683 | 1350 | 1480 | 2110 | 3340 |
| 2026-04-16 15:30 | 4.02 | 718 | 15200 (1972) | 151 (2000) | 1220 | 235 | 279 | 418 | 441 | 683 | 1350 | 1480 | 2110 | 3340 |
| 2026-04-16 15:00 | 3.97 | 698 | 15200 (1972) | 151 (2000) | 1220 | 235 | 279 | 418 | 441 | 683 | 1350 | 1480 | 2110 | 3340 |
| 2026-04-16 14:30 | 3.96 | 694 | 15200 (1972) | 151 (2000) | 1220 | 235 | 279 | 418 | 441 | 683 | 1350 | 1480 | 2110 | 3340 |
| 2026-04-16 14:00 | 3.92 | 679 | 15200 (1972) | 151 (2000) | 1220 | 235 | 279 | 418 | 441 | 683 | 1350 | 1480 | 2110 | 3340 |
| 2026-04-16 13:30 | 3.86 | 656 | 15200 (1972) | 151 (2000) | 1220 | 235 | 279 | 418 | 441 | 683 | 1350 | 1480 | 2110 | 3340 |
| 2026-04-16 13:00 | 3.79 | 630 | 15200 (1972) | 151 (2000) | 1220 | 235 | 279 | 418 | 441 | 683 | 1350 | 1480 | 2110 | 3340 |
| 2026-04-16 12:30 | 3.72 | 604 | 15200 (1972) | 151 (2000) | 1220 | 235 | 279 | 418 | 441 | 683 | 1350 | 1480 | 2110 | 3340 |
| 2026-04-16 12:00 | 3.62 | 568 | 15200 (1972) | 151 (2000) | 1220 | 235 | 279 | 418 | 441 | 683 | 1350 | 1480 | 2110 | 3340 |
| 2026-04-16 11:30 | 3.51 | 529 | 15200 (1972) | 151 (2000) | 1220 | 235 | 279 | 418 | 441 | 683 | 1350 | 1480 | 2110 | 3340 |
| 2026-04-16 11:00 | 3.47 | 515 | 15200 (1972) | 151 (2000) | 1220 | 235 | 279 | 418 | 441 | 683 | 1350 | 1480 | 2110 | 3340 |
| 2026-04-16 10:30 | 3.38 | 484 | 15200 (1972) | 151 (2000) | 1220 | 235 | 279 | 418 | 441 | 683 | 1350 | 1480 | 2110 | 3340 |
| 2026-04-16 10:00 | 3.31 | 460 | 15200 (1972) | 151 (2000) | 1220 | 235 | 279 | 418 | 441 | 683 | 1350 | 1480 | 2110 | 3340 |
| 2026-04-16 09:30 | 3.27 | 447 | 15200 (1972) | 151 (2000) | 1220 | 235 | 279 | 418 | 441 | 683 | 1350 | 1480 | 2110 | 3340 |
| 2026-04-16 09:00 | 3.24 | 437 | 15200 (1972) | 151 (2000) | 1220 | 235 | 279 | 418 | 441 | 683 | 1350 | 1480 | 2110 | 3340 |
| 2026-04-16 08:30 | 3.17 | 414 | 15200 (1972) | 151 (2000) | 1220 | 235 | 279 | 418 | 441 | 683 | 1350 | 1480 | 2110 | 3340 |
| 2026-04-16 08:00 | 3.17 | 414 | 15200 (1972) | 151 (2000) | 1220 | 235 | 279 | 418 | 441 | 683 | 1350 | 1480 | 2110 | 3340 |
| 2026-04-16 07:30 | 3.15 | 407 | 15200 (1972) | 151 (2000) | 1220 | 235 | 279 | 418 | 441 | 683 | 1350 | 1480 | 2110 | 3340 |
| 2026-04-16 07:00 | 3.13 | 401 | 15200 (1972) | 151 (2000) | 1220 | 235 | 279 | 418 | 441 | 683 | 1350 | 1480 | 2110 | 3340 |
| 2026-04-16 06:30 | 3.12 | 398 | 15200 (1972) | 151 (2000) | 1220 | 235 | 279 | 418 | 441 | 683 | 1350 | 1480 | 2110 | 3340 |
| 2026-04-16 06:00 | 3.09 | 389 | 15200 (1972) | 151 (2000) | 1220 | 235 | 279 | 418 | 441 | 683 | 1350 | 1480 | 2110 | 3340 |
| 2026-04-16 05:30 | 3.08 | 386 | 15200 (1972) | 151 (2000) | 1220 | 235 | 279 | 418 | 441 | 683 | 1350 | 1480 | 2110 | 3340 |
| 2026-04-16 05:00 | 3.06 | 380 | 15200 (1972) | 151 (2000) | 1220 | 235 | 279 | 418 | 441 | 683 | 1350 | 1480 | 2110 | 3340 |
| 2026-04-16 04:30 | 3.05 | 378 | 15200 (1972) | 151 (2000) | 1220 | 235 | 279 | 418 | 441 | 683 | 1350 | 1480 | 2110 | 3340 |
| 2026-04-16 04:00 | 3.01 | 366 | 15200 (1972) | 151 (2000) | 1220 | 235 | 279 | 418 | 441 | 683 | 1350 | 1480 | 2110 | 3340 |
| 2026-04-16 03:30 | 3.01 | 366 | 15200 (1972) | 151 (2000) | 1220 | 235 | 279 | 418 | 441 | 683 | 1350 | 1480 | 2110 | 3340 |
| 2026-04-16 03:00 | 3.00 | 363 | 15200 (1972) | 151 (2000) | 1220 | 235 | 279 | 418 | 441 | 683 | 1350 | 1480 | 2110 | 3340 |
| 2026-04-16 02:30 | 2.98 | 358 | 15200 (1972) | 151 (2000) | 1220 | 235 | 279 | 418 | 441 | 683 | 1350 | 1480 | 2110 | 3340 |
| 2026-04-16 02:00 | 2.97 | 355 | 15200 (1972) | 151 (2000) | 1220 | 235 | 279 | 418 | 441 | 683 | 1350 | 1480 | 2110 | 3340 |
| 2026-04-16 01:30 | 2.93 | 344 | 15200 (1972) | 151 (2000) | 1220 | 235 | 279 | 418 | 441 | 683 | 1350 | 1480 | 2110 | 3340 |
| 2026-04-16 01:00 | 2.94 | 346 | 15200 (1972) | 151 (2000) | 1220 | 235 | 279 | 418 | 441 | 683 | 1350 | 1480 | 2110 | 3340 |
| 2026-04-16 00:30 | 2.87 | 327 | 15200 (1972) | 151 (2000) | 1220 | 235 | 279 | 418 | 441 | 683 | 1350 | 1480 | 2110 | 3340 |
| 2026-04-16 00:00 | 2.86 | 324 | 15200 (1972) | 151 (2000) | 1220 | 235 | 279 | 418 | 441 | 683 | 1350 | 1480 | 2110 | 3340 |
| 2026-04-15 23:30 | 2.88 | 330 | 15200 (1972) | 151 (2000) | 1220 | 235 | 279 | 418 | 441 | 683 | 1350 | 1480 | 2110 | 3340 |
| 2026-04-15 23:00 | 2.86 | 324 | 15200 (1972) | 151 (2000) | 1220 | 235 | 279 | 418 | 441 | 683 | 1350 | 1480 | 2110 | 3340 |
| 2026-04-15 22:30 | 2.87 | 327 | 5660 (1972) | 145 (2000) | 1240 | 227 | 281 | 392 | 459 | 708 | 1480 | 1780 | 3380 | 4670 |
| 2026-04-15 22:00 | 2.86 | 324 | 5660 (1972) | 145 (2000) | 1240 | 227 | 281 | 392 | 459 | 708 | 1480 | 1780 | 3380 | 4670 |
| 2026-04-15 21:30 | 2.85 | 321 | 5660 (1972) | 145 (2000) | 1240 | 227 | 281 | 392 | 459 | 708 | 1480 | 1780 | 3380 | 4670 |
| 2026-04-15 21:00 | 2.86 | 324 | 5660 (1972) | 145 (2000) | 1240 | 227 | 281 | 392 | 459 | 708 | 1480 | 1780 | 3380 | 4670 |
| 2026-04-15 20:30 | 2.83 | 316 | 5660 (1972) | 145 (2000) | 1240 | 227 | 281 | 392 | 459 | 708 | 1480 | 1780 | 3380 | 4670 |
| 2026-04-15 20:00 | 2.83 | 316 | 5660 (1972) | 145 (2000) | 1240 | 227 | 281 | 392 | 459 | 708 | 1480 | 1780 | 3380 | 4670 |
| 2026-04-15 19:30 | 2.85 | 321 | 5660 (1972) | 145 (2000) | 1240 | 227 | 281 | 392 | 459 | 708 | 1480 | 1780 | 3380 | 4670 |
| 2026-04-15 19:00 | 2.84 | 319 | 5660 (1972) | 145 (2000) | 1240 | 227 | 281 | 392 | 459 | 708 | 1480 | 1780 | 3380 | 4670 |
| 2026-04-15 18:30 | 2.84 | 319 | 5660 (1972) | 145 (2000) | 1240 | 227 | 281 | 392 | 459 | 708 | 1480 | 1780 | 3380 | 4670 |
| 2026-04-15 18:00 | 2.83 | 316 | 5660 (1972) | 145 (2000) | 1240 | 227 | 281 | 392 | 459 | 708 | 1480 | 1780 | 3380 | 4670 |
| 2026-04-15 17:30 | 2.84 | 319 | 5660 (1972) | 145 (2000) | 1240 | 227 | 281 | 392 | 459 | 708 | 1480 | 1780 | 3380 | 4670 |
| 2026-04-15 17:00 | 2.83 | 316 | 5660 (1972) | 145 (2000) | 1240 | 227 | 281 | 392 | 459 | 708 | 1480 | 1780 | 3380 | 4670 |
| 2026-04-15 16:30 | 2.84 | 319 | 5660 (1972) | 145 (2000) | 1240 | 227 | 281 | 392 | 459 | 708 | 1480 | 1780 | 3380 | 4670 |
| 2026-04-15 16:00 | 2.85 | 321 | 5660 (1972) | 145 (2000) | 1240 | 227 | 281 | 392 | 459 | 708 | 1480 | 1780 | 3380 | 4670 |
| 2026-04-15 15:30 | 2.82 | 313 | 5660 (1972) | 145 (2000) | 1240 | 227 | 281 | 392 | 459 | 708 | 1480 | 1780 | 3380 | 4670 |
| 2026-04-15 15:00 | 2.82 | 313 | 5660 (1972) | 145 (2000) | 1240 | 227 | 281 | 392 | 459 | 708 | 1480 | 1780 | 3380 | 4670 |
| 2026-04-15 14:30 | 2.85 | 321 | 5660 (1972) | 145 (2000) | 1240 | 227 | 281 | 392 | 459 | 708 | 1480 | 1780 | 3380 | 4670 |
| 2026-04-15 14:00 | 2.85 | 321 | 5660 (1972) | 145 (2000) | 1240 | 227 | 281 | 392 | 459 | 708 | 1480 | 1780 | 3380 | 4670 |
| 2026-04-15 13:30 | 2.85 | 321 | 5660 (1972) | 145 (2000) | 1240 | 227 | 281 | 392 | 459 | 708 | 1480 | 1780 | 3380 | 4670 |
| 2026-04-15 13:00 | 2.82 | 313 | 5660 (1972) | 145 (2000) | 1240 | 227 | 281 | 392 | 459 | 708 | 1480 | 1780 | 3380 | 4670 |
| 2026-04-15 12:30 | 2.82 | 313 | 5660 (1972) | 145 (2000) | 1240 | 227 | 281 | 392 | 459 | 708 | 1480 | 1780 | 3380 | 4670 |
| 2026-04-15 12:00 | 2.83 | 316 | 5660 (1972) | 145 (2000) | 1240 | 227 | 281 | 392 | 459 | 708 | 1480 | 1780 | 3380 | 4670 |
| 2026-04-15 11:30 | 2.83 | 316 | 5660 (1972) | 145 (2000) | 1240 | 227 | 281 | 392 | 459 | 708 | 1480 | 1780 | 3380 | 4670 |
| 2026-04-15 11:00 | 2.82 | 313 | 5660 (1972) | 145 (2000) | 1240 | 227 | 281 | 392 | 459 | 708 | 1480 | 1780 | 3380 | 4670 |
| 2026-04-15 10:30 | 2.81 | 310 | 5660 (1972) | 145 (2000) | 1240 | 227 | 281 | 392 | 459 | 708 | 1480 | 1780 | 3380 | 4670 |
| 2026-04-15 10:00 | 2.81 | 310 | 5660 (1972) | 145 (2000) | 1240 | 227 | 281 | 392 | 459 | 708 | 1480 | 1780 | 3380 | 4670 |
| 2026-04-15 09:30 | 2.83 | 316 | 5660 (1972) | 145 (2000) | 1240 | 227 | 281 | 392 | 459 | 708 | 1480 | 1780 | 3380 | 4670 |
| 2026-04-15 09:00 | 2.82 | 313 | 5660 (1972) | 145 (2000) | 1240 | 227 | 281 | 392 | 459 | 708 | 1480 | 1780 | 3380 | 4670 |
| 2026-04-15 08:30 | 2.81 | 310 | 5660 (1972) | 145 (2000) | 1240 | 227 | 281 | 392 | 459 | 708 | 1480 | 1780 | 3380 | 4670 |
| 2026-04-15 08:00 | 2.82 | 313 | 5660 (1972) | 145 (2000) | 1240 | 227 | 281 | 392 | 459 | 708 | 1480 | 1780 | 3380 | 4670 |
| 2026-04-15 07:30 | 2.83 | 316 | 5660 (1972) | 145 (2000) | 1240 | 227 | 281 | 392 | 459 | 708 | 1480 | 1780 | 3380 | 4670 |
| 2026-04-15 07:00 | 2.82 | 313 | 5660 (1972) | 145 (2000) | 1240 | 227 | 281 | 392 | 459 | 708 | 1480 | 1780 | 3380 | 4670 |
| 2026-04-15 06:30 | 2.82 | 313 | 5660 (1972) | 145 (2000) | 1240 | 227 | 281 | 392 | 459 | 708 | 1480 | 1780 | 3380 | 4670 |
| 2026-04-15 06:00 | 2.83 | 316 | 5660 (1972) | 145 (2000) | 1240 | 227 | 281 | 392 | 459 | 708 | 1480 | 1780 | 3380 | 4670 |
| 2026-04-15 05:30 | 2.83 | 316 | 5660 (1972) | 145 (2000) | 1240 | 227 | 281 | 392 | 459 | 708 | 1480 | 1780 | 3380 | 4670 |
| 2026-04-15 05:00 | 2.82 | 313 | 5660 (1972) | 145 (2000) | 1240 | 227 | 281 | 392 | 459 | 708 | 1480 | 1780 | 3380 | 4670 |
| 2026-04-15 04:30 | 2.84 | 319 | 5660 (1972) | 145 (2000) | 1240 | 227 | 281 | 392 | 459 | 708 | 1480 | 1780 | 3380 | 4670 |
| 2026-04-15 04:00 | 2.85 | 321 | 5660 (1972) | 145 (2000) | 1240 | 227 | 281 | 392 | 459 | 708 | 1480 | 1780 | 3380 | 4670 |
| 2026-04-15 03:30 | 2.83 | 316 | 5660 (1972) | 145 (2000) | 1240 | 227 | 281 | 392 | 459 | 708 | 1480 | 1780 | 3380 | 4670 |
| 2026-04-15 03:00 | 2.83 | 316 | 5660 (1972) | 145 (2000) | 1240 | 227 | 281 | 392 | 459 | 708 | 1480 | 1780 | 3380 | 4670 |
| 2026-04-15 02:30 | 2.82 | 313 | 5660 (1972) | 145 (2000) | 1240 | 227 | 281 | 392 | 459 | 708 | 1480 | 1780 | 3380 | 4670 |
| 2026-04-15 02:00 | 2.85 | 321 | 5660 (1972) | 145 (2000) | 1240 | 227 | 281 | 392 | 459 | 708 | 1480 | 1780 | 3380 | 4670 |
| 2026-04-15 01:30 | 2.84 | 319 | 5660 (1972) | 145 (2000) | 1240 | 227 | 281 | 392 | 459 | 708 | 1480 | 1780 | 3380 | 4670 |
| 2026-04-15 01:00 | 2.85 | 321 | 5660 (1972) | 145 (2000) | 1240 | 227 | 281 | 392 | 459 | 708 | 1480 | 1780 | 3380 | 4670 |
| 2026-04-15 00:30 | 2.85 | 321 | 5660 (1972) | 145 (2000) | 1240 | 227 | 281 | 392 | 459 | 708 | 1480 | 1780 | 3380 | 4670 |
| 2026-04-15 00:00 | 2.83 | 316 | 5660 (1972) | 145 (2000) | 1240 | 227 | 281 | 392 | 459 | 708 | 1480 | 1780 | 3380 | 4670 |
| 2026-04-14 23:30 | 2.85 | 321 | 5660 (1972) | 145 (2000) | 1240 | 227 | 281 | 392 | 459 | 708 | 1480 | 1780 | 3380 | 4670 |
| 2026-04-14 23:00 | 2.86 | 324 | 5660 (1972) | 145 (2000) | 1240 | 227 | 281 | 392 | 459 | 708 | 1480 | 1780 | 3380 | 4670 |
| 2026-04-14 22:30 | 2.85 | 321 | 13900 (1983) | 147 (2000) | 1330 | 234 | 296 | 419 | 480 | 666 | 1480 | 1650 | 2910 | 4030 |
| 2026-04-14 22:00 | 2.83 | 316 | 13900 (1983) | 147 (2000) | 1330 | 234 | 296 | 419 | 480 | 666 | 1480 | 1650 | 2910 | 4030 |
| 2026-04-14 21:30 | 2.84 | 319 | 13900 (1983) | 147 (2000) | 1330 | 234 | 296 | 419 | 480 | 666 | 1480 | 1650 | 2910 | 4030 |
| 2026-04-14 21:00 | 2.84 | 319 | 13900 (1983) | 147 (2000) | 1330 | 234 | 296 | 419 | 480 | 666 | 1480 | 1650 | 2910 | 4030 |
| 2026-04-14 20:30 | 2.84 | 319 | 13900 (1983) | 147 (2000) | 1330 | 234 | 296 | 419 | 480 | 666 | 1480 | 1650 | 2910 | 4030 |
| 2026-04-14 20:00 | 2.85 | 321 | 13900 (1983) | 147 (2000) | 1330 | 234 | 296 | 419 | 480 | 666 | 1480 | 1650 | 2910 | 4030 |
| 2026-04-14 19:30 | 2.84 | 319 | 13900 (1983) | 147 (2000) | 1330 | 234 | 296 | 419 | 480 | 666 | 1480 | 1650 | 2910 | 4030 |
| 2026-04-14 19:00 | 2.85 | 321 | 13900 (1983) | 147 (2000) | 1330 | 234 | 296 | 419 | 480 | 666 | 1480 | 1650 | 2910 | 4030 |
| 2026-04-14 18:30 | 2.85 | 321 | 13900 (1983) | 147 (2000) | 1330 | 234 | 296 | 419 | 480 | 666 | 1480 | 1650 | 2910 | 4030 |
| 2026-04-14 18:00 | 2.84 | 319 | 13900 (1983) | 147 (2000) | 1330 | 234 | 296 | 419 | 480 | 666 | 1480 | 1650 | 2910 | 4030 |
| 2026-04-14 17:30 | 2.85 | 321 | 13900 (1983) | 147 (2000) | 1330 | 234 | 296 | 419 | 480 | 666 | 1480 | 1650 | 2910 | 4030 |
| 2026-04-14 17:00 | 2.86 | 324 | 13900 (1983) | 147 (2000) | 1330 | 234 | 296 | 419 | 480 | 666 | 1480 | 1650 | 2910 | 4030 |
| 2026-04-14 16:30 | 2.86 | 324 | 13900 (1983) | 147 (2000) | 1330 | 234 | 296 | 419 | 480 | 666 | 1480 | 1650 | 2910 | 4030 |
| 2026-04-14 16:00 | 2.87 | 327 | 13900 (1983) | 147 (2000) | 1330 | 234 | 296 | 419 | 480 | 666 | 1480 | 1650 | 2910 | 4030 |
| 2026-04-14 15:30 | 2.86 | 324 | 13900 (1983) | 147 (2000) | 1330 | 234 | 296 | 419 | 480 | 666 | 1480 | 1650 | 2910 | 4030 |
| 2026-04-14 15:00 | 2.86 | 324 | 13900 (1983) | 147 (2000) | 1330 | 234 | 296 | 419 | 480 | 666 | 1480 | 1650 | 2910 | 4030 |
| 2026-04-14 14:30 | 2.85 | 321 | 13900 (1983) | 147 (2000) | 1330 | 234 | 296 | 419 | 480 | 666 | 1480 | 1650 | 2910 | 4030 |
| 2026-04-14 14:00 | 2.86 | 324 | 13900 (1983) | 147 (2000) | 1330 | 234 | 296 | 419 | 480 | 666 | 1480 | 1650 | 2910 | 4030 |
| 2026-04-14 13:30 | 2.87 | 327 | 13900 (1983) | 147 (2000) | 1330 | 234 | 296 | 419 | 480 | 666 | 1480 | 1650 | 2910 | 4030 |
| 2026-04-14 13:00 | 2.85 | 321 | 13900 (1983) | 147 (2000) | 1330 | 234 | 296 | 419 | 480 | 666 | 1480 | 1650 | 2910 | 4030 |
| 2026-04-14 12:30 | 2.86 | 324 | 13900 (1983) | 147 (2000) | 1330 | 234 | 296 | 419 | 480 | 666 | 1480 | 1650 | 2910 | 4030 |
| 2026-04-14 12:00 | 2.86 | 324 | 13900 (1983) | 147 (2000) | 1330 | 234 | 296 | 419 | 480 | 666 | 1480 | 1650 | 2910 | 4030 |
| 2026-04-14 10:00 | 2.89 | 332 | 13900 (1983) | 147 (2000) | 1330 | 234 | 296 | 419 | 480 | 666 | 1480 | 1650 | 2910 | 4030 |
| 2026-04-14 09:00 | 2.88 | 330 | 13900 (1983) | 147 (2000) | 1330 | 234 | 296 | 419 | 480 | 666 | 1480 | 1650 | 2910 | 4030 |
| 2026-04-14 08:30 | 2.88 | 330 | 13900 (1983) | 147 (2000) | 1330 | 234 | 296 | 419 | 480 | 666 | 1480 | 1650 | 2910 | 4030 |
| 2026-04-14 08:00 | 2.86 | 324 | 13900 (1983) | 147 (2000) | 1330 | 234 | 296 | 419 | 480 | 666 | 1480 | 1650 | 2910 | 4030 |
| 2026-04-14 07:30 | 2.87 | 327 | 13900 (1983) | 147 (2000) | 1330 | 234 | 296 | 419 | 480 | 666 | 1480 | 1650 | 2910 | 4030 |
| 2026-04-14 07:00 | 2.87 | 327 | 13900 (1983) | 147 (2000) | 1330 | 234 | 296 | 419 | 480 | 666 | 1480 | 1650 | 2910 | 4030 |
| 2026-04-14 06:30 | 2.88 | 330 | 13900 (1983) | 147 (2000) | 1330 | 234 | 296 | 419 | 480 | 666 | 1480 | 1650 | 2910 | 4030 |
| 2026-04-14 06:00 | 2.86 | 324 | 13900 (1983) | 147 (2000) | 1330 | 234 | 296 | 419 | 480 | 666 | 1480 | 1650 | 2910 | 4030 |
| 2026-04-14 05:30 | 2.87 | 327 | 13900 (1983) | 147 (2000) | 1330 | 234 | 296 | 419 | 480 | 666 | 1480 | 1650 | 2910 | 4030 |
| 2026-04-14 05:00 | 2.88 | 330 | 13900 (1983) | 147 (2000) | 1330 | 234 | 296 | 419 | 480 | 666 | 1480 | 1650 | 2910 | 4030 |
| 2026-04-14 04:30 | 2.89 | 332 | 13900 (1983) | 147 (2000) | 1330 | 234 | 296 | 419 | 480 | 666 | 1480 | 1650 | 2910 | 4030 |
| 2026-04-14 04:00 | 2.87 | 327 | 13900 (1983) | 147 (2000) | 1330 | 234 | 296 | 419 | 480 | 666 | 1480 | 1650 | 2910 | 4030 |
| 2026-04-14 03:30 | 2.89 | 332 | 13900 (1983) | 147 (2000) | 1330 | 234 | 296 | 419 | 480 | 666 | 1480 | 1650 | 2910 | 4030 |
| 2026-04-14 03:00 | 2.90 | 335 | 13900 (1983) | 147 (2000) | 1330 | 234 | 296 | 419 | 480 | 666 | 1480 | 1650 | 2910 | 4030 |
| 2026-04-14 02:30 | 2.90 | 335 | 13900 (1983) | 147 (2000) | 1330 | 234 | 296 | 419 | 480 | 666 | 1480 | 1650 | 2910 | 4030 |
| 2026-04-14 02:00 | 2.89 | 332 | 13900 (1983) | 147 (2000) | 1330 | 234 | 296 | 419 | 480 | 666 | 1480 | 1650 | 2910 | 4030 |
| 2026-04-14 01:30 | 2.89 | 332 | 13900 (1983) | 147 (2000) | 1330 | 234 | 296 | 419 | 480 | 666 | 1480 | 1650 | 2910 | 4030 |
| 2026-04-14 01:00 | 2.90 | 335 | 13900 (1983) | 147 (2000) | 1330 | 234 | 296 | 419 | 480 | 666 | 1480 | 1650 | 2910 | 4030 |
| 2026-04-14 00:30 | 2.92 | 341 | 13900 (1983) | 147 (2000) | 1330 | 234 | 296 | 419 | 480 | 666 | 1480 | 1650 | 2910 | 4030 |
| 2026-04-14 00:00 | 2.89 | 332 | 13900 (1983) | 147 (2000) | 1330 | 234 | 296 | 419 | 480 | 666 | 1480 | 1650 | 2910 | 4030 |
| 2026-04-13 23:30 | 2.89 | 332 | 13900 (1983) | 147 (2000) | 1330 | 234 | 296 | 419 | 480 | 666 | 1480 | 1650 | 2910 | 4030 |
| 2026-04-13 23:00 | 2.89 | 332 | 13900 (1983) | 147 (2000) | 1330 | 234 | 296 | 419 | 480 | 666 | 1480 | 1650 | 2910 | 4030 |
| 2026-04-13 22:30 | 2.89 | 332 | 15800 (1994) | 153 (2000) | 1280 | 208 | 280 | 402 | 430 | 626 | 1210 | 1270 | 1990 | 3940 |
| 2026-04-13 22:00 | 2.91 | 338 | 15800 (1994) | 153 (2000) | 1280 | 208 | 280 | 402 | 430 | 626 | 1210 | 1270 | 1990 | 3940 |
| 2026-04-13 21:30 | 2.88 | 330 | 15800 (1994) | 153 (2000) | 1280 | 208 | 280 | 402 | 430 | 626 | 1210 | 1270 | 1990 | 3940 |
| 2026-04-13 21:00 | 2.89 | 332 | 15800 (1994) | 153 (2000) | 1280 | 208 | 280 | 402 | 430 | 626 | 1210 | 1270 | 1990 | 3940 |
| 2026-04-13 20:30 | 2.89 | 332 | 15800 (1994) | 153 (2000) | 1280 | 208 | 280 | 402 | 430 | 626 | 1210 | 1270 | 1990 | 3940 |
| 2026-04-13 20:00 | 2.90 | 335 | 15800 (1994) | 153 (2000) | 1280 | 208 | 280 | 402 | 430 | 626 | 1210 | 1270 | 1990 | 3940 |
| 2026-04-13 19:30 | 2.90 | 335 | 15800 (1994) | 153 (2000) | 1280 | 208 | 280 | 402 | 430 | 626 | 1210 | 1270 | 1990 | 3940 |
| 2026-04-13 19:00 | 2.92 | 341 | 15800 (1994) | 153 (2000) | 1280 | 208 | 280 | 402 | 430 | 626 | 1210 | 1270 | 1990 | 3940 |
| 2026-04-13 18:30 | 2.91 | 338 | 15800 (1994) | 153 (2000) | 1280 | 208 | 280 | 402 | 430 | 626 | 1210 | 1270 | 1990 | 3940 |
| 2026-04-13 18:00 | 2.90 | 335 | 15800 (1994) | 153 (2000) | 1280 | 208 | 280 | 402 | 430 | 626 | 1210 | 1270 | 1990 | 3940 |
| 2026-04-13 17:30 | 2.91 | 338 | 15800 (1994) | 153 (2000) | 1280 | 208 | 280 | 402 | 430 | 626 | 1210 | 1270 | 1990 | 3940 |
| 2026-04-13 17:00 | 2.90 | 335 | 15800 (1994) | 153 (2000) | 1280 | 208 | 280 | 402 | 430 | 626 | 1210 | 1270 | 1990 | 3940 |
| 2026-04-13 16:30 | 2.90 | 335 | 15800 (1994) | 153 (2000) | 1280 | 208 | 280 | 402 | 430 | 626 | 1210 | 1270 | 1990 | 3940 |
| 2026-04-13 16:00 | 2.92 | 341 | 15800 (1994) | 153 (2000) | 1280 | 208 | 280 | 402 | 430 | 626 | 1210 | 1270 | 1990 | 3940 |
| 2026-04-13 15:30 | 2.92 | 341 | 15800 (1994) | 153 (2000) | 1280 | 208 | 280 | 402 | 430 | 626 | 1210 | 1270 | 1990 | 3940 |
| 2026-04-13 15:00 | 2.91 | 338 | 15800 (1994) | 153 (2000) | 1280 | 208 | 280 | 402 | 430 | 626 | 1210 | 1270 | 1990 | 3940 |
| 2026-04-13 14:30 | 2.91 | 338 | 15800 (1994) | 153 (2000) | 1280 | 208 | 280 | 402 | 430 | 626 | 1210 | 1270 | 1990 | 3940 |
| 2026-04-13 14:00 | 2.92 | 341 | 15800 (1994) | 153 (2000) | 1280 | 208 | 280 | 402 | 430 | 626 | 1210 | 1270 | 1990 | 3940 |
| 2026-04-13 13:30 | 2.92 | 341 | 15800 (1994) | 153 (2000) | 1280 | 208 | 280 | 402 | 430 | 626 | 1210 | 1270 | 1990 | 3940 |
| 2026-04-13 13:00 | 2.93 | 344 | 15800 (1994) | 153 (2000) | 1280 | 208 | 280 | 402 | 430 | 626 | 1210 | 1270 | 1990 | 3940 |
| 2026-04-13 12:30 | 2.94 | 346 | 15800 (1994) | 153 (2000) | 1280 | 208 | 280 | 402 | 430 | 626 | 1210 | 1270 | 1990 | 3940 |
| 2026-04-13 12:00 | 2.92 | 341 | 15800 (1994) | 153 (2000) | 1280 | 208 | 280 | 402 | 430 | 626 | 1210 | 1270 | 1990 | 3940 |
| 2026-04-13 11:30 | 2.93 | 344 | 15800 (1994) | 153 (2000) | 1280 | 208 | 280 | 402 | 430 | 626 | 1210 | 1270 | 1990 | 3940 |
| 2026-04-13 11:00 | 2.93 | 344 | 15800 (1994) | 153 (2000) | 1280 | 208 | 280 | 402 | 430 | 626 | 1210 | 1270 | 1990 | 3940 |
| 2026-04-13 10:30 | 2.93 | 344 | 15800 (1994) | 153 (2000) | 1280 | 208 | 280 | 402 | 430 | 626 | 1210 | 1270 | 1990 | 3940 |
| 2026-04-13 10:00 | 2.92 | 341 | 15800 (1994) | 153 (2000) | 1280 | 208 | 280 | 402 | 430 | 626 | 1210 | 1270 | 1990 | 3940 |
| 2026-04-13 09:30 | 2.93 | 344 | 15800 (1994) | 153 (2000) | 1280 | 208 | 280 | 402 | 430 | 626 | 1210 | 1270 | 1990 | 3940 |
| 2026-04-13 09:00 | 2.92 | 341 | 15800 (1994) | 153 (2000) | 1280 | 208 | 280 | 402 | 430 | 626 | 1210 | 1270 | 1990 | 3940 |
| 2026-04-13 08:30 | 2.93 | 344 | 15800 (1994) | 153 (2000) | 1280 | 208 | 280 | 402 | 430 | 626 | 1210 | 1270 | 1990 | 3940 |
| 2026-04-13 08:00 | 2.93 | 344 | 15800 (1994) | 153 (2000) | 1280 | 208 | 280 | 402 | 430 | 626 | 1210 | 1270 | 1990 | 3940 |
| 2026-04-13 07:30 | 2.94 | 346 | 15800 (1994) | 153 (2000) | 1280 | 208 | 280 | 402 | 430 | 626 | 1210 | 1270 | 1990 | 3940 |
| 2026-04-13 07:00 | 2.93 | 344 | 15800 (1994) | 153 (2000) | 1280 | 208 | 280 | 402 | 430 | 626 | 1210 | 1270 | 1990 | 3940 |
| 2026-04-13 06:30 | 2.95 | 349 | 15800 (1994) | 153 (2000) | 1280 | 208 | 280 | 402 | 430 | 626 | 1210 | 1270 | 1990 | 3940 |
| 2026-04-13 06:00 | 2.94 | 346 | 15800 (1994) | 153 (2000) | 1280 | 208 | 280 | 402 | 430 | 626 | 1210 | 1270 | 1990 | 3940 |
| 2026-04-13 05:30 | 2.93 | 344 | 15800 (1994) | 153 (2000) | 1280 | 208 | 280 | 402 | 430 | 626 | 1210 | 1270 | 1990 | 3940 |
| 2026-04-13 05:00 | 2.94 | 346 | 15800 (1994) | 153 (2000) | 1280 | 208 | 280 | 402 | 430 | 626 | 1210 | 1270 | 1990 | 3940 |
| 2026-04-13 04:30 | 2.94 | 346 | 15800 (1994) | 153 (2000) | 1280 | 208 | 280 | 402 | 430 | 626 | 1210 | 1270 | 1990 | 3940 |
| 2026-04-13 04:00 | 2.94 | 346 | 15800 (1994) | 153 (2000) | 1280 | 208 | 280 | 402 | 430 | 626 | 1210 | 1270 | 1990 | 3940 |
| 2026-04-13 03:30 | 2.94 | 346 | 15800 (1994) | 153 (2000) | 1280 | 208 | 280 | 402 | 430 | 626 | 1210 | 1270 | 1990 | 3940 |
| 2026-04-13 03:00 | 2.94 | 346 | 15800 (1994) | 153 (2000) | 1280 | 208 | 280 | 402 | 430 | 626 | 1210 | 1270 | 1990 | 3940 |
| 2026-04-13 02:30 | 2.95 | 349 | 15800 (1994) | 153 (2000) | 1280 | 208 | 280 | 402 | 430 | 626 | 1210 | 1270 | 1990 | 3940 |
| 2026-04-13 02:00 | 2.94 | 346 | 15800 (1994) | 153 (2000) | 1280 | 208 | 280 | 402 | 430 | 626 | 1210 | 1270 | 1990 | 3940 |
| 2026-04-13 01:30 | 2.94 | 346 | 15800 (1994) | 153 (2000) | 1280 | 208 | 280 | 402 | 430 | 626 | 1210 | 1270 | 1990 | 3940 |
| 2026-04-13 01:00 | 2.94 | 346 | 15800 (1994) | 153 (2000) | 1280 | 208 | 280 | 402 | 430 | 626 | 1210 | 1270 | 1990 | 3940 |
| 2026-04-13 00:30 | 2.94 | 346 | 15800 (1994) | 153 (2000) | 1280 | 208 | 280 | 402 | 430 | 626 | 1210 | 1270 | 1990 | 3940 |
| 2026-04-13 00:00 | 2.94 | 346 | 15800 (1994) | 153 (2000) | 1280 | 208 | 280 | 402 | 430 | 626 | 1210 | 1270 | 1990 | 3940 |
| 2026-04-12 23:30 | 2.94 | 346 | 15800 (1994) | 153 (2000) | 1280 | 208 | 280 | 402 | 430 | 626 | 1210 | 1270 | 1990 | 3940 |
| 2026-04-12 23:00 | 2.95 | 349 | 15800 (1994) | 153 (2000) | 1280 | 208 | 280 | 402 | 430 | 626 | 1210 | 1270 | 1990 | 3940 |
| 2026-04-12 22:30 | 2.95 | 349 | 36300 (1994) | 140 (1981) | 1870 | 188 | 285 | 409 | 447 | 636 | 1320 | 1380 | 2230 | 6280 |
| 2026-04-12 22:00 | 2.96 | 352 | 36300 (1994) | 140 (1981) | 1870 | 188 | 285 | 409 | 447 | 636 | 1320 | 1380 | 2230 | 6280 |
| 2026-04-12 21:30 | 2.96 | 352 | 36300 (1994) | 140 (1981) | 1870 | 188 | 285 | 409 | 447 | 636 | 1320 | 1380 | 2230 | 6280 |
| 2026-04-12 21:00 | 2.94 | 346 | 36300 (1994) | 140 (1981) | 1870 | 188 | 285 | 409 | 447 | 636 | 1320 | 1380 | 2230 | 6280 |
| 2026-04-12 20:30 | 2.95 | 349 | 36300 (1994) | 140 (1981) | 1870 | 188 | 285 | 409 | 447 | 636 | 1320 | 1380 | 2230 | 6280 |
| 2026-04-12 20:00 | 2.96 | 352 | 36300 (1994) | 140 (1981) | 1870 | 188 | 285 | 409 | 447 | 636 | 1320 | 1380 | 2230 | 6280 |
| 2026-04-12 19:30 | 2.95 | 349 | 36300 (1994) | 140 (1981) | 1870 | 188 | 285 | 409 | 447 | 636 | 1320 | 1380 | 2230 | 6280 |
| 2026-04-12 19:00 | 2.96 | 352 | 36300 (1994) | 140 (1981) | 1870 | 188 | 285 | 409 | 447 | 636 | 1320 | 1380 | 2230 | 6280 |
| 2026-04-12 18:30 | 2.96 | 352 | 36300 (1994) | 140 (1981) | 1870 | 188 | 285 | 409 | 447 | 636 | 1320 | 1380 | 2230 | 6280 |
| 2026-04-12 18:00 | 2.95 | 349 | 36300 (1994) | 140 (1981) | 1870 | 188 | 285 | 409 | 447 | 636 | 1320 | 1380 | 2230 | 6280 |
| 2026-04-12 17:30 | 2.96 | 352 | 36300 (1994) | 140 (1981) | 1870 | 188 | 285 | 409 | 447 | 636 | 1320 | 1380 | 2230 | 6280 |
| 2026-04-12 17:00 | 2.97 | 355 | 36300 (1994) | 140 (1981) | 1870 | 188 | 285 | 409 | 447 | 636 | 1320 | 1380 | 2230 | 6280 |
| 2026-04-12 16:30 | 2.98 | 358 | 36300 (1994) | 140 (1981) | 1870 | 188 | 285 | 409 | 447 | 636 | 1320 | 1380 | 2230 | 6280 |
| 2026-04-12 16:00 | 2.98 | 358 | 36300 (1994) | 140 (1981) | 1870 | 188 | 285 | 409 | 447 | 636 | 1320 | 1380 | 2230 | 6280 |
| 2026-04-12 15:30 | 2.99 | 360 | 36300 (1994) | 140 (1981) | 1870 | 188 | 285 | 409 | 447 | 636 | 1320 | 1380 | 2230 | 6280 |
| 2026-04-12 15:00 | 2.99 | 360 | 36300 (1994) | 140 (1981) | 1870 | 188 | 285 | 409 | 447 | 636 | 1320 | 1380 | 2230 | 6280 |
| 2026-04-12 14:30 | 2.97 | 355 | 36300 (1994) | 140 (1981) | 1870 | 188 | 285 | 409 | 447 | 636 | 1320 | 1380 | 2230 | 6280 |
| 2026-04-12 14:00 | 2.96 | 352 | 36300 (1994) | 140 (1981) | 1870 | 188 | 285 | 409 | 447 | 636 | 1320 | 1380 | 2230 | 6280 |
| 2026-04-12 13:30 | 2.98 | 358 | 36300 (1994) | 140 (1981) | 1870 | 188 | 285 | 409 | 447 | 636 | 1320 | 1380 | 2230 | 6280 |
| 2026-04-12 13:00 | 2.98 | 358 | 36300 (1994) | 140 (1981) | 1870 | 188 | 285 | 409 | 447 | 636 | 1320 | 1380 | 2230 | 6280 |
| 2026-04-12 12:30 | 2.98 | 358 | 36300 (1994) | 140 (1981) | 1870 | 188 | 285 | 409 | 447 | 636 | 1320 | 1380 | 2230 | 6280 |
| 2026-04-12 12:00 | 3.00 | 363 | 36300 (1994) | 140 (1981) | 1870 | 188 | 285 | 409 | 447 | 636 | 1320 | 1380 | 2230 | 6280 |
| 2026-04-12 11:30 | 2.98 | 358 | 36300 (1994) | 140 (1981) | 1870 | 188 | 285 | 409 | 447 | 636 | 1320 | 1380 | 2230 | 6280 |
| 2026-04-12 11:00 | 2.98 | 358 | 36300 (1994) | 140 (1981) | 1870 | 188 | 285 | 409 | 447 | 636 | 1320 | 1380 | 2230 | 6280 |
| 2026-04-12 10:30 | 2.98 | 358 | 36300 (1994) | 140 (1981) | 1870 | 188 | 285 | 409 | 447 | 636 | 1320 | 1380 | 2230 | 6280 |
| 2026-04-12 10:00 | 3.00 | 363 | 36300 (1994) | 140 (1981) | 1870 | 188 | 285 | 409 | 447 | 636 | 1320 | 1380 | 2230 | 6280 |
| 2026-04-12 09:30 | 2.99 | 360 | 36300 (1994) | 140 (1981) | 1870 | 188 | 285 | 409 | 447 | 636 | 1320 | 1380 | 2230 | 6280 |
| 2026-04-12 09:00 | 2.98 | 358 | 36300 (1994) | 140 (1981) | 1870 | 188 | 285 | 409 | 447 | 636 | 1320 | 1380 | 2230 | 6280 |
| 2026-04-12 08:30 | 3.00 | 363 | 36300 (1994) | 140 (1981) | 1870 | 188 | 285 | 409 | 447 | 636 | 1320 | 1380 | 2230 | 6280 |
| 2026-04-12 08:00 | 3.01 | 366 | 36300 (1994) | 140 (1981) | 1870 | 188 | 285 | 409 | 447 | 636 | 1320 | 1380 | 2230 | 6280 |
| 2026-04-12 07:30 | 2.99 | 360 | 36300 (1994) | 140 (1981) | 1870 | 188 | 285 | 409 | 447 | 636 | 1320 | 1380 | 2230 | 6280 |
| 2026-04-12 07:00 | 3.01 | 366 | 36300 (1994) | 140 (1981) | 1870 | 188 | 285 | 409 | 447 | 636 | 1320 | 1380 | 2230 | 6280 |
| 2026-04-12 06:30 | 3.00 | 363 | 36300 (1994) | 140 (1981) | 1870 | 188 | 285 | 409 | 447 | 636 | 1320 | 1380 | 2230 | 6280 |
| 2026-04-12 06:00 | 2.99 | 360 | 36300 (1994) | 140 (1981) | 1870 | 188 | 285 | 409 | 447 | 636 | 1320 | 1380 | 2230 | 6280 |
| 2026-04-12 05:30 | 3.00 | 363 | 36300 (1994) | 140 (1981) | 1870 | 188 | 285 | 409 | 447 | 636 | 1320 | 1380 | 2230 | 6280 |
| 2026-04-12 05:00 | 3.00 | 363 | 36300 (1994) | 140 (1981) | 1870 | 188 | 285 | 409 | 447 | 636 | 1320 | 1380 | 2230 | 6280 |
| 2026-04-12 04:30 | 2.99 | 360 | 36300 (1994) | 140 (1981) | 1870 | 188 | 285 | 409 | 447 | 636 | 1320 | 1380 | 2230 | 6280 |
| 2026-04-12 04:00 | 3.02 | 369 | 36300 (1994) | 140 (1981) | 1870 | 188 | 285 | 409 | 447 | 636 | 1320 | 1380 | 2230 | 6280 |
| 2026-04-12 03:30 | 3.01 | 366 | 36300 (1994) | 140 (1981) | 1870 | 188 | 285 | 409 | 447 | 636 | 1320 | 1380 | 2230 | 6280 |
| 2026-04-12 02:30 | 3.02 | 369 | 36300 (1994) | 140 (1981) | 1870 | 188 | 285 | 409 | 447 | 636 | 1320 | 1380 | 2230 | 6280 |
| 2026-04-12 02:00 | 3.00 | 363 | 36300 (1994) | 140 (1981) | 1870 | 188 | 285 | 409 | 447 | 636 | 1320 | 1380 | 2230 | 6280 |
| 2026-04-12 01:30 | 3.00 | 363 | 36300 (1994) | 140 (1981) | 1870 | 188 | 285 | 409 | 447 | 636 | 1320 | 1380 | 2230 | 6280 |
| 2026-04-12 01:00 | 3.01 | 366 | 36300 (1994) | 140 (1981) | 1870 | 188 | 285 | 409 | 447 | 636 | 1320 | 1380 | 2230 | 6280 |
| 2026-04-12 00:30 | 3.01 | 366 | 36300 (1994) | 140 (1981) | 1870 | 188 | 285 | 409 | 447 | 636 | 1320 | 1380 | 2230 | 6280 |
| 2026-04-12 00:00 | 3.00 | 363 | 36300 (1994) | 140 (1981) | 1870 | 188 | 285 | 409 | 447 | 636 | 1320 | 1380 | 2230 | 6280 |
| 2026-04-11 23:30 | 3.02 | 369 | 36300 (1994) | 140 (1981) | 1870 | 188 | 285 | 409 | 447 | 636 | 1320 | 1380 | 2230 | 6280 |
| 2026-04-11 23:00 | 3.01 | 366 | 36300 (1994) | 140 (1981) | 1870 | 188 | 285 | 409 | 447 | 636 | 1320 | 1380 | 2230 | 6280 |
| 2026-04-11 22:30 | 3.01 | 366 | 33700 (1994) | 142 (1981) | 1680 | 197 | 285 | 367 | 411 | 653 | 1010 | 1350 | 2190 | 4980 |
| 2026-04-11 22:00 | 3.01 | 366 | 33700 (1994) | 142 (1981) | 1680 | 197 | 285 | 367 | 411 | 653 | 1010 | 1350 | 2190 | 4980 |
| 2026-04-11 21:30 | 3.02 | 369 | 33700 (1994) | 142 (1981) | 1680 | 197 | 285 | 367 | 411 | 653 | 1010 | 1350 | 2190 | 4980 |
| 2026-04-11 21:00 | 3.02 | 369 | 33700 (1994) | 142 (1981) | 1680 | 197 | 285 | 367 | 411 | 653 | 1010 | 1350 | 2190 | 4980 |
| 2026-04-11 20:30 | 3.01 | 366 | 33700 (1994) | 142 (1981) | 1680 | 197 | 285 | 367 | 411 | 653 | 1010 | 1350 | 2190 | 4980 |
| 2026-04-11 20:00 | 3.02 | 369 | 33700 (1994) | 142 (1981) | 1680 | 197 | 285 | 367 | 411 | 653 | 1010 | 1350 | 2190 | 4980 |
| 2026-04-11 19:30 | 3.03 | 372 | 33700 (1994) | 142 (1981) | 1680 | 197 | 285 | 367 | 411 | 653 | 1010 | 1350 | 2190 | 4980 |
| 2026-04-11 19:00 | 3.01 | 366 | 33700 (1994) | 142 (1981) | 1680 | 197 | 285 | 367 | 411 | 653 | 1010 | 1350 | 2190 | 4980 |
| 2026-04-11 18:30 | 3.02 | 369 | 33700 (1994) | 142 (1981) | 1680 | 197 | 285 | 367 | 411 | 653 | 1010 | 1350 | 2190 | 4980 |
| 2026-04-11 18:00 | 3.03 | 372 | 33700 (1994) | 142 (1981) | 1680 | 197 | 285 | 367 | 411 | 653 | 1010 | 1350 | 2190 | 4980 |
| 2026-04-11 17:30 | 3.04 | 375 | 33700 (1994) | 142 (1981) | 1680 | 197 | 285 | 367 | 411 | 653 | 1010 | 1350 | 2190 | 4980 |
| 2026-04-11 17:00 | 3.03 | 372 | 33700 (1994) | 142 (1981) | 1680 | 197 | 285 | 367 | 411 | 653 | 1010 | 1350 | 2190 | 4980 |
| 2026-04-11 16:30 | 3.04 | 375 | 33700 (1994) | 142 (1981) | 1680 | 197 | 285 | 367 | 411 | 653 | 1010 | 1350 | 2190 | 4980 |
| 2026-04-11 16:00 | 3.01 | 366 | 33700 (1994) | 142 (1981) | 1680 | 197 | 285 | 367 | 411 | 653 | 1010 | 1350 | 2190 | 4980 |
| 2026-04-11 15:30 | 3.02 | 369 | 33700 (1994) | 142 (1981) | 1680 | 197 | 285 | 367 | 411 | 653 | 1010 | 1350 | 2190 | 4980 |
| 2026-04-11 15:00 | 3.04 | 375 | 33700 (1994) | 142 (1981) | 1680 | 197 | 285 | 367 | 411 | 653 | 1010 | 1350 | 2190 | 4980 |
| 2026-04-11 14:30 | 3.03 | 372 | 33700 (1994) | 142 (1981) | 1680 | 197 | 285 | 367 | 411 | 653 | 1010 | 1350 | 2190 | 4980 |
| 2026-04-11 14:00 | 3.02 | 369 | 33700 (1994) | 142 (1981) | 1680 | 197 | 285 | 367 | 411 | 653 | 1010 | 1350 | 2190 | 4980 |
| 2026-04-11 13:30 | 3.04 | 375 | 33700 (1994) | 142 (1981) | 1680 | 197 | 285 | 367 | 411 | 653 | 1010 | 1350 | 2190 | 4980 |
| 2026-04-11 13:00 | 3.04 | 375 | 33700 (1994) | 142 (1981) | 1680 | 197 | 285 | 367 | 411 | 653 | 1010 | 1350 | 2190 | 4980 |
| 2026-04-11 12:30 | 3.03 | 372 | 33700 (1994) | 142 (1981) | 1680 | 197 | 285 | 367 | 411 | 653 | 1010 | 1350 | 2190 | 4980 |
| 2026-04-11 12:00 | 3.03 | 372 | 33700 (1994) | 142 (1981) | 1680 | 197 | 285 | 367 | 411 | 653 | 1010 | 1350 | 2190 | 4980 |
| 2026-04-11 11:30 | 3.04 | 375 | 33700 (1994) | 142 (1981) | 1680 | 197 | 285 | 367 | 411 | 653 | 1010 | 1350 | 2190 | 4980 |
| 2026-04-11 11:00 | 3.04 | 375 | 33700 (1994) | 142 (1981) | 1680 | 197 | 285 | 367 | 411 | 653 | 1010 | 1350 | 2190 | 4980 |
| 2026-04-11 10:30 | 3.04 | 375 | 33700 (1994) | 142 (1981) | 1680 | 197 | 285 | 367 | 411 | 653 | 1010 | 1350 | 2190 | 4980 |
| 2026-04-11 10:00 | 3.05 | 378 | 33700 (1994) | 142 (1981) | 1680 | 197 | 285 | 367 | 411 | 653 | 1010 | 1350 | 2190 | 4980 |
| 2026-04-11 09:30 | 3.04 | 375 | 33700 (1994) | 142 (1981) | 1680 | 197 | 285 | 367 | 411 | 653 | 1010 | 1350 | 2190 | 4980 |
| 2026-04-11 09:00 | 3.04 | 375 | 33700 (1994) | 142 (1981) | 1680 | 197 | 285 | 367 | 411 | 653 | 1010 | 1350 | 2190 | 4980 |
| 2026-04-11 08:30 | 3.06 | 380 | 33700 (1994) | 142 (1981) | 1680 | 197 | 285 | 367 | 411 | 653 | 1010 | 1350 | 2190 | 4980 |
| 2026-04-11 08:00 | 3.04 | 375 | 33700 (1994) | 142 (1981) | 1680 | 197 | 285 | 367 | 411 | 653 | 1010 | 1350 | 2190 | 4980 |
| 2026-04-11 07:30 | 3.06 | 380 | 33700 (1994) | 142 (1981) | 1680 | 197 | 285 | 367 | 411 | 653 | 1010 | 1350 | 2190 | 4980 |
| 2026-04-11 07:00 | 3.06 | 380 | 33700 (1994) | 142 (1981) | 1680 | 197 | 285 | 367 | 411 | 653 | 1010 | 1350 | 2190 | 4980 |
| 2026-04-11 06:30 | 3.05 | 378 | 33700 (1994) | 142 (1981) | 1680 | 197 | 285 | 367 | 411 | 653 | 1010 | 1350 | 2190 | 4980 |
| 2026-04-11 06:00 | 3.06 | 380 | 33700 (1994) | 142 (1981) | 1680 | 197 | 285 | 367 | 411 | 653 | 1010 | 1350 | 2190 | 4980 |
| 2026-04-11 05:30 | 3.05 | 378 | 33700 (1994) | 142 (1981) | 1680 | 197 | 285 | 367 | 411 | 653 | 1010 | 1350 | 2190 | 4980 |
| 2026-04-11 05:00 | 3.05 | 378 | 33700 (1994) | 142 (1981) | 1680 | 197 | 285 | 367 | 411 | 653 | 1010 | 1350 | 2190 | 4980 |
| 2026-04-11 04:30 | 3.06 | 380 | 33700 (1994) | 142 (1981) | 1680 | 197 | 285 | 367 | 411 | 653 | 1010 | 1350 | 2190 | 4980 |
| 2026-04-11 04:00 | 3.06 | 380 | 33700 (1994) | 142 (1981) | 1680 | 197 | 285 | 367 | 411 | 653 | 1010 | 1350 | 2190 | 4980 |
| 2026-04-11 03:30 | 3.08 | 386 | 33700 (1994) | 142 (1981) | 1680 | 197 | 285 | 367 | 411 | 653 | 1010 | 1350 | 2190 | 4980 |
| 2026-04-11 03:00 | 3.08 | 386 | 33700 (1994) | 142 (1981) | 1680 | 197 | 285 | 367 | 411 | 653 | 1010 | 1350 | 2190 | 4980 |
| 2026-04-11 02:30 | 3.08 | 386 | 33700 (1994) | 142 (1981) | 1680 | 197 | 285 | 367 | 411 | 653 | 1010 | 1350 | 2190 | 4980 |
| 2026-04-11 02:00 | 3.06 | 380 | 33700 (1994) | 142 (1981) | 1680 | 197 | 285 | 367 | 411 | 653 | 1010 | 1350 | 2190 | 4980 |
| 2026-04-11 01:30 | 3.06 | 380 | 33700 (1994) | 142 (1981) | 1680 | 197 | 285 | 367 | 411 | 653 | 1010 | 1350 | 2190 | 4980 |
| 2026-04-11 01:00 | 3.07 | 383 | 33700 (1994) | 142 (1981) | 1680 | 197 | 285 | 367 | 411 | 653 | 1010 | 1350 | 2190 | 4980 |
| 2026-04-11 00:30 | 3.07 | 383 | 33700 (1994) | 142 (1981) | 1680 | 197 | 285 | 367 | 411 | 653 | 1010 | 1350 | 2190 | 4980 |
| 2026-04-11 00:00 | 3.06 | 380 | 33700 (1994) | 142 (1981) | 1680 | 197 | 285 | 367 | 411 | 653 | 1010 | 1350 | 2190 | 4980 |
| 2026-04-10 23:30 | 3.08 | 386 | 33700 (1994) | 142 (1981) | 1680 | 197 | 285 | 367 | 411 | 653 | 1010 | 1350 | 2190 | 4980 |
| 2026-04-10 23:00 | 3.10 | 392 | 33700 (1994) | 142 (1981) | 1680 | 197 | 285 | 367 | 411 | 653 | 1010 | 1350 | 2190 | 4980 |
| 2026-04-10 22:30 | 3.07 | 383 | 10200 (1994) | 147 (1981) | 1120 | 197 | 271 | 347 | 384 | 693 | 1060 | 1200 | 1960 | 5240 |
| 2026-04-10 22:00 | 3.09 | 389 | 10200 (1994) | 147 (1981) | 1120 | 197 | 271 | 347 | 384 | 693 | 1060 | 1200 | 1960 | 5240 |
| 2026-04-10 21:30 | 3.10 | 392 | 10200 (1994) | 147 (1981) | 1120 | 197 | 271 | 347 | 384 | 693 | 1060 | 1200 | 1960 | 5240 |
| 2026-04-10 21:00 | 3.09 | 389 | 10200 (1994) | 147 (1981) | 1120 | 197 | 271 | 347 | 384 | 693 | 1060 | 1200 | 1960 | 5240 |
| 2026-04-10 20:30 | 3.08 | 386 | 10200 (1994) | 147 (1981) | 1120 | 197 | 271 | 347 | 384 | 693 | 1060 | 1200 | 1960 | 5240 |
| 2026-04-10 20:00 | 3.10 | 392 | 10200 (1994) | 147 (1981) | 1120 | 197 | 271 | 347 | 384 | 693 | 1060 | 1200 | 1960 | 5240 |
| 2026-04-10 19:30 | 3.09 | 389 | 10200 (1994) | 147 (1981) | 1120 | 197 | 271 | 347 | 384 | 693 | 1060 | 1200 | 1960 | 5240 |
| 2026-04-10 19:00 | 3.10 | 392 | 10200 (1994) | 147 (1981) | 1120 | 197 | 271 | 347 | 384 | 693 | 1060 | 1200 | 1960 | 5240 |
| 2026-04-10 18:30 | 3.11 | 395 | 10200 (1994) | 147 (1981) | 1120 | 197 | 271 | 347 | 384 | 693 | 1060 | 1200 | 1960 | 5240 |
| 2026-04-10 18:00 | 3.11 | 395 | 10200 (1994) | 147 (1981) | 1120 | 197 | 271 | 347 | 384 | 693 | 1060 | 1200 | 1960 | 5240 |
| 2026-04-10 17:30 | 3.09 | 389 | 10200 (1994) | 147 (1981) | 1120 | 197 | 271 | 347 | 384 | 693 | 1060 | 1200 | 1960 | 5240 |
| 2026-04-10 17:00 | 3.10 | 392 | 10200 (1994) | 147 (1981) | 1120 | 197 | 271 | 347 | 384 | 693 | 1060 | 1200 | 1960 | 5240 |
| 2026-04-10 16:30 | 3.10 | 392 | 10200 (1994) | 147 (1981) | 1120 | 197 | 271 | 347 | 384 | 693 | 1060 | 1200 | 1960 | 5240 |
| 2026-04-10 16:00 | 3.12 | 398 | 10200 (1994) | 147 (1981) | 1120 | 197 | 271 | 347 | 384 | 693 | 1060 | 1200 | 1960 | 5240 |
| 2026-04-10 15:30 | 3.11 | 395 | 10200 (1994) | 147 (1981) | 1120 | 197 | 271 | 347 | 384 | 693 | 1060 | 1200 | 1960 | 5240 |
| 2026-04-10 15:00 | 3.13 | 401 | 10200 (1994) | 147 (1981) | 1120 | 197 | 271 | 347 | 384 | 693 | 1060 | 1200 | 1960 | 5240 |
| 2026-04-10 14:30 | 3.10 | 392 | 10200 (1994) | 147 (1981) | 1120 | 197 | 271 | 347 | 384 | 693 | 1060 | 1200 | 1960 | 5240 |
| 2026-04-10 14:00 | 3.12 | 398 | 10200 (1994) | 147 (1981) | 1120 | 197 | 271 | 347 | 384 | 693 | 1060 | 1200 | 1960 | 5240 |
| 2026-04-10 13:30 | 3.12 | 398 | 10200 (1994) | 147 (1981) | 1120 | 197 | 271 | 347 | 384 | 693 | 1060 | 1200 | 1960 | 5240 |
| 2026-04-10 13:00 | 3.13 | 401 | 10200 (1994) | 147 (1981) | 1120 | 197 | 271 | 347 | 384 | 693 | 1060 | 1200 | 1960 | 5240 |
| 2026-04-10 12:30 | 3.14 | 404 | 10200 (1994) | 147 (1981) | 1120 | 197 | 271 | 347 | 384 | 693 | 1060 | 1200 | 1960 | 5240 |
| 2026-04-10 12:00 | 3.13 | 401 | 10200 (1994) | 147 (1981) | 1120 | 197 | 271 | 347 | 384 | 693 | 1060 | 1200 | 1960 | 5240 |
| 2026-04-10 11:30 | 3.14 | 404 | 10200 (1994) | 147 (1981) | 1120 | 197 | 271 | 347 | 384 | 693 | 1060 | 1200 | 1960 | 5240 |
| 2026-04-10 11:00 | 3.12 | 398 | 10200 (1994) | 147 (1981) | 1120 | 197 | 271 | 347 | 384 | 693 | 1060 | 1200 | 1960 | 5240 |
| 2026-04-10 10:30 | 3.14 | 404 | 10200 (1994) | 147 (1981) | 1120 | 197 | 271 | 347 | 384 | 693 | 1060 | 1200 | 1960 | 5240 |
| 2026-04-10 10:00 | 3.15 | 407 | 10200 (1994) | 147 (1981) | 1120 | 197 | 271 | 347 | 384 | 693 | 1060 | 1200 | 1960 | 5240 |
| 2026-04-10 09:30 | 3.15 | 407 | 10200 (1994) | 147 (1981) | 1120 | 197 | 271 | 347 | 384 | 693 | 1060 | 1200 | 1960 | 5240 |
| 2026-04-10 09:00 | 3.13 | 401 | 10200 (1994) | 147 (1981) | 1120 | 197 | 271 | 347 | 384 | 693 | 1060 | 1200 | 1960 | 5240 |
| 2026-04-10 08:30 | 3.14 | 404 | 10200 (1994) | 147 (1981) | 1120 | 197 | 271 | 347 | 384 | 693 | 1060 | 1200 | 1960 | 5240 |
| 2026-04-10 08:00 | 3.15 | 407 | 10200 (1994) | 147 (1981) | 1120 | 197 | 271 | 347 | 384 | 693 | 1060 | 1200 | 1960 | 5240 |
| 2026-04-10 07:30 | 3.14 | 404 | 10200 (1994) | 147 (1981) | 1120 | 197 | 271 | 347 | 384 | 693 | 1060 | 1200 | 1960 | 5240 |
| 2026-04-10 07:00 | 3.14 | 404 | 10200 (1994) | 147 (1981) | 1120 | 197 | 271 | 347 | 384 | 693 | 1060 | 1200 | 1960 | 5240 |
| 2026-04-10 06:30 | 3.17 | 414 | 10200 (1994) | 147 (1981) | 1120 | 197 | 271 | 347 | 384 | 693 | 1060 | 1200 | 1960 | 5240 |
| 2026-04-10 06:00 | 3.15 | 407 | 10200 (1994) | 147 (1981) | 1120 | 197 | 271 | 347 | 384 | 693 | 1060 | 1200 | 1960 | 5240 |
| 2026-04-10 05:30 | 3.15 | 407 | 10200 (1994) | 147 (1981) | 1120 | 197 | 271 | 347 | 384 | 693 | 1060 | 1200 | 1960 | 5240 |
| 2026-04-10 05:00 | 3.16 | 410 | 10200 (1994) | 147 (1981) | 1120 | 197 | 271 | 347 | 384 | 693 | 1060 | 1200 | 1960 | 5240 |
| 2026-04-10 04:30 | 3.18 | 417 | 10200 (1994) | 147 (1981) | 1120 | 197 | 271 | 347 | 384 | 693 | 1060 | 1200 | 1960 | 5240 |
| 2026-04-10 04:00 | 3.16 | 410 | 10200 (1994) | 147 (1981) | 1120 | 197 | 271 | 347 | 384 | 693 | 1060 | 1200 | 1960 | 5240 |
| 2026-04-10 03:30 | 3.16 | 410 | 10200 (1994) | 147 (1981) | 1120 | 197 | 271 | 347 | 384 | 693 | 1060 | 1200 | 1960 | 5240 |
| 2026-04-10 03:00 | 3.17 | 414 | 10200 (1994) | 147 (1981) | 1120 | 197 | 271 | 347 | 384 | 693 | 1060 | 1200 | 1960 | 5240 |
| 2026-04-10 02:30 | 3.17 | 414 | 10200 (1994) | 147 (1981) | 1120 | 197 | 271 | 347 | 384 | 693 | 1060 | 1200 | 1960 | 5240 |
| 2026-04-10 02:00 | 3.19 | 420 | 10200 (1994) | 147 (1981) | 1120 | 197 | 271 | 347 | 384 | 693 | 1060 | 1200 | 1960 | 5240 |
| 2026-04-10 01:30 | 3.18 | 417 | 10200 (1994) | 147 (1981) | 1120 | 197 | 271 | 347 | 384 | 693 | 1060 | 1200 | 1960 | 5240 |
| 2026-04-10 01:00 | 3.20 | 423 | 10200 (1994) | 147 (1981) | 1120 | 197 | 271 | 347 | 384 | 693 | 1060 | 1200 | 1960 | 5240 |
| 2026-04-10 00:30 | 3.18 | 417 | 10200 (1994) | 147 (1981) | 1120 | 197 | 271 | 347 | 384 | 693 | 1060 | 1200 | 1960 | 5240 |
| 2026-04-10 00:00 | 3.19 | 420 | 10200 (1994) | 147 (1981) | 1120 | 197 | 271 | 347 | 384 | 693 | 1060 | 1200 | 1960 | 5240 |
| 2026-04-09 23:30 | 3.19 | 420 | 10200 (1994) | 147 (1981) | 1120 | 197 | 271 | 347 | 384 | 693 | 1060 | 1200 | 1960 | 5240 |
| 2026-04-09 23:00 | 3.21 | 427 | 10200 (1994) | 147 (1981) | 1120 | 197 | 271 | 347 | 384 | 693 | 1060 | 1200 | 1960 | 5240 |
A total of 1353 rows are displayed for years 1950 through 2025.